[[{"header":{"parameterUnit":"m.s-1","parameterCategory":1,"la1":31.0,"la2":29.5877,"lo1":-88.7671,"lo2":-86.6584,"dy":0.0162,"dx":0.0185,"nx":115,"ny":88,"refTime":"2023-10-27T06:00:00:Z","depth":0,"parameterNumber":2,"parameterNumberName":"U-component_of_WINDS"},"data":[0.0,0.0,0.0,0.0,0.0,0.0,0.0,0.0,0.0,0.0,0.0,0.0,0.0,0.0,0.0,0.0,0.0,0.0,0.0,0.0,0.0,0.0,0.0,0.0,0.0,0.0,0.0,0.0,0.0,0.0,0.0,0.0,0.0,0.0,0.0,0.0,0.0,0.0,0.0,0.0,0.0,0.0,0.0,0.0,0.0,0.0,0.0,0.0,0.0,0.0,0.0,0.0,0.0,0.0,0.0,0.0,0.0,0.0,0.0,0.0,0.0,0.0,0.0,0.0,0.0,0.0,0.0,0.0,0.0,0.0,0.0,0.0,0.0,0.0,0.0,0.0,0.0,0.0,0.0,0.0,0.0,0.0,0.0,0.0,0.0,0.0,0.0,0.0,0.0,0.0,0.0,0.0,0.0,0.0,0.0,0.0,0.0,0.0,0.0,0.0,0.0,0.0,0.0,0.0,0.0,0.0,0.0,0.0,0.0,0.0,0.0,0.0,0.0,0.0,0.0,0.0,0.0,0.0,0.0,0.0,0.0,0.0,0.0,0.0,0.0,0.0,0.0,0.0,0.0,0.0,0.0,0.0,0.0,0.0,0.0,0.0,0.0,0.0,0.0,0.0,0.0,0.0,0.0,0.0,0.0,0.0,0.0,0.0,0.0,0.0,0.0,0.0,0.0,0.0,0.0,0.0,0.0,0.0,0.0,0.0,0.0,0.0,0.0,0.0,0.0,0.0,0.0,0.0,0.0,0.0,0.0,0.0,0.0,0.0,0.0,0.0,0.0,0.0,0.0,0.0,0.0,0.0,0.0,0.0,0.0,0.0,0.0,0.0,0.0,0.0,0.0,0.0,0.0,0.0,0.0,0.0,0.0,0.0,0.0,0.0,0.0,0.0,0.0,0.0,0.0,0.0,0.0,0.0,0.0,0.0,0.0,0.0,0.0,0.0,0.0,0.0,0.0,0.0,0.0,0.0,0.0,0.0,0.0,0.0,0.0,0.0,0.0,0.0,0.0,0.0,0.0,0.0,0.0,0.0,0.0,0.0,0.0,0.0,0.0,0.0,0.0,0.0,0.0,0.0,0.0,0.0,0.0,0.0,0.0,0.0,0.0,0.0,0.0,0.0,0.0,0.0,0.0,0.0,0.0,0.0,0.0,0.0,0.0,0.0,0.0,0.0,0.0,0.0,0.0,0.0,0.0,0.0,0.0,0.0,0.0,0.0,0.0,0.0,0.0,0.0,0.0,0.0,0.0,0.0,0.0,0.0,0.0,0.0,0.0,0.0,0.0,0.0,0.0,0.0,0.0,0.0,0.0,0.0,0.0,0.0,0.0,0.0,0.0,0.0,0.0,0.0,0.0,0.0,0.0,0.0,0.0,0.0,0.0,0.0,0.0,0.0,0.0,0.0,0.0,0.0,0.0,0.0,0.0,0.0,0.0,0.0,0.0,0.0,0.0,0.0,0.0,0.0,0.0,0.0,0.0,0.0,0.0,0.0,0.0,0.0,0.0,0.0,0.0,0.0,0.0,0.0,0.0,0.0,0.0,0.0,0.0,0.0,0.0,0.0,0.0,0.0,0.0,0.0,0.0,0.0,0.0,0.0,0.0,0.0,0.0,0.0,0.0,0.0,0.0,0.0,0.0,0.0,0.0,0.0,0.0,0.0,0.0,0.0,0.0,0.0,0.0,0.0,0.0,0.0,0.0,0.0,0.0,0.0,0.0,0.0,0.0,0.0,0.0,0.0,0.0,0.0,0.0,0.0,0.0,0.0,0.0,0.0,0.0,0.0,0.0,0.0,0.0,0.0,0.0,0.0,0.0,0.0,0.0,0.0,0.0,0.0,0.0,0.0,0.0,0.0,0.0,0.0,0.0,0.0,0.0,0.0,0.0,0.0,0.0,0.0,0.0,0.0,0.0,0.0,0.0,0.0,0.0,0.0,0.0,0.0,0.0,0.0,0.0,0.0,0.0,0.0,0.0,0.0,0.0,0.0,0.0,0.0,0.0,0.0,0.0,0.0,0.0,0.0,0.0,0.0,0.0,0.0,0.0,0.0,0.0,0.0,0.0,0.0,0.0,0.0,0.0,0.0,0.0,0.0,0.0,0.0,0.0,0.0,0.0,0.0,0.0,0.0,0.0,0.0,0.0,0.0,0.0,0.0,0.0,0.0,0.0,0.0,0.0,0.0,0.0,0.0,0.0,0.0,0.0,0.0,0.0,0.0,0.0,0.0,0.0,0.0,0.0,0.0,0.0,0.0,0.0,0.0,0.0,0.0,0.0,0.0,0.0,0.0,0.0,0.0,0.0,0.0,0.0,0.0,0.0,0.0,0.0,0.0,0.0,0.0,0.0,0.0,0.0,0.0,0.0,0.0,0.0,0.0,0.0,0.0,0.0,0.0,0.0,0.0,0.0,0.0,0.0,0.0,0.0,0.0,0.0,0.0,0.0,0.0,0.0,0.0,0.0,0.0,0.0,0.0,0.0,0.0,0.0,0.0,0.0,0.0,0.0,0.0,0.0,0.0,0.0,0.0,0.0,0.0,0.0,0.0,0.0,0.0,0.0,0.0,0.0,0.0,0.0,0.0,0.0,0.0,0.0,0.0,0.0,0.0,0.0,0.0,0.0,0.0,0.0,0.0,0.0,0.0,0.0,0.0,0.0,0.0,0.0,0.0,0.0,0.0,0.0,0.0,0.0,0.0,0.0,0.0,0.0,0.0,0.0,0.0,0.0,0.0,0.0,0.0,0.0,0.0,0.0,0.0,0.0,0.0,0.0,0.0,0.0,0.0,0.0,0.0,0.0,0.0,0.0,0.0,0.0,0.0,0.0,0.0,0.0,0.0,0.0,0.0,0.0,0.0,0.0,0.0,0.0,0.0,0.0,0.0,0.0,0.0,0.0,0.0,0.0,0.0,0.0,0.0,0.0,0.0,0.0,0.0,0.0,0.0,0.0,0.0,0.0,0.0,0.0,0.0,0.0,0.0,0.0,0.0,0.0,0.0,0.0,0.0,0.0,0.0,0.0,0.0,0.0,0.0,0.0,0.0,0.0,0.0,0.0,0.0,0.0,0.0,0.0,0.0,0.0,0.0,0.0,0.0,0.0,0.0,0.0,0.0,0.0,0.0,0.0,0.0,0.0,0.0,0.0,0.0,0.0,0.0,0.0,0.0,0.0,0.0,0.0,0.0,0.0,0.0,0.0,0.0,0.0,0.0,0.0,0.0,0.0,0.0,0.0,0.0,0.0,0.0,0.0,0.0,0.0,0.0,0.0,0.0,0.0,0.0,0.0,0.0,0.0,0.0,0.0,0.0,0.0,0.0,0.0,0.0,0.0,0.0,0.0,0.0,0.0,0.0,0.0,0.0,0.0,0.0,0.0,0.0,0.0,0.0,0.0,0.0,0.0,0.0,0.0,0.0,0.0,0.0,0.0,0.0,0.0,0.0,0.0,0.0,0.0,0.0,0.0,0.0,0.0,0.0,0.0,0.0,0.0,0.0,0.0,0.0,0.0,0.0,0.0,0.0,0.0,0.0,0.0,0.0,0.0,0.0,0.0,0.0,0.0,0.0,0.0,0.0,0.0,0.0,0.0,0.0,0.0,0.0,0.0,0.0,0.0,0.0,0.0,0.0,0.0,0.0,0.0,0.0,0.0,0.0,0.0,0.0,0.0,0.0,0.0,0.0,0.0,0.0,0.0,0.0,0.0,0.0,0.0,0.0,0.0,0.0,0.0,0.0,0.0,0.0,0.0,0.0,0.0,0.0,0.0,0.0,0.0,0.0,0.0,0.0,0.0,0.0,0.0,0.0,0.0,0.0,0.0,0.0,0.0,0.0,0.0,0.0,0.0,0.0,0.0,0.0,0.0,0.0,0.0,0.0,0.0,0.0,0.0,0.0,0.0,0.0,0.0,0.0,0.0,0.0,0.0,0.0,0.0,0.0,0.0,0.0,0.0,0.0,0.0,0.0,0.0,0.0,0.0,0.0,0.0,0.0,0.0,0.0,0.0,0.0,0.0,0.0,0.0,0.0,0.0,0.0,0.0,0.0,0.0,0.0,0.0,0.0,0.0,0.0,0.0,0.0,0.0,0.0,0.0,0.0,0.0,0.0,0.0,0.0,0.0,0.0,0.0,0.0,0.0,0.0,0.0,0.0,0.0,0.0,0.0,0.0,0.0,0.0,0.0,0.0,0.0,0.0,0.0,0.0,0.0,0.0,0.0,0.0,0.0,0.0,0.0,0.0,0.0,0.0,0.0,0.0,0.0,0.0,0.0,0.0,-1.6397,0.0,0.0,0.0,0.0,0.0,0.0,0.0,0.0,0.0,0.0,0.0,0.0,0.0,0.0,0.0,0.0,0.0,0.0,0.0,0.0,0.0,0.0,0.0,0.0,0.0,0.0,0.0,0.0,0.0,0.0,0.0,0.0,0.0,0.0,0.0,0.0,0.0,0.0,0.0,0.0,0.0,0.0,0.0,0.0,0.0,0.0,0.0,0.0,0.0,0.0,0.0,0.0,0.0,0.0,0.0,0.0,0.0,0.0,0.0,0.0,0.0,0.0,0.0,0.0,0.0,0.0,0.0,0.0,0.0,0.0,0.0,0.0,0.0,0.0,0.0,0.0,0.0,0.0,0.0,0.0,0.0,0.0,0.0,0.0,0.0,0.0,0.0,0.0,0.0,0.0,0.0,0.0,0.0,0.0,0.0,0.0,0.0,0.0,0.0,0.0,0.0,0.0,0.0,0.0,0.0,0.0,0.0,0.0,0.0,0.0,-1.6023,-1.5959,-1.6051,-1.6055,-1.5976,0.0,0.0,0.0,0.0,0.0,0.0,0.0,0.0,0.0,0.0,0.0,0.0,0.0,0.0,0.0,0.0,0.0,0.0,0.0,0.0,0.0,0.0,0.0,0.0,0.0,0.0,0.0,0.0,0.0,0.0,0.0,0.0,0.0,0.0,0.0,0.0,0.0,0.0,0.0,0.0,0.0,0.0,0.0,0.0,0.0,0.0,0.0,0.0,0.0,0.0,0.0,0.0,0.0,0.0,0.0,0.0,0.0,0.0,0.0,0.0,0.0,0.0,0.0,0.0,0.0,0.0,0.0,0.0,0.0,0.0,0.0,0.0,0.0,0.0,0.0,0.0,0.0,0.0,0.0,0.0,0.0,0.0,0.0,0.0,0.0,0.0,0.0,0.0,0.0,0.0,0.0,0.0,0.0,0.0,0.0,0.0,0.0,0.0,0.0,0.0,0.0,0.0,0.0,0.0,0.0,0.0,0.0,0.0,0.0,0.0,0.0,0.0,-1.6319,-1.6555,-1.628,0.0,0.0,0.0,0.0,0.0,0.0,0.0,0.0,0.0,0.0,0.0,0.0,0.0,0.0,0.0,0.0,0.0,0.0,0.0,0.0,0.0,0.0,0.0,0.0,0.0,0.0,0.0,0.0,0.0,0.0,0.0,0.0,0.0,0.0,0.0,0.0,0.0,0.0,0.0,0.0,0.0,0.0,0.0,0.0,0.0,0.0,0.0,0.0,0.0,0.0,0.0,0.0,0.0,0.0,0.0,0.0,0.0,0.0,0.0,0.0,0.0,0.0,0.0,0.0,0.0,0.0,0.0,0.0,0.0,0.0,0.0,0.0,0.0,0.0,0.0,0.0,0.0,0.0,0.0,0.0,0.0,0.0,0.0,0.0,0.0,0.0,0.0,0.0,0.0,0.0,0.0,0.0,0.0,0.0,0.0,0.0,0.0,0.0,0.0,0.0,0.0,0.0,0.0,0.0,0.0,0.0,0.0,0.0,0.0,0.0,-1.5755,-1.6467,-1.6555,0.0,-1.8656,0.0,0.0,0.0,0.0,0.0,0.0,0.0,0.0,0.0,0.0,0.0,0.0,0.0,0.0,0.0,0.0,0.0,0.0,0.0,0.0,0.0,0.0,0.0,0.0,0.0,0.0,0.0,0.0,0.0,0.0,0.0,0.0,0.0,0.0,0.0,0.0,0.0,0.0,0.0,0.0,0.0,0.0,0.0,0.0,0.0,0.0,0.0,0.0,0.0,0.0,0.0,0.0,0.0,0.0,0.0,0.0,0.0,0.0,0.0,0.0,0.0,0.0,0.0,0.0,0.0,0.0,0.0,0.0,0.0,0.0,0.0,0.0,0.0,0.0,0.0,0.0,0.0,0.0,0.0,0.0,0.0,0.0,0.0,0.0,0.0,0.0,0.0,0.0,0.0,0.0,0.0,0.0,0.0,0.0,0.0,0.0,0.0,0.0,0.0,0.0,0.0,0.0,0.0,0.0,0.0,0.0,0.0,0.0,0.0,0.0,-1.6769,-1.6603,-1.6557,-1.734,0.0,0.0,0.0,0.0,0.0,0.0,0.0,0.0,0.0,0.0,0.0,0.0,0.0,0.0,0.0,0.0,0.0,0.0,0.0,0.0,0.0,0.0,0.0,0.0,0.0,0.0,0.0,0.0,0.0,0.0,0.0,0.0,0.0,0.0,0.0,0.0,0.0,0.0,0.0,0.0,0.0,0.0,0.0,0.0,0.0,0.0,0.0,0.0,0.0,0.0,0.0,0.0,0.0,0.0,0.0,0.0,0.0,0.0,0.0,0.0,0.0,0.0,0.0,0.0,0.0,0.0,0.0,0.0,0.0,0.0,0.0,0.0,0.0,0.0,0.0,0.0,0.0,0.0,0.0,0.0,0.0,0.0,0.0,0.0,0.0,0.0,0.0,0.0,0.0,0.0,0.0,0.0,0.0,0.0,0.0,0.0,0.0,0.0,0.0,0.0,0.0,0.0,0.0,0.0,0.0,0.0,0.0,0.0,0.0,0.0,-1.6984,-1.731,-1.6928,-1.6856,-1.7416,-1.8678,0.0,0.0,0.0,0.0,0.0,0.0,0.0,0.0,0.0,0.0,0.0,0.0,0.0,0.0,0.0,0.0,0.0,0.0,0.0,0.0,0.0,0.0,0.0,0.0,0.0,0.0,0.0,0.0,0.0,0.0,0.0,0.0,0.0,0.0,0.0,0.0,0.0,0.0,0.0,0.0,0.0,0.0,0.0,0.0,0.0,0.0,0.0,0.0,0.0,0.0,0.0,0.0,0.0,0.0,0.0,0.0,0.0,0.0,0.0,0.0,0.0,0.0,0.0,0.0,0.0,0.0,0.0,0.0,0.0,0.0,0.0,0.0,0.0,0.0,0.0,0.0,0.0,0.0,0.0,0.0,0.0,0.0,0.0,0.0,0.0,0.0,0.0,0.0,0.0,0.0,0.0,0.0,0.0,0.0,0.0,0.0,0.0,0.0,0.0,0.0,0.0,0.0,0.0,0.0,0.0,0.0,0.0,0.0,-1.7465,-1.6926,-1.692,-1.7613,-1.7645,-1.7683,0.0,0.0,0.0,0.0,0.0,0.0,0.0,0.0,0.0,0.0,0.0,0.0,0.0,0.0,0.0,0.0,0.0,0.0,0.0,0.0,0.0,0.0,0.0,0.0,0.0,0.0,0.0,0.0,0.0,0.0,0.0,0.0,0.0,0.0,0.0,0.0,0.0,0.0,0.0,0.0,0.0,0.0,0.0,0.0,0.0,0.0,0.0,0.0,0.0,0.0,0.0,0.0,0.0,0.0,0.0,0.0,0.0,0.0,0.0,0.0,0.0,0.0,0.0,0.0,0.0,0.0,0.0,0.0,0.0,0.0,0.0,0.0,0.0,0.0,0.0,0.0,0.0,0.0,0.0,0.0,0.0,0.0,0.0,0.0,0.0,0.0,0.0,0.0,0.0,0.0,0.0,0.0,0.0,0.0,0.0,0.0,0.0,0.0,0.0,0.0,0.0,0.0,0.0,0.0,0.0,0.0,0.0,0.0,0.0,-1.608,-1.6349,-1.7157,-1.8434,-1.7503,-1.7433,0.0,0.0,0.0,0.0,0.0,0.0,0.0,0.0,0.0,0.0,0.0,0.0,0.0,0.0,0.0,0.0,0.0,0.0,0.0,0.0,0.0,0.0,0.0,0.0,0.0,0.0,0.0,0.0,0.0,0.0,0.0,0.0,0.0,0.0,0.0,0.0,0.0,0.0,0.0,0.0,0.0,0.0,0.0,0.0,0.0,0.0,0.0,0.0,0.0,0.0,0.0,0.0,0.0,0.0,0.0,0.0,0.0,0.0,0.0,0.0,0.0,0.0,0.0,0.0,0.0,0.0,0.0,0.0,0.0,0.0,0.0,0.0,0.0,0.0,0.0,0.0,0.0,0.0,0.0,0.0,0.0,0.0,0.0,0.0,0.0,0.0,0.0,0.0,0.0,0.0,0.0,0.0,0.0,0.0,0.0,0.0,0.0,0.0,0.0,0.0,0.0,0.0,0.0,0.0,0.0,0.0,0.0,0.0,0.0,-1.5575,0.0,-1.6982,-1.8025,-1.6979,-1.6792,0.0,0.0,0.0,0.0,0.0,0.0,0.0,0.0,0.0,0.0,0.0,0.0,0.0,0.0,0.0,0.0,0.0,0.0,0.0,0.0,0.0,0.0,0.0,0.0,0.0,0.0,0.0,0.0,0.0,0.0,0.0,0.0,0.0,0.0,0.0,0.0,0.0,0.0,0.0,0.0,0.0,0.0,0.0,0.0,0.0,0.0,0.0,0.0,0.0,0.0,0.0,0.0,0.0,0.0,0.0,0.0,0.0,0.0,0.0,0.0,0.0,0.0,0.0,0.0,0.0,0.0,0.0,0.0,0.0,0.0,0.0,0.0,0.0,0.0,0.0,0.0,0.0,0.0,0.0,0.0,0.0,0.0,0.0,0.0,0.0,0.0,0.0,0.0,0.0,0.0,0.0,0.0,0.0,0.0,0.0,0.0,0.0,0.0,0.0,0.0,0.0,0.0,0.0,0.0,0.0,0.0,0.0,0.0,-1.5415,-1.6208,-1.6273,-1.6319,-1.633,-1.6191,-1.5742,0.0,0.0,0.0,0.0,0.0,0.0,0.0,0.0,0.0,0.0,0.0,0.0,0.0,0.0,0.0,0.0,0.0,0.0,0.0,0.0,0.0,0.0,0.0,0.0,0.0,0.0,0.0,0.0,0.0,0.0,0.0,0.0,0.0,0.0,0.0,0.0,0.0,0.0,0.0,0.0,0.0,0.0,0.0,0.0,0.0,0.0,0.0,0.0,0.0,0.0,0.0,0.0,0.0,0.0,0.0,0.0,0.0,0.0,0.0,0.0,0.0,0.0,0.0,0.0,0.0,0.0,0.0,0.0,0.0,0.0,0.0,0.0,0.0,0.0,0.0,0.0,0.0,0.0,0.0,0.0,0.0,0.0,0.0,0.0,0.0,0.0,0.0,0.0,0.0,0.0,0.0,0.0,0.0,0.0,0.0,0.0,0.0,0.0,0.0,0.0,0.0,0.0,0.0,0.0,0.0,0.0,0.0,0.0,0.0,-1.5323,-1.5475,-1.6084,-1.7082,-1.5975,-1.5795,0.0,0.0,0.0,0.0,0.0,0.0,0.0,0.0,0.0,0.0,0.0,0.0,0.0,0.0,0.0,0.0,0.0,0.0,0.0,0.0,0.0,0.0,0.0,0.0,0.0,0.0,0.0,0.0,0.0,0.0,0.0,0.0,0.0,0.0,0.0,0.0,0.0,0.0,0.0,0.0,0.0,0.0,0.0,0.0,0.0,0.0,0.0,0.0,0.0,0.0,0.0,0.0,0.0,0.0,0.0,0.0,0.0,0.0,0.0,0.0,0.0,0.0,0.0,0.0,0.0,0.0,0.0,0.0,0.0,0.0,0.0,0.0,0.0,0.0,0.0,0.0,0.0,0.0,0.0,0.0,0.0,0.0,0.0,0.0,0.0,0.0,0.0,0.0,0.0,0.0,0.0,0.0,0.0,0.0,0.0,0.0,0.0,0.0,0.0,0.0,0.0,0.0,0.0,0.0,0.0,0.0,0.0,0.0,0.0,-1.5214,-1.5068,-1.5494,-1.6496,-1.5412,-1.5461,-1.6809,0.0,0.0,0.0,0.0,0.0,0.0,0.0,0.0,0.0,0.0,0.0,0.0,0.0,0.0,0.0,0.0,0.0,0.0,0.0,0.0,0.0,0.0,0.0,0.0,0.0,0.0,0.0,0.0,0.0,0.0,0.0,0.0,0.0,0.0,0.0,0.0,0.0,0.0,0.0,0.0,0.0,0.0,0.0,0.0,0.0,0.0,0.0,0.0,0.0,0.0,0.0,0.0,0.0,0.0,0.0,0.0,0.0,0.0,0.0,0.0,0.0,0.0,0.0,0.0,0.0,0.0,0.0,0.0,0.0,0.0,0.0,0.0,0.0,0.0,0.0,0.0,0.0,0.0,0.0,0.0,0.0,0.0,0.0,0.0,0.0,0.0,0.0,0.0,0.0,0.0,0.0,0.0,0.0,0.0,0.0,0.0,0.0,0.0,0.0,0.0,0.0,0.0,0.0,0.0,0.0,0.0,0.0,0.0,-1.5692,-1.5088,-1.4809,-1.4893,-1.4674,-1.4915,0.0,0.0,0.0,0.0,0.0,0.0,0.0,0.0,0.0,0.0,0.0,0.0,0.0,0.0,0.0,0.0,0.0,0.0,0.0,0.0,0.0,0.0,0.0,0.0,0.0,0.0,0.0,0.0,0.0,0.0,0.0,0.0,0.0,0.0,0.0,0.0,0.0,0.0,0.0,0.0,0.0,0.0,0.0,0.0,0.0,0.0,0.0,0.0,0.0,0.0,0.0,0.0,0.0,0.0,0.0,0.0,0.0,0.0,0.0,0.0,0.0,0.0,0.0,0.0,0.0,0.0,0.0,0.0,0.0,0.0,0.0,0.0,0.0,0.0,0.0,0.0,0.0,0.0,0.0,0.0,0.0,0.0,0.0,0.0,0.0,0.0,0.0,0.0,0.0,0.0,0.0,0.0,0.0,0.0,0.0,0.0,0.0,0.0,0.0,0.0,0.0,0.0,0.0,0.0,0.0,0.0,0.0,0.0,0.0,-1.5686,-1.5539,-1.5788,-1.6489,-1.5309,-1.5325,0.0,0.0,0.0,0.0,0.0,0.0,0.0,0.0,0.0,0.0,0.0,0.0,0.0,0.0,0.0,0.0,0.0,0.0,0.0,0.0,0.0,0.0,0.0,0.0,0.0,0.0,0.0,0.0,0.0,0.0,0.0,0.0,0.0,0.0,0.0,0.0,0.0,0.0,0.0,0.0,0.0,0.0,0.0,0.0,0.0,0.0,0.0,0.0,0.0,0.0,0.0,0.0,0.0,0.0,0.0,0.0,0.0,0.0,0.0,0.0,0.0,0.0,0.0,0.0,0.0,0.0,0.0,0.0,0.0,0.0,0.0,0.0,0.0,0.0,0.0,0.0,0.0,0.0,0.0,0.0,0.0,0.0,0.0,0.0,0.0,0.0,0.0,0.0,0.0,0.0,0.0,0.0,0.0,0.0,0.0,0.0,0.0,0.0,0.0,0.0,0.0,0.0,0.0,0.0,0.0,0.0,0.0,0.0,-1.6078,-1.6224,-1.6536,-1.6993,-1.7559,-1.6306,-1.6244,0.0,0.0,0.0,0.0,0.0,0.0,0.0,0.0,0.0,0.0,0.0,0.0,0.0,0.0,0.0,0.0,0.0,0.0,0.0,0.0,0.0,0.0,0.0,0.0,0.0,0.0,0.0,0.0,0.0,0.0,0.0,0.0,0.0,0.0,0.0,0.0,0.0,0.0,0.0,0.0,0.0,0.0,0.0,0.0,0.0,0.0,0.0,0.0,0.0,0.0,0.0,0.0,0.0,0.0,0.0,0.0,0.0,0.0,0.0,0.0,0.0,0.0,0.0,0.0,0.0,0.0,0.0,0.0,0.0,0.0,0.0,0.0,0.0,0.0,0.0,0.0,0.0,0.0,0.0,0.0,0.0,0.0,0.0,0.0,0.0,0.0,0.0,0.0,0.0,0.0,0.0,0.0,0.0,0.0,0.0,0.0,0.0,0.0,0.0,0.0,0.0,0.0,0.0,0.0,0.0,0.0,0.0,0.0,-1.7454,-1.6908,-1.7619,-1.806,-1.8188,-1.7367,-1.7275,0.0,0.0,0.0,0.0,0.0,0.0,0.0,0.0,0.0,0.0,0.0,0.0,0.0,0.0,0.0,0.0,0.0,0.0,0.0,0.0,0.0,0.0,0.0,0.0,0.0,0.0,0.0,0.0,0.0,0.0,0.0,0.0,0.0,0.0,0.0,0.0,0.0,0.0,0.0,0.0,0.0,0.0,0.0,0.0,0.0,0.0,0.0,0.0,0.0,0.0,0.0,0.0,0.0,0.0,0.0,0.0,0.0,0.0,0.0,0.0,0.0,0.0,0.0,0.0,0.0,0.0,0.0,0.0,0.0,0.0,0.0,0.0,0.0,0.0,0.0,0.0,0.0,0.0,0.0,0.0,0.0,0.0,0.0,0.0,0.0,0.0,0.0,0.0,0.0,0.0,0.0,0.0,0.0,0.0,0.0,0.0,0.0,0.0,0.0,0.0,0.0,0.0,0.0,0.0,0.0,0.0,0.0,0.0,-1.579,-1.6872,-1.7055,-1.7766,-1.8996,-1.7656,-1.7275,0.0,0.0,0.0,0.0,0.0,0.0,0.0,0.0,0.0,0.0,0.0,0.0,0.0,0.0,0.0,0.0,0.0,0.0,0.0,0.0,0.0,0.0,0.0,0.0,0.0,0.0,0.0,0.0,0.0,0.0,0.0,0.0,0.0,0.0,0.0,0.0,0.0,0.0,0.0,0.0,0.0,0.0,0.0,0.0,0.0,0.0,0.0,0.0,-0.9703,0.0,0.0,0.0,0.0,0.0,0.0,0.0,0.0,0.0,0.0,0.0,0.0,0.0,0.0,0.0,0.0,0.0,0.0,0.0,0.0,0.0,0.0,0.0,0.0,0.0,0.0,0.0,0.0,0.0,0.0,0.0,0.0,0.0,0.0,0.0,0.0,0.0,0.0,0.0,0.0,0.0,0.0,0.0,0.0,0.0,0.0,0.0,0.0,0.0,0.0,0.0,0.0,0.0,0.0,0.0,0.0,0.0,0.0,0.0,-1.5919,-1.7073,-1.7176,-1.7589,-1.8381,-1.7625,-1.7602,0.0,0.0,0.0,0.0,0.0,0.0,0.0,0.0,0.0,0.0,0.0,0.0,0.0,0.0,0.0,0.0,0.0,0.0,0.0,0.0,0.0,0.0,0.0,0.0,0.0,0.0,0.0,0.0,0.0,0.0,0.0,0.0,0.0,0.0,0.0,0.0,0.0,0.0,0.0,0.0,0.0,0.0,0.0,0.0,0.0,0.0,0.0,0.0,0.0,0.0,0.0,0.0,0.0,0.0,0.0,0.0,0.0,0.0,0.0,0.0,0.0,0.0,0.0,0.0,0.0,0.0,0.0,0.0,0.0,0.0,0.0,0.0,0.0,0.0,0.0,0.0,0.0,0.0,0.0,0.0,0.0,0.0,0.0,0.0,0.0,0.0,0.0,0.0,0.0,0.0,0.0,0.0,0.0,0.0,0.0,0.0,0.0,0.0,0.0,0.0,0.0,0.0,0.0,0.0,0.0,0.0,0.0,-1.5791,-1.6534,-1.7347,-1.7347,-1.7364,-1.7471,-1.7471,-1.7879,-1.8681,0.0,0.0,0.0,0.0,0.0,0.0,0.0,0.0,0.0,0.0,0.0,0.0,0.0,0.0,0.0,0.0,0.0,0.0,0.0,0.0,0.0,0.0,0.0,0.0,0.0,0.0,0.0,0.0,0.0,0.0,0.0,0.0,0.0,0.0,0.0,0.0,0.0,0.0,-1.2687,-1.2139,0.0,0.0,0.0,0.0,0.0,0.0,0.0,0.0,-1.0207,0.0,0.0,0.0,0.0,0.0,0.0,0.0,0.0,0.0,0.0,0.0,0.0,0.0,0.0,0.0,0.0,0.0,0.0,0.0,0.0,0.0,0.0,0.0,0.0,0.0,0.0,0.0,0.0,0.0,0.0,0.0,0.0,0.0,0.0,0.0,0.0,0.0,0.0,0.0,0.0,0.0,0.0,0.0,0.0,0.0,0.0,0.0,0.0,0.0,0.0,0.0,0.0,0.0,0.0,0.0,0.0,-1.6056,-1.551,-1.5916,-1.7329,-1.6816,-1.6815,-1.7453,-1.7471,-1.7471,-1.7428,0.0,0.0,0.0,0.0,0.0,0.0,0.0,0.0,0.0,0.0,0.0,0.0,0.0,0.0,0.0,0.0,0.0,0.0,0.0,0.0,0.0,0.0,0.0,0.0,0.0,0.0,0.0,0.0,0.0,0.0,0.0,0.0,0.0,0.0,0.0,0.0,0.0,0.0,0.0,-1.2591,-1.2256,0.0,0.0,0.0,0.0,0.0,0.0,0.0,0.0,-1.1199,0.0,0.0,0.0,0.0,0.0,0.0,0.0,0.0,0.0,0.0,0.0,0.0,0.0,0.0,0.0,0.0,0.0,0.0,0.0,0.0,0.0,0.0,0.0,0.0,0.0,0.0,0.0,0.0,0.0,0.0,0.0,0.0,0.0,0.0,0.0,0.0,0.0,0.0,0.0,0.0,0.0,0.0,0.0,0.0,0.0,0.0,0.0,0.0,0.0,0.0,0.0,0.0,0.0,0.0,0.0,-1.6457,-1.6092,-1.6454,-1.7524,-1.687,-1.6701,-1.7049,-1.7084,-1.7026,0.0,0.0,0.0,0.0,0.0,0.0,0.0,0.0,0.0,0.0,0.0,0.0,0.0,0.0,0.0,0.0,0.0,0.0,0.0,0.0,0.0,0.0,0.0,0.0,0.0,0.0,0.0,0.0,0.0,0.0,0.0,0.0,0.0,0.0,0.0,0.0,0.0,0.0,0.0,0.0,-1.3514,-1.3075,-1.2807,0.0,0.0,0.0,0.0,0.0,0.0,-1.2574,-1.2715,0.0,0.0,0.0,0.0,0.0,0.0,0.0,0.0,0.0,0.0,0.0,0.0,0.0,0.0,0.0,0.0,0.0,0.0,0.0,0.0,0.0,0.0,0.0,0.0,0.0,0.0,0.0,0.0,0.0,0.0,0.0,0.0,0.0,0.0,0.0,0.0,0.0,0.0,0.0,0.0,0.0,0.0,0.0,0.0,0.0,0.0,0.0,0.0,0.0,0.0,0.0,0.0,0.0,0.0,0.0,-1.6682,-1.6699,-1.705,-1.7726,-1.7067,-1.6699,-1.6699,-1.6699,-1.6699,0.0,0.0,0.0,0.0,0.0,0.0,0.0,0.0,0.0,0.0,0.0,0.0,0.0,0.0,0.0,0.0,0.0,0.0,0.0,0.0,0.0,0.0,0.0,0.0,0.0,0.0,0.0,0.0,0.0,0.0,0.0,0.0,0.0,0.0,0.0,0.0,0.0,0.0,0.0,0.0,0.0,-1.3938,-1.3736,-1.3636,0.0,0.0,0.0,0.0,-1.3008,-1.383,0.0,0.0,0.0,0.0,0.0,0.0,0.0,0.0,0.0,0.0,0.0,0.0,0.0,0.0,0.0,0.0,0.0,0.0,0.0,0.0,0.0,0.0,0.0,0.0,0.0,0.0,0.0,0.0,0.0,0.0,0.0,0.0,0.0,0.0,0.0,0.0,0.0,0.0,0.0,0.0,0.0,0.0,0.0,0.0,0.0,0.0,0.0,0.0,0.0,0.0,0.0,0.0,0.0,0.0,0.0,0.0,-1.6699,-1.6699,-1.7033,-1.7726,-1.7084,-1.6699,-1.6699,-1.6699,-1.6699,0.0,0.0,0.0,0.0,0.0,0.0,0.0,0.0,0.0,0.0,0.0,0.0,0.0,0.0,0.0,0.0,0.0,0.0,0.0,0.0,0.0,0.0,0.0,0.0,0.0,0.0,0.0,0.0,0.0,0.0,0.0,0.0,0.0,0.0,0.0,0.0,0.0,0.0,0.0,0.0,0.0,-1.4755,-1.4753,-1.4417,-1.4136,0.0,0.0,-1.6447,-1.5647,-1.6286,0.0,0.0,0.0,0.0,0.0,0.0,0.0,0.0,0.0,0.0,0.0,0.0,0.0,0.0,0.0,0.0,0.0,0.0,0.0,0.0,0.0,0.0,0.0,0.0,0.0,0.0,0.0,0.0,0.0,0.0,0.0,0.0,0.0,0.0,0.0,0.0,0.0,0.0,0.0,0.0,0.0,0.0,0.0,0.0,0.0,0.0,0.0,0.0,0.0,0.0,0.0,0.0,0.0,0.0,0.0,-1.732,-1.732,-1.7337,-1.749,-1.7794,-1.749,-1.732,-1.732,-1.732,-1.732,0.0,0.0,0.0,0.0,0.0,0.0,0.0,0.0,0.0,0.0,0.0,0.0,0.0,0.0,0.0,0.0,0.0,0.0,0.0,0.0,0.0,0.0,0.0,0.0,0.0,0.0,0.0,0.0,0.0,0.0,0.0,0.0,0.0,0.0,0.0,0.0,0.0,0.0,0.0,0.0,0.0,0.0,-1.6204,-1.5514,0.0,0.0,0.0,-1.7302,-1.6521,0.0,0.0,0.0,0.0,0.0,0.0,0.0,0.0,0.0,0.0,0.0,0.0,0.0,0.0,0.0,0.0,0.0,0.0,0.0,0.0,0.0,0.0,0.0,0.0,0.0,0.0,0.0,0.0,0.0,0.0,0.0,0.0,0.0,0.0,0.0,0.0,0.0,0.0,0.0,0.0,0.0,0.0,0.0,0.0,0.0,0.0,0.0,0.0,0.0,0.0,0.0,0.0,0.0,0.0,0.0,0.0,0.0,-1.7789,-1.7789,-1.7789,-1.7789,-1.7789,-1.7789,-1.7789,-1.7789,0.0,0.0,0.0,0.0,0.0,0.0,0.0,0.0,0.0,0.0,0.0,0.0,0.0,0.0,0.0,0.0,0.0,0.0,0.0,0.0,0.0,0.0,0.0,0.0,0.0,0.0,0.0,-1.7049,0.0,0.0,0.0,0.0,0.0,0.0,0.0,0.0,0.0,0.0,0.0,0.0,0.0,0.0,-1.5329,-1.7533,-1.6709,-1.6224,0.0,0.0,-1.8281,-1.7378,-1.8514,-1.9043,0.0,0.0,0.0,0.0,0.0,0.0,0.0,0.0,0.0,0.0,0.0,0.0,0.0,0.0,0.0,0.0,0.0,0.0,0.0,0.0,0.0,0.0,0.0,0.0,0.0,0.0,0.0,0.0,0.0,0.0,0.0,0.0,0.0,0.0,0.0,0.0,0.0,0.0,0.0,0.0,0.0,0.0,0.0,0.0,0.0,0.0,0.0,0.0,0.0,0.0,0.0,0.0,0.0,0.0,-1.7502,-1.7789,-1.7789,-1.7789,-1.7789,-1.7789,-1.7789,-1.7789,-1.7789,-1.7789,0.0,0.0,0.0,0.0,0.0,0.0,0.0,0.0,0.0,0.0,0.0,0.0,0.0,0.0,0.0,0.0,0.0,0.0,0.0,0.0,0.0,0.0,0.0,0.0,0.0,0.0,0.0,0.0,0.0,0.0,0.0,0.0,0.0,0.0,0.0,0.0,0.0,0.0,0.0,0.0,0.0,-1.8198,-1.84,-1.8034,-1.7579,0.0,-1.8893,-1.9861,-1.8819,-1.9476,-2.0009,-1.9626,0.0,0.0,0.0,0.0,0.0,0.0,0.0,0.0,0.0,0.0,0.0,0.0,0.0,0.0,0.0,0.0,0.0,0.0,0.0,0.0,0.0,0.0,0.0,0.0,0.0,0.0,0.0,0.0,0.0,0.0,0.0,0.0,0.0,0.0,0.0,0.0,0.0,0.0,0.0,0.0,0.0,0.0,0.0,0.0,0.0,0.0,0.0,0.0,0.0,0.0,0.0,0.0,0.0,-1.8118,-1.7789,-1.7789,-1.7789,-1.7789,-1.7789,-1.7789,-1.7789,-1.7789,-1.7789,0.0,0.0,0.0,0.0,0.0,0.0,0.0,0.0,0.0,0.0,0.0,0.0,0.0,0.0,0.0,0.0,0.0,0.0,0.0,0.0,0.0,0.0,0.0,0.0,0.0,0.0,0.0,0.0,-1.8493,-1.8679,-1.9969,0.0,0.0,0.0,0.0,0.0,0.0,0.0,0.0,0.0,0.0,-1.7684,-1.9309,-1.861,0.0,0.0,-1.9877,-2.0261,-1.9852,-2.0009,-2.0109,-1.9892,-1.9988,0.0,0.0,0.0,0.0,0.0,0.0,0.0,0.0,0.0,0.0,0.0,0.0,0.0,0.0,0.0,0.0,0.0,0.0,0.0,0.0,0.0,0.0,0.0,0.0,0.0,0.0,0.0,0.0,0.0,0.0,0.0,0.0,0.0,0.0,0.0,0.0,0.0,0.0,0.0,0.0,0.0,0.0,0.0,0.0,0.0,0.0,0.0,0.0,0.0,0.0,0.0,0.0,-1.8663,-1.8464,-1.8008,-1.789,-1.8109,-1.7907,-1.7789,-1.7789,-1.7789,-1.7789,0.0,0.0,0.0,0.0,0.0,0.0,0.0,0.0,0.0,0.0,0.0,0.0,0.0,0.0,0.0,0.0,0.0,0.0,0.0,0.0,0.0,0.0,0.0,0.0,0.0,0.0,0.0,0.0,-1.8845,-1.8814,-1.9841,0.0,0.0,0.0,0.0,0.0,0.0,0.0,0.0,0.0,0.0,-1.8101,-1.998,-1.9335,-1.9088,-2.0301,-2.0419,-2.0363,-2.0379,-2.0207,-1.9994,-1.9808,0.0,0.0,0.0,0.0,0.0,0.0,0.0,0.0,0.0,0.0,0.0,0.0,0.0,0.0,0.0,0.0,0.0,0.0,0.0,0.0,0.0,0.0,0.0,0.0,0.0,0.0,0.0,-1.7697,0.0,0.0,-1.7727,0.0,0.0,0.0,0.0,0.0,0.0,0.0,0.0,0.0,0.0,0.0,0.0,0.0,0.0,0.0,0.0,0.0,0.0,0.0,0.0,0.0,0.0,-1.8926,-1.99,-1.8549,-1.8166,-1.8809,-1.8183,-1.7845,-1.7789,-1.7789,-1.7789,-1.7766,0.0,0.0,0.0,0.0,0.0,0.0,0.0,0.0,0.0,0.0,0.0,0.0,0.0,0.0,0.0,0.0,0.0,0.0,0.0,0.0,0.0,0.0,0.0,0.0,0.0,0.0,-2.0029,-1.9603,-1.939,0.0,0.0,0.0,0.0,0.0,0.0,0.0,0.0,0.0,-2.0279,-2.0236,-2.0246,-2.0363,-2.0352,-2.0294,-2.0383,-2.0357,-2.0294,-2.0282,-2.0002,-1.9717,0.0,0.0,0.0,0.0,0.0,0.0,0.0,0.0,0.0,0.0,0.0,0.0,0.0,0.0,0.0,0.0,0.0,0.0,0.0,0.0,0.0,0.0,0.0,0.0,0.0,0.0,0.0,-1.9031,-1.9031,0.0,0.0,0.0,0.0,0.0,0.0,0.0,0.0,0.0,0.0,0.0,-1.9705,-1.9705,0.0,0.0,0.0,0.0,0.0,0.0,0.0,0.0,0.0,0.0,0.0,0.0,-1.9712,-1.9588,-1.937,-1.9164,-1.891,-1.9123,-1.8785,-1.7822,-1.8285,-1.8098,-1.7158,0.0,0.0,0.0,0.0,0.0,0.0,0.0,0.0,0.0,0.0,0.0,0.0,0.0,0.0,0.0,0.0,0.0,0.0,0.0,0.0,0.0,0.0,0.0,0.0,0.0,-2.0172,0.0,0.0,0.0,0.0,0.0,0.0,0.0,0.0,0.0,0.0,-2.0313,-2.0354,-2.0354,-2.0324,-2.0313,-2.0332,-2.0346,-2.0327,0.0,0.0,0.0,0.0,0.0,0.0,0.0,0.0,0.0,0.0,0.0,0.0,0.0,0.0,-1.511,-1.4616,-1.6843,-1.5595,-0.5356,0.0,0.0,0.0,0.0,0.0,0.0,0.0,0.0,0.0,0.0,0.0,0.0,0.0,0.0,-1.9705,-1.9705,-1.9705,0.0,0.0,0.0,0.0,0.0,0.0,0.0,0.0,-1.9705,-1.9705,-1.9726,-1.9839,-1.9854,0.0,-1.9854,-1.9909,0.0,0.0,0.0,0.0,0.0,0.0,0.0,0.0,-2.0454,-2.0395,-2.0109,-1.9908,-1.9705,-1.9883,-1.9529,-1.8599,-1.8883,-1.8532,-1.7318,-1.7701,-1.7849,0.0,0.0,0.0,0.0,0.0,0.0,0.0,0.0,0.0,0.0,0.0,0.0,0.0,0.0,0.0,0.0,0.0,0.0,0.0,0.0,0.0,0.0,0.0,-2.0975,0.0,0.0,0.0,0.0,0.0,0.0,0.0,0.0,0.0,-2.0619,-2.0424,-2.0366,-2.0366,-2.032,-2.0289,-2.0302,0.0,0.0,0.0,0.0,0.0,0.0,0.0,-1.9596,-1.9596,-1.9499,-1.9462,-1.9563,-1.9526,-1.9507,-1.9673,0.0,0.0,-2.1383,-2.2138,-2.036,-1.334,-1.2577,-1.2002,-0.8618,-0.7834,-0.7752,0.0,0.0,0.0,0.0,0.0,0.0,0.0,0.0,-1.9735,-1.975,0.0,-1.972,0.0,0.0,0.0,0.0,-1.9705,-1.9705,0.0,0.0,-1.9705,-1.9705,-1.9726,-2.0089,-2.0054,-1.9711,-2.0089,-2.028,-2.028,-1.9894,0.0,0.0,0.0,0.0,0.0,0.0,-2.1093,-2.2136,-2.0829,-2.0467,-2.1136,-2.0467,-2.0069,-1.9993,-1.9561,-1.899,-1.8269,-1.8207,-1.8358,-1.8691,-1.8717,0.0,0.0,0.0,0.0,0.0,0.0,0.0,0.0,0.0,0.0,0.0,0.0,0.0,0.0,0.0,0.0,0.0,0.0,0.0,0.0,-2.2544,0.0,0.0,0.0,0.0,0.0,0.0,0.0,0.0,0.0,-2.1845,-2.1354,-2.0728,-2.0315,-2.0342,0.0,0.0,0.0,0.0,-2.0282,-2.0289,-2.0117,-1.9829,-1.9371,-1.9469,-1.9601,-1.9601,0.0,0.0,-1.9569,-1.9682,-1.9626,-1.9365,-1.925,-1.9606,-2.0908,-2.1261,-2.1321,-2.1274,-2.0933,-2.1073,-2.0203,-1.8117,-1.7785,-2.1865,0.0,0.0,0.0,0.0,-2.0213,-2.0423,-2.0423,-2.0423,-2.0423,-2.0378,-1.9884,0.0,0.0,0.0,0.0,0.0,0.0,-1.9705,-1.9705,-1.9705,-1.9705,-1.9726,-1.9803,-1.9818,-1.9726,-1.9818,-2.0035,-2.028,-2.0193,-2.0296,-2.0648,0.0,0.0,0.0,0.0,-2.1474,-2.179,-2.167,-2.1498,-2.1221,-2.1481,-2.1227,-2.0384,-1.9467,-1.8704,-1.8207,-1.8655,-1.8829,-1.8736,-1.9151,0.0,0.0,0.0,0.0,0.0,0.0,0.0,0.0,0.0,0.0,0.0,0.0,0.0,0.0,0.0,0.0,0.0,0.0,0.0,-2.1676,-2.1601,-2.1378,0.0,0.0,0.0,0.0,0.0,0.0,0.0,0.0,0.0,-2.263,-2.1563,-2.0845,0.0,0.0,-1.9972,-2.0069,-2.0021,-1.9982,-2.007,-1.9864,0.0,-1.9351,-1.9354,-1.938,-1.938,-1.938,-1.9335,-1.92,-1.903,-1.8993,-1.917,-1.9054,-1.9172,-1.9875,-2.0058,-2.0079,-2.0065,-2.0328,-2.0478,-2.0094,-1.9223,-1.8498,-2.3791,-2.162,-2.135,-2.1231,-2.1291,-2.168,-2.1859,-2.1844,-2.159,-2.1485,-2.1425,-2.0513,-2.0228,-2.0468,-2.0213,0.0,0.0,0.0,-2.0094,-2.0094,-2.0094,-1.9959,-1.9726,-1.9874,-1.9839,-1.9726,-1.9874,-2.007,-2.0299,-2.0483,-2.0731,-2.1007,0.0,-2.1086,-2.1244,-2.1306,-2.143,-2.1582,-2.1705,-2.1566,-2.1135,-2.1549,-2.1324,-2.0458,-1.975,-1.9201,-1.8829,-1.9192,-1.9318,-1.9126,-1.9465,-1.9705,0.0,0.0,0.0,0.0,0.0,0.0,0.0,0.0,0.0,0.0,0.0,-2.0208,-2.0711,0.0,0.0,0.0,-2.2327,-2.2124,-2.1667,-2.185,0.0,0.0,0.0,0.0,0.0,0.0,0.0,-2.4152,-2.3842,-2.3599,-2.3581,-2.2548,-2.1761,-2.1625,-2.1097,-2.067,-2.0432,0.0,-2.0201,-1.9953,-1.974,-1.9546,-1.9353,-1.9286,-1.9286,-1.9286,-1.9286,-1.9259,-1.915,-1.8982,-1.8947,-1.9046,-1.891,-1.8823,-1.9143,-1.9228,-1.9235,-1.9195,-1.9444,-1.9688,-1.9783,-1.9299,-1.8924,-2.6123,-2.4956,-2.4283,-2.3834,-2.361,-2.3655,-2.367,-2.3625,-2.3086,-2.2843,-2.2694,-2.1425,-2.1171,-2.165,-2.1066,0.0,-2.0797,-2.0797,-2.0714,-2.0707,-2.0707,-2.0348,-1.9726,-2.0054,-2.007,-1.9726,-2.0054,-2.028,-2.0314,-2.0731,-2.0959,-2.1007,-2.1007,-2.1181,-2.1521,-2.1181,-2.1181,-2.1552,-2.1181,-2.1007,-2.0991,-2.0975,-2.0715,-2.0333,-2.028,-2.0074,-1.9711,-1.969,-1.9705,-1.9705,-1.9705,-1.9705,-1.9705,0.0,0.0,0.0,0.0,0.0,0.0,0.0,0.0,0.0,0.0,0.0,0.0,0.0,0.0,-2.226,-2.2327,0.0,-2.2327,-2.2798,0.0,0.0,0.0,-2.2848,-2.3189,-2.323,-2.3437,-2.4036,0.0,0.0,-2.4151,-2.3547,-2.29,-2.2431,-2.2248,-2.19,-2.1079,-2.0935,-2.0708,-1.9987,-1.9699,-1.955,-1.9467,-1.9378,-1.9286,-1.9286,-1.9289,-1.9259,-1.9243,-1.923,-1.9148,-1.9035,-1.8789,-1.8659,-1.8623,-1.8771,-1.8822,-1.8913,-1.895,-1.9058,-1.9326,-1.9414,-1.9541,-2.8697,-2.8338,-2.7694,-2.5929,-2.3655,-2.4163,-2.4358,-2.4373,-2.4223,-2.3864,-2.3325,-2.2547,-2.2024,-2.168,-2.153,-2.147,-2.147,-2.1455,-2.1186,-2.0722,-2.0707,-2.0348,-1.9726,-1.9782,-1.9782,-1.9726,-1.9782,-2.0,-2.028,-2.0416,-2.0649,-2.0975,-2.1007,-2.1055,-2.1118,-2.1023,-2.1071,-2.115,-2.1055,-2.1007,-2.1007,-2.0649,-2.0416,-2.0314,-2.0,-1.9818,-1.9726,-1.9705,-1.9705,-1.9705,-1.9705,-1.9705,-1.9705,-1.9705,0.0,0.0,0.0,0.0,0.0,0.0,0.0,0.0,0.0,-2.0846,-2.1007,0.0,-2.2124,0.0,-2.2327,-2.2327,-2.2327,-2.2415,0.0,0.0,-2.2815,-2.2947,-2.3522,-2.3369,-2.3277,-2.3414,-2.3671,-2.3834,-2.3816,-2.389,-2.3879,-2.3712,-2.2659,-2.1634,-2.0966,-2.0715,-2.0572,-2.0323,-1.9825,-1.9589,-2.0039,-1.9675,-1.9289,-1.9286,-1.9182,-1.9086,-1.9086,-1.8895,-1.8825,-1.8949,-1.8949,-1.8914,-1.8896,-1.8771,-1.8569,-1.8489,-1.8788,-1.9065,-1.8871,-1.8965,-1.9173,-3.0582,-2.9953,-2.9594,-2.8053,-2.5824,-2.5914,-2.5929,-2.5914,-2.563,-2.5285,-2.4896,-2.4253,-2.3131,-2.1769,-2.2278,-2.2398,-2.2143,-2.2128,-2.1934,-2.1605,-2.159,-2.1066,-2.0154,-2.0154,-1.9974,-1.9705,-1.9705,-1.9803,-2.0035,-2.0212,-2.0348,-2.0447,-2.0599,-2.0599,-2.0447,-2.0599,-2.0698,-2.0682,-2.0499,-2.0413,-2.0413,-2.0174,-2.0035,-2.0035,-1.9818,-1.9705,-1.9705,-1.9705,-1.9705,-1.9705,-1.9705,-1.9705,-1.9705,-1.9705,-1.8612,0.0,0.0,0.0,0.0,0.0,0.0,0.0,0.0,0.0,0.0,0.0,-2.2061,-2.2282,-2.2327,-2.2327,-2.2327,-2.2327,-2.2443,-2.2773,-2.2616,-2.2721,-2.3206,-2.3082,-2.3106,-2.3392,-2.358,-2.3747,-2.3896,-2.4074,-2.4151,-2.3996,-2.3192,-2.2429,-2.1922,-2.1653,-2.142,-2.0781,-2.0521,-2.0391,-2.0521,-2.0018,-1.9583,-1.935,-1.9214,-1.9134,-1.9152,-1.8949,-1.8771,-1.8807,-1.8734,-1.8697,-1.8789,-1.8622,-1.8373,-1.8432,-1.857,-1.8717,-1.8681,-1.8734,-1.8865,-3.1769,-3.0627,-3.0537,-2.9864,-2.8801,-2.8038,-2.77,-2.758,-2.701,-2.6677,-2.6557,-2.5899,-2.4343,-2.2293,-2.3266,-2.3445,-2.2936,-2.2832,-2.2798,-2.2682,-2.2682,-2.2024,-2.0857,-2.0842,-2.0483,-1.9824,-1.9824,-1.9765,-1.9726,-2.007,-2.0054,-1.9711,-2.0054,-2.007,-1.9711,-2.0035,-2.0212,-2.0212,-1.9874,-1.9705,-1.9705,-1.9705,-1.9705,-1.9705,-1.9705,-1.9705,-1.9705,-1.9705,-1.9705,-1.9705,-1.9705,-1.9705,-1.9705,-1.9705,-1.9705,0.0,-1.9705,0.0,0.0,0.0,0.0,0.0,0.0,0.0,0.0,-2.1332,-2.179,-2.2282,-2.2327,-2.2327,-2.2327,-2.2327,-2.231,-2.2349,-2.2321,-2.2398,-2.2669,-2.2669,-2.2895,-2.3455,-2.3549,-2.3678,-2.3915,-2.4036,-2.3955,-2.3674,-2.362,-2.3436,-2.3141,-2.2905,-2.2374,-2.1295,-2.1622,-2.1547,-2.0706,-2.0263,-1.9885,-1.9397,-1.913,-1.9178,-1.918,-1.9034,-1.8878,-1.8659,-1.8489,-1.841,-1.8528,-1.8351,-1.8287,-1.841,-1.8351,-1.8336,-1.8518,-1.8516,-1.8625,-3.1564,-3.1285,-3.0731,-3.0372,-3.0043,-2.8891,-2.8083,-2.761,-2.744,-2.7096,-2.6542,-2.5899,-2.5345,-2.4852,-2.4567,-2.4373,-2.4179,-2.367,-2.3146,-2.2682,-2.2682,-2.2263,-2.1545,-2.1515,-2.1171,-2.0543,-2.0528,-2.0228,-1.9705,-1.9782,-1.9782,-1.9726,-1.9782,-1.9782,-1.9726,0.0,0.0,0.0,-1.9762,-1.9705,-1.9705,-1.9705,-1.9705,-1.9705,-1.9705,0.0,-1.9705,-1.9705,-1.9705,-1.9705,-1.9705,0.0,0.0,0.0,0.0,0.0,0.0,0.0,0.0,0.0,0.0,0.0,-1.9782,-2.0,-2.0419,-2.1131,-2.1792,-2.2265,-2.2327,-2.2327,-2.2327,-2.2327,-2.2388,-2.2616,-2.2426,-2.2398,-2.266,-2.251,-2.2453,-2.2535,-2.2772,-2.2919,-2.3045,-2.3212,-2.3369,-2.3323,-2.3504,-2.3642,-2.3557,-2.3014,-2.2623,-2.2575,-2.263,-2.2153,-2.0741,-2.0299,-1.9849,-1.9235,-1.8661,-1.8548,-1.8698,-1.8716,-1.8678,-1.8603,-1.8734,-1.8678,-1.8371,-1.8246,-1.8146,-1.7992,-1.8065,-1.8166,-1.8023,-1.7997,-1.8057,-3.1853,-3.148,-3.0791,-3.0328,0.0,-2.9011,-2.8203,-2.756,-2.756,-2.72,-2.6587,-2.6587,-2.6213,-2.5615,-2.56,-2.5241,-2.4582,-2.4268,-2.3924,-2.3655,-2.364,-2.3281,-2.2637,-2.2637,-2.2128,-2.1216,-2.1201,-2.1006,-2.0677,-2.0677,-2.0513,-2.0198,-2.0198,-2.0019,-1.9705,-1.9705,-1.9705,-1.9705,-1.9705,-1.9705,-1.9705,-1.9705,-1.9705,-1.9705,-1.9705,0.0,0.0,0.0,0.0,0.0,0.0,0.0,0.0,-1.9705,0.0,-1.9705,-1.9705,-1.9705,-1.9705,-1.9705,-1.9705,-1.9705,-1.9705,-1.997,-2.06,-2.1234,-2.1799,-2.2265,-2.2327,-2.2327,-2.2327,-2.2327,-2.2349,-2.249,-2.2388,-2.236,-2.2463,-2.2388,-2.236,-2.2463,-2.2605,-2.2755,-2.2923,-2.3093,-2.3117,-2.2996,-2.3129,-2.3248,-2.3241,-2.3307,-2.3375,-2.3318,-2.2656,-2.1926,-2.093,-2.0128,-1.9566,-1.8929,-1.8566,-1.8469,-1.8566,-1.8489,-1.8393,-1.841,-1.8428,-1.833,-1.8266,-1.8082,-1.7992,-1.7941,-1.7706,-1.7599,-1.7715,-1.7922,-1.8018,-3.2064,-3.148,-3.0926,-3.0387,-2.9879,-2.9205,-2.8547,-2.797,-2.785,0.0,0.0,-2.7565,-2.7096,-2.6019,-2.6408,-2.5989,-2.4986,-2.4806,-2.4761,-2.4761,-2.4761,-2.4492,-2.3969,-2.3834,-2.3161,-2.2054,-2.1919,-2.1799,-2.1695,-2.1695,-2.1425,-2.0932,-2.0887,-2.0617,-2.0115,-2.0034,-2.0034,-2.0055,-1.9809,-1.9705,-1.9705,-1.9705,-1.9705,-1.9705,-1.9705,-1.9705,-1.9705,-1.9705,-1.9705,-1.9705,-1.9809,-1.9854,-1.9869,-1.9869,-1.9869,-1.9854,-1.975,-1.9705,-1.9705,-1.9705,-1.9705,-1.9705,-1.9771,-2.0096,-2.0845,-2.1245,-2.1685,-2.2147,-2.2254,-2.2327,-2.2327,-2.2327,-2.2327,-2.2327,-2.2327,-2.2327,-2.2327,-2.2327,-2.2388,-2.2581,-2.2617,-2.2723,-2.2968,-2.3007,-2.294,-2.2712,-2.2747,-2.2798,-2.2873,-2.3424,-2.3764,-2.3502,-2.2704,-2.1797,-2.1119,-2.025,-1.9352,-1.8894,-1.8592,-1.8485,-1.8588,-1.8519,-1.8447,-1.8642,-1.8295,-1.8232,-1.8306,-1.8051,-1.79,-1.81,-1.745,-1.6985,-1.7558,-1.7805,-1.7915,-3.1597,-3.1467,-3.1362,-3.1287,-3.1153,-3.0537,-2.9879,-2.9265,-2.8697,-2.8412,-2.8323,-2.8412,-2.8038,-2.726,-2.6797,-2.6482,-2.6288,-2.5734,-2.5465,-2.5465,-2.5465,-2.542,-2.53,-2.4747,-2.4088,-2.334,-2.2787,-2.2248,-2.1754,-2.171,-2.165,-2.1575,-2.156,-2.15,-2.141,-2.141,-2.141,-2.1395,-2.0273,-1.9705,-1.9705,-1.9705,-1.9705,-1.9705,-1.9705,-1.9705,-1.9705,-1.972,-1.9705,-1.972,-2.0243,-2.0572,-2.0572,-2.0572,-2.0572,-2.0543,-2.0019,-1.9705,-1.9705,-1.9705,-1.9705,-1.9741,-2.0029,-2.0279,-2.0398,-2.083,-2.1264,-2.1672,-2.2032,-2.2327,-2.2327,-2.2282,-2.2327,-2.2327,-2.2327,-2.2327,-2.2327,-2.2327,-2.2338,-2.2377,-2.2338,-2.2389,-2.246,-2.247,-2.247,-2.2415,-2.2554,-2.2789,-2.2996,-2.3236,-2.3305,-2.3259,-2.31,-2.2664,-2.1796,-2.0957,-2.0015,-1.9326,-1.8525,-1.8312,-1.8865,-1.9046,-1.923,-1.9634,-1.9235,-1.8961,-1.8813,-1.824,-1.7896,-1.7839,-1.7394,-1.7193,-1.7335,-1.7224,-1.7109,-3.2602,-3.2497,-3.1824,-3.1676,-3.1988,-3.0941,-3.0342,-3.0058,-2.9759,-2.9445,-2.9071,-2.8368,-2.8263,-2.8592,-2.7979,-2.7679,-2.7664,-2.738,-2.7021,-2.6677,-2.6677,-2.6482,-2.6138,-2.5839,-2.5151,-2.4178,-2.3879,-2.3385,-2.2787,-2.2727,-2.2562,-2.2233,-2.1889,-2.1695,-2.1695,-2.1695,-2.1695,-2.168,-2.1081,-2.0782,-2.0767,-2.0782,-2.0767,-2.0782,-2.0782,-2.0767,-2.0782,-2.0782,-2.0782,-2.0782,-2.1066,-2.1261,-2.1246,-2.1246,-2.1096,-2.0737,-2.0423,-2.0094,-1.9705,-1.9705,-1.9705,-1.9705,-1.9852,-1.9959,-1.998,-2.0614,-2.1166,-2.1568,-2.1823,-2.1928,-2.1928,-2.2152,-2.2327,-2.2327,-2.2327,-2.2327,-2.2327,-2.2327,-2.2327,-2.2327,-2.2327,-2.2327,-2.2327,-2.2327,-2.2327,-2.231,-2.2426,-2.2554,-2.2712,-2.2738,-2.2773,-2.289,-2.2795,-2.2407,-2.1675,-2.0811,-2.013,-1.9713,-1.9304,-1.9164,-1.9469,-1.9624,-1.9777,-1.99,-1.9522,-1.9103,-1.8917,-1.8302,-1.7828,-1.7516,-1.7067,-1.6821,-1.6905,-1.6763,-1.667,-3.3499,-3.3395,-3.2392,-3.2273,-3.2647,-3.1629,-3.1106,-3.0956,-3.0806,-3.0462,-2.9879,-2.8742,-2.8742,-2.9475,-2.9041,-2.8816,-2.8816,-2.8831,-2.8532,-2.8068,-2.8023,-2.7679,-2.7081,-2.6886,-2.6198,-2.5151,-2.4881,-2.4522,-2.4088,-2.3894,-2.352,-2.2892,-2.2368,-2.2128,-2.2143,-2.2128,-2.2128,-2.2113,-2.2128,-2.1979,-2.171,-2.1695,-2.1695,-2.1695,-2.168,-2.1695,-2.1695,-2.1695,-2.1695,-2.171,-2.1844,-2.1904,-2.1919,-2.1919,-2.1695,-2.1216,-2.1021,-2.0632,-2.0004,-1.9981,-1.9981,-1.9899,-1.9765,-1.9807,-2.0086,-2.0424,-2.0922,-2.137,-2.1552,-2.1612,-2.1658,-2.1882,-2.2135,-2.2135,-2.2264,-2.2293,-2.2299,-2.2327,-2.2327,-2.2327,-2.2327,-2.2327,-2.2327,-2.2327,-2.2327,-2.2327,-2.2327,-2.2327,-2.2327,-2.2327,-2.2415,-2.2493,-2.2424,-2.2146,-2.1492,-2.0848,-2.0382,-2.0255,-2.0069,-2.0018,-2.0137,-2.0281,-2.0433,-2.0475,-1.9993,-1.9527,-1.9198,-1.8502,-1.7873,-1.7434,-1.6791,-1.6354,-1.6496,-1.6367,-1.6313,-3.3529,-3.3499,-3.3365,-3.3335,-3.3365,-3.323,-3.2826,-3.2258,-3.1704,-3.1362,-3.124,-3.0552,-2.9983,-2.9609,-2.9535,-2.9505,-2.952,-2.9505,-2.946,-2.9385,-2.94,-2.9041,-2.8353,-2.7769,-2.7111,-2.6408,-2.5839,-2.551,-2.5345,-2.4807,-2.4193,-2.358,-2.3445,-2.3415,-2.3415,-2.34,-2.3415,-2.3415,-2.343,-2.2862,-2.1769,-2.1695,-2.1695,-2.1695,-2.171,-2.1695,-2.1769,-2.1695,-2.171,-2.1739,-2.2319,-2.2634,-2.2619,-2.2619,-2.2547,-2.2499,-2.1919,-2.1321,-2.0707,-2.076,-2.0745,-2.0587,-2.0094,-2.0171,-2.0973,-2.036,-2.0185,-2.0926,-2.1385,-2.1521,-2.1612,-2.1642,-2.1688,-2.1705,-2.2073,-2.2308,-2.2247,-2.2327,-2.2327,-2.2327,-2.2282,-2.2327,-2.2327,-2.2327,-2.2327,-2.2327,-2.2327,-2.2327,-2.2327,-2.2327,-2.2265,-2.2304,-2.2304,-2.2243,-2.2029,-2.1566,-2.1143,-2.1025,-2.05,-2.05,-2.0873,-2.1109,-2.1245,-2.1356,-2.1225,-2.0499,-1.9858,-1.906,-1.8104,-1.7461,-1.6793,-1.6192,-1.5968,-1.5913,-1.6011,-3.4681,-3.4651,-3.4247,-3.3844,-3.3559,-3.3888,-3.3469,-3.2542,-3.2647,-3.2482,-3.2153,-3.2213,-3.1704,-3.0731,-3.0313,-3.0342,-3.0731,-3.0746,-3.0507,-3.0148,-3.0133,-2.9789,-2.9146,-2.8487,-2.8023,-2.7739,-2.7096,-2.6572,-2.6138,-2.554,-2.5061,-2.4762,-2.4418,-2.4208,-2.4163,-2.3804,-2.3595,-2.3595,-2.3595,-2.334,-2.2892,-2.2832,-2.2817,-2.2817,-2.2832,-2.2817,-2.2817,-2.2817,-2.2817,-2.2832,-2.3071,-2.3221,-2.3221,-2.3221,-2.3056,-2.2724,-2.2069,-2.1575,-2.1321,-2.1108,-2.1093,-2.1291,-2.1248,-2.1333,-2.1485,-2.1121,-2.0992,-2.1089,-2.0952,-2.083,-2.091,-2.129,-2.1521,-2.1417,-2.1878,-2.2112,-2.1573,-2.2006,-2.222,-2.1978,-2.2135,-2.2299,-2.2327,-2.2327,-2.2327,-2.2327,-2.2299,-2.2282,-2.2282,-2.2327,-2.2163,-2.1911,-2.1691,-2.1807,-2.2096,-2.209,-2.1854,-2.1786,-2.16,-2.1583,-2.164,-2.1854,-2.1916,-2.1895,-2.1299,-2.08,-2.0373,-1.9044,-1.7898,-1.7374,-1.6669,-1.5955,-1.5827,-1.5814,-1.5885,-3.5489,-3.5415,-3.4951,-3.4487,-3.4098,-3.4547,-3.4113,-3.317,-3.3559,-3.3395,-3.2871,-3.329,-3.2976,-3.2078,-3.1539,-3.145,-3.1554,-3.1719,-3.1435,-3.0836,-3.0791,-3.0447,-2.9819,-2.9355,-2.9026,-2.8816,-2.8368,-2.7784,-2.7126,-2.6467,-2.6153,-2.6033,-2.5315,-2.494,-2.5076,-2.4492,-2.4044,-2.3894,-2.3879,-2.3789,-2.3625,-2.3595,-2.3595,-2.3595,-2.3595,-2.3595,-2.3595,-2.3595,-2.3595,-2.3595,-2.3595,-2.3595,-2.3595,-2.3595,-2.3385,-2.3008,-2.2488,-2.2143,-2.1979,-2.1794,-2.1764,-2.1979,-2.24,-2.2455,-2.2059,-2.1799,-2.1627,-2.143,-2.0967,-2.0665,-2.0398,-2.0878,-2.107,-2.0862,-2.1343,-2.1374,-2.1261,-2.1751,-2.1933,-2.1691,-2.1899,-2.2106,-2.2106,-2.2106,-2.2106,-2.2282,-2.218,-2.2106,-2.2157,-2.2182,-2.2102,-2.1524,-2.0998,-2.101,-2.1757,-2.1969,-2.2061,-2.2106,-2.196,-2.1927,-2.2077,-2.2032,-2.1899,-2.1411,-2.0891,-2.0469,-2.0147,-1.8981,-1.7681,-1.7239,-1.6545,-1.5872,-1.5814,-1.5814,-1.5709,-3.5489,-3.5489,-3.5459,-3.5385,-3.5415,-3.5415,-3.504,-3.4247,-3.4397,-3.4068,-3.3499,-3.3544,-3.3469,-3.338,-3.3305,-3.2677,-3.1764,-3.2213,-3.2138,-3.1584,-3.1482,-3.1135,-3.0492,-3.0417,-3.0148,-2.9804,-2.9579,-2.9146,-2.8487,-2.7844,-2.7535,-2.7425,-2.6288,-2.5944,-2.6318,-2.5794,-2.5196,-2.4717,-2.4567,-2.4283,-2.3744,-2.3655,-2.3699,-2.3714,-2.3625,-2.3655,-2.364,-2.3625,-2.3625,-2.361,-2.364,-2.3625,-2.3595,-2.3595,-2.3565,-2.352,-2.349,-2.3221,-2.2798,-2.3069,-2.3145,-2.2836,-2.3153,-2.3274,-2.2705,-2.2188,-2.1854,-2.1674,-2.1678,-2.1281,-2.0531,-2.0537,-2.0543,-2.041,-2.0076,-2.046,-2.1383,-2.1366,-2.1502,-2.1535,-2.1582,-2.1628,-2.1628,-2.1628,-2.1823,-2.2003,-2.1899,-2.1628,-2.1694,-2.1981,-2.1809,-2.1135,-2.0448,-2.0067,-2.0895,-2.1415,-2.1628,-2.1628,-2.1645,-2.1628,-2.1507,-2.1337,-2.1181,-2.1023,-2.0879,-2.0495,-1.9923,-1.8964,-1.7757,-1.7025,-1.6437,-1.5948,-1.5844,-1.5814,-1.5651,-3.5489,-3.5489,-3.5489,-3.5489,-3.5489,-3.5489,-3.5115,-3.4532,-3.4951,-3.4756,-3.4292,-3.4592,-3.4547,-3.4128,-3.4592,-3.4053,-3.2871,-3.3051,-3.3021,-3.2796,-3.2796,-3.2647,-3.2407,-3.2003,-3.1943,-3.1958,-3.1225,-3.0477,-2.9804,-2.916,-2.8861,-2.8727,-2.7979,-2.7664,-2.7664,-2.6782,-2.6093,-2.5854,-2.5495,-2.5136,-2.4881,-2.4881,-2.4881,-2.4852,-2.4462,-2.4253,-2.4268,-2.4657,-2.4702,-2.4238,-2.4253,-2.4044,-2.3655,-2.3595,-2.3595,-2.3595,-2.3595,-2.349,-2.3368,-2.3456,-2.3501,-2.3338,-2.3465,-2.3534,-2.3278,-2.3041,-2.2757,-2.2428,-2.2323,-2.1979,-2.1394,-2.1044,-2.0824,-2.0573,-2.0384,-2.0265,-2.0431,-2.0648,-2.0861,-2.0862,-2.1023,-2.1213,-2.1213,-2.1213,-2.1291,-2.1432,-2.1323,-2.1244,-2.1229,-2.1407,-2.1247,-2.0681,-2.0102,-1.9795,-2.0078,-2.0797,-2.1229,-2.1213,-2.1213,-2.1213,-2.1118,-2.1055,-2.0926,-2.0616,-2.055,-2.0424,-1.9779,-1.9248,-1.8007,-1.6894,-1.6308,-1.5949,-1.5873,-1.58,-1.5506,-3.5489,-3.5489,-3.5489,-3.5489,-3.5489,-3.5489,-3.525,-3.4876,-3.5295,-3.5235,-3.4966,-3.531,-3.5235,-3.4936,-3.5295,-3.5055,-3.4158,-3.3933,-3.3709,-3.3499,-3.3499,-3.3499,-3.3425,-3.3036,-3.3051,-3.3305,-3.2617,-3.1809,-3.115,-3.0507,-3.0238,-3.0163,-2.9355,-2.9026,-2.8951,-2.7904,-2.7156,-2.6856,-2.6243,-2.5839,-2.5644,-2.56,-2.56,-2.557,-2.5375,-2.5151,-2.4925,-2.5375,-2.53,-2.4701,-2.4582,-2.4313,-2.3699,-2.3595,-2.3595,-2.3595,-2.3595,-2.3595,-2.3595,-2.3595,-2.3595,-2.3595,-2.3595,-2.3595,-2.3595,-2.3595,-2.337,-2.3071,-2.2966,-2.2742,-2.2389,-2.1994,-2.147,-2.0873,-2.0664,-2.0426,-1.9975,-2.0254,-2.041,-2.0413,-2.0465,-2.0599,-2.0715,-2.0748,-2.0862,-2.0959,-2.0894,-2.0797,-2.0797,-2.0632,-2.0499,-2.0158,-1.9897,-1.9728,-1.9859,-2.0292,-2.0665,-2.0731,-2.0748,-2.0797,-2.0764,-2.0698,-2.0565,-2.0261,-2.0078,-2.0001,-1.971,-1.9234,-1.8277,-1.7073,-1.6338,-1.5905,-1.583,-1.5712,-1.5419,-3.5504,-3.5564,-3.5519,-3.5579,-3.5594,-3.5594,-3.5534,-3.5459,-3.5474,-3.5444,-3.5385,-3.5489,-3.5459,-3.5459,-3.5474,-3.5444,-3.5235,-3.4726,-3.4203,-3.3754,-3.3679,-3.3664,-3.3664,-3.3649,-3.3559,-3.3604,-3.3514,-3.311,-3.2422,-3.1839,-3.1539,-3.1315,-3.0357,-3.0088,-3.0507,-2.9265,-2.8263,-2.7679,-2.7051,-2.6378,-2.5734,-2.5779,-2.5809,-2.5824,-2.6243,-2.6243,-2.5704,-2.5719,-2.5495,-2.4866,-2.4716,-2.4343,-2.3819,-2.3699,-2.364,-2.361,-2.3595,-2.3595,-2.3595,-2.3595,-2.3595,-2.3595,-2.3595,-2.3595,-2.3595,-2.3595,-2.3565,-2.352,-2.3505,-2.349,-2.3385,-2.2963,-2.2209,-2.0991,-2.0813,-2.0555,-2.0369,-2.0261,-2.028,-2.0212,-2.0035,-1.9945,-2.0193,-2.0314,-2.0416,-2.0665,-2.0516,-2.0314,-2.028,-2.0104,-1.9818,-1.9762,-1.9752,-1.9717,-1.9711,-1.9762,-2.0015,-2.0193,-2.028,-2.0314,-2.0261,-2.0193,-2.012,-1.9889,-1.9874,-1.9798,-1.9576,-1.9091,-1.8419,-1.7369,-1.6667,-1.6144,-1.5936,-1.5817,-1.5326,-3.5774,-3.6163,-3.6193,-3.6178,-3.6178,-3.6178,-3.5953,-3.5519,-3.5489,-3.5489,-3.5489,-3.5489,-3.5489,-3.5489,-3.5489,-3.5489,-3.5474,-3.5265,-3.507,-3.4876,-3.4846,-3.4831,-3.4831,-3.4846,-3.4622,-3.4247,-3.4173,-3.3829,-3.326,-3.2961,-3.2886,-3.2706,-3.1988,-3.1719,-3.1734,-3.0597,-2.9594,-2.8951,-2.8308,-2.7649,-2.7036,-2.6961,-2.6961,-2.6991,-2.7205,-2.719,-2.6976,-2.6961,-2.6632,-2.5989,-2.5974,-2.548,-2.4552,-2.4313,-2.4073,-2.3655,-2.3595,-2.3595,-2.3595,-2.3595,-2.3595,-2.3595,-2.3595,-2.3595,-2.3595,-2.3595,-2.3595,-2.3595,-2.3595,-2.3595,-2.355,-2.3445,-2.2892,-2.2143,-2.1276,-2.0715,-2.054,-2.0182,-1.9919,-1.9874,-1.9782,-1.9782,-1.9839,-1.9909,-1.998,-2.0104,-2.0015,-1.9909,-1.9874,-1.9818,-1.9726,-1.9705,-1.9705,-1.9705,-1.9705,-1.9705,-1.9818,-1.9945,-1.9965,-2.0035,-1.9929,-1.9874,-1.9762,-1.9705,-1.9705,-1.96,-1.9346,-1.8957,-1.8403,-1.8194,-1.7834,-1.7171,-1.6422,-1.5883,-1.5461,-3.6252,-3.6806,-3.6821,-3.6821,-3.6836,-3.6836,-3.6462,-3.5923,-3.5863,-3.5744,-3.5534,-3.5489,-3.5489,-3.5489,-3.5489,-3.5489,-3.5489,-3.5489,-3.5489,-3.5489,-3.5489,-3.5489,-3.5489,-3.5489,-3.5325,-3.4951,-3.4861,-3.4502,-3.3888,-3.3844,-3.3724,-3.3425,-3.2841,-3.2497,-3.2377,-3.121,-3.0268,-2.9864,-2.928,-2.8742,-2.8368,-2.8083,-2.7949,-2.7919,-2.7709,-2.7575,-2.756,-2.756,-2.731,-2.6662,-2.6378,-2.5734,-2.4852,-2.4657,-2.4328,-2.3759,-2.3595,-2.3595,-2.3595,-2.3595,-2.3595,-2.3595,-2.3595,-2.3595,-2.3595,-2.3595,-2.3595,-2.3595,-2.3595,-2.3595,-2.3595,-2.3595,-2.34,-2.3071,-2.2113,-2.1261,-2.0812,-2.0109,-1.9771,-1.9726,-1.9726,-1.9705,-1.9705,-1.9705,-1.9705,-1.9705,-1.9705,-1.9705,-1.9705,-1.9741,-1.9705,-1.9705,-1.9705,-1.9705,-1.9705,-1.9705,-1.9705,-1.9762,-1.9762,-1.9782,-1.9797,-1.9797,-1.9705,-1.9705,-1.9705,-1.9705,-1.948,-1.9181,-1.8762,-1.8777,-1.8529,-1.7408,-1.641,-1.6172,-1.5638,-3.6896,-3.7434,-3.7464,-3.7464,-3.7464,-3.7464,-3.7105,-3.6582,-3.6537,-3.6237,-3.5789,-3.5684,-3.5624,-3.5594,-3.5564,-3.5489,-3.5489,-3.5489,-3.5489,-3.5489,-3.5489,-3.5489,-3.5489,-3.5489,-3.5444,-3.5415,-3.5429,-3.5115,-3.4547,-3.4532,-3.4218,-3.3769,-3.317,-3.2677,-3.2572,-3.1345,-3.0702,-3.0522,-2.9953,-2.9579,-2.943,-2.8966,-2.8592,-2.8532,-2.8008,-2.7664,-2.7625,-2.756,-2.7305,-2.6677,-2.6243,-2.5734,-2.5106,-2.4807,-2.4433,-2.3699,-2.3595,-2.3595,-2.3595,-2.3729,-2.3684,-2.361,-2.3699,-2.3625,-2.3625,-2.3595,-2.3595,-2.3595,-2.3595,-2.3595,-2.3595,-2.3595,-2.3565,-2.3505,-2.2847,-2.1994,-2.0872,-2.0198,-2.0049,-1.9869,-1.9765,-1.9779,-1.9839,-1.9794,-1.9705,-1.9705,-1.9705,-1.9705,-1.9705,-1.9705,-1.9705,-1.9705,-1.9705,-1.9705,-1.9705,-1.9705,-1.9705,-1.9705,-1.9705,-1.9705,-1.9705,-1.9705,-1.9705,-1.9705,-1.9705,-1.9705,-1.9615,-1.9346,-1.9031,-1.8821,-1.8135,-1.7103,-1.6484,-1.6208,-1.552,-3.7554,-3.8123,-3.8138,-3.8138,-3.8138,-3.8138,-3.7764,-3.721,-3.7165,-3.7045,-3.6806,-3.6432,-3.6193,-3.6163,-3.5699,-3.5489,-3.5489,-3.5489,-3.5489,-3.5489,-3.5489,-3.5489,-3.5489,-3.5489,-3.5489,-3.5489,-3.5489,-3.5415,-3.5235,-3.5175,-3.5085,-3.4966,-3.4188,-3.3903,-3.3754,-3.2587,-3.1764,-3.124,-3.0612,-3.0073,-2.9699,-2.9505,-2.9086,-2.8607,-2.8397,-2.8038,-2.7685,-2.756,-2.7565,-2.735,-2.7186,-2.6542,-2.557,-2.536,-2.4852,-2.3864,-2.3655,-2.3625,-2.3714,-2.4088,-2.4118,-2.3699,-2.4118,-2.4118,-2.3625,-2.361,-2.3595,-2.3595,-2.3595,-2.3595,-2.3595,-2.3595,-2.3595,-2.352,-2.3086,-2.2233,-2.1186,-2.0991,-2.1006,-2.0557,-2.0438,-2.0393,-2.0303,-1.9989,-1.972,-1.9705,-1.9705,-1.9705,-1.9705,-1.9705,-1.9705,-1.9705,-1.9705,-1.9705,-1.9705,-1.9705,-1.9705,-1.9705,-1.9705,-1.9705,-1.9705,-1.9705,-1.9705,-1.9705,-1.9705,-1.9705,-1.969,-1.9555,-1.9227,-1.8775,-1.8455,-1.772,-1.6634,-1.6027,-1.523,-3.8377,-3.92,-3.8931,-3.899,-3.917,-3.8931,-3.8437,-3.7913,-3.7823,-3.7644,-3.733,-3.6776,-3.6492,-3.6417,-3.5804,-3.5504,-3.5489,-3.5489,-3.5489,-3.5489,-3.5489,-3.5489,-3.5489,-3.5489,-3.5489,-3.5489,-3.5489,-3.5489,-3.5474,-3.5489,-3.5489,-3.5325,-3.4816,-3.4487,-3.4352,-3.3499,-3.2766,-3.2362,-3.1928,-3.1465,-3.0866,-3.0537,-2.9849,-2.9086,-2.8547,-2.7949,-2.7604,-2.756,-2.756,-2.756,-2.7515,-2.7051,-2.6048,-2.5974,-2.5405,-2.4163,-2.4268,-2.4358,-2.4193,-2.4657,-2.4837,-2.4597,-2.4866,-2.4807,-2.4492,-2.4223,-2.4029,-2.4059,-2.3789,-2.3625,-2.3595,-2.3595,-2.3595,-2.3565,-2.3266,-2.2637,-2.162,-2.162,-2.153,-2.1201,-2.0902,-2.0707,-2.0692,-2.0109,-1.9794,-1.9705,-1.9705,-1.9705,-1.9705,-1.9705,-1.9705,-1.9705,-1.9705,-1.9705,-1.9705,-1.9705,-1.9705,-1.9705,-1.9493,-1.953,-1.9617,-1.9617,-1.9654,-1.9654,-1.969,-1.9654,-1.9493,-1.9332,-1.8985,-1.8688,-1.8636,-1.7946,-1.6637,-1.5828,-1.5039,-3.9305,-4.0367,-3.9843,-3.9963,-4.0322,-3.9798,-3.92,-3.8691,-3.8527,-3.8212,-3.7674,-3.6926,-3.6686,-3.6537,-3.5878,-3.5489,-3.5489,-3.5489,-3.5609,-3.5699,-3.5789,-3.5818,-3.5699,-3.5549,-3.5504,-3.5489,-3.5489,-3.5489,-3.5489,-3.5489,-3.5489,-3.5385,-3.4891,-3.4573,-3.4356,-3.3809,-3.3572,-3.3315,-3.3199,-3.2886,-3.2332,-3.1809,-3.0986,-2.9909,-2.8487,-2.7949,-2.7754,-2.77,-2.756,-2.756,-2.756,-2.7126,-2.6437,-2.6482,-2.5959,-2.5076,-2.5106,-2.5196,-2.4941,-2.533,-2.5689,-2.56,-2.563,-2.5689,-2.5465,-2.4956,-2.4522,-2.4717,-2.4103,-2.3864,-2.3774,-2.3699,-2.3595,-2.3595,-2.355,-2.331,-2.2832,-2.2248,-2.1874,-2.1784,-2.1261,-2.0991,-2.0662,-2.0273,-1.9794,-1.9705,-1.9705,-1.9705,-1.9705,-1.9705,-1.9705,-1.9705,-1.9705,-1.9705,-1.9705,-1.9705,-1.9705,-1.969,-1.9295,-1.9207,-1.9406,-1.9442,-1.953,-1.953,-1.9244,-1.9058,-1.8907,-1.8703,-1.8535,-1.8249,-1.8052,-1.7122,-1.6078,-1.5652,-1.4998,-4.0142,-4.0427,-4.0801,-4.104,-4.104,-4.0472,-4.0083,-3.9873,-3.9379,-3.9035,-3.8721,-3.7734,-3.724,-3.712,-3.6118,-3.5489,-3.5519,-3.5484,-3.5759,-3.6312,-3.6821,-3.6671,-3.6267,-3.5783,-3.5484,-3.5439,-3.5489,-3.5504,-3.5439,-3.5359,-3.5504,-3.5459,-3.526,-3.491,-3.4259,-3.4243,-3.3868,-3.3381,-3.3347,-3.3391,-3.3123,-3.2571,-3.1885,-3.0869,-2.9241,-2.8442,-2.8248,-2.7859,-2.759,-2.756,-2.753,-2.7295,-2.6737,-2.6617,-2.6228,-2.5704,-2.554,-2.5585,-2.554,-2.5974,-2.6318,-2.6213,-2.6303,-2.6303,-2.6063,-2.5255,-2.5001,-2.5121,-2.4807,-2.4433,-2.4373,-2.3909,-2.3729,-2.3684,-2.3625,-2.355,-2.34,-2.3251,-2.2906,-2.2547,-2.2293,-2.2054,-2.1515,-2.0842,-2.0318,-1.9884,-1.9705,-1.9705,-1.9705,-1.9705,-1.9705,-1.9705,-1.9705,-1.969,-1.9457,-1.9457,-1.9369,-1.9369,-1.9006,-1.8765,-1.9006,-1.8968,-1.893,-1.8803,-1.865,-1.8458,-1.8341,-1.8224,-1.8092,-1.7787,-1.7396,-1.656,-1.5802,-1.5441,-1.4726,-4.104,-4.128,-4.104,-4.11,-4.119,-4.0352,-3.9948,-3.9873,-3.9574,-3.9424,-3.9215,-3.8287,-3.7719,-3.7375,-3.6701,-3.6148,-3.5538,-3.5341,-3.5866,-3.6565,-3.6882,-3.6768,-3.6782,-3.602,-3.5448,-3.4919,-3.4758,-3.4758,-3.4773,-3.4854,-3.4986,-3.5504,-3.5424,-3.5234,-3.4691,-3.4405,-3.3981,-3.3576,-3.3154,-3.3115,-3.3196,-3.2966,-3.2315,-3.1278,-2.9622,-2.8582,-2.8958,-2.8427,-2.8113,-2.7979,-2.7739,-2.749,-2.7141,-2.7085,-2.6707,-2.6228,-2.6408,-2.6303,-2.6333,-2.6647,-2.7055,-2.692,-2.6976,-2.6961,-2.6722,-2.6033,-2.5749,-2.5824,-2.5525,-2.5091,-2.5061,-2.4492,-2.4133,-2.3999,-2.3774,-2.361,-2.3595,-2.3595,-2.352,-2.3116,-2.2802,-2.2308,-2.1769,-2.1261,-2.0557,-1.9974,-1.9794,-1.9779,-1.9705,-1.9705,-1.9705,-1.9705,-1.9705,-1.9617,-1.9295,-1.9132,-1.8968,-1.8855,-1.8688,-1.8496,-1.8496,-1.838,-1.821,-1.8171,-1.8171,-1.7973,-1.7867,-1.7747,-1.7544,-1.7188,-1.6674,-1.6064,-1.5539,-1.5119,-1.4275,-4.1848,-4.2282,-4.1265,-4.1175,-4.1414,-4.0352,-3.9843,-3.9768,-3.9484,-3.9424,-3.929,-3.8691,-3.8033,-3.7629,-3.7389,-3.6649,-3.5769,-3.5496,-3.6152,-3.6558,-3.6317,-3.6418,-3.656,-3.6,-3.5039,-3.3972,-3.4098,-3.4139,-3.3996,-3.3937,-3.4268,-3.4883,-3.4986,-3.4491,-3.4476,-3.4259,-3.3531,-3.3128,-3.2863,-3.2765,-3.2929,-3.2782,-3.2162,-3.0933,-2.9507,-2.867,-2.889,-2.8537,-2.8307,-2.839,-2.778,-2.7518,-2.7458,-2.753,-2.7365,-2.6767,-2.722,-2.7141,-2.6901,-2.72,-2.75,-2.756,-2.7545,-2.758,-2.735,-2.6886,-2.6602,-2.6452,-2.6198,-2.5764,-2.5719,-2.5166,-2.4731,-2.4492,-2.4059,-2.3759,-2.361,-2.3595,-2.3565,-2.3505,-2.3191,-2.2727,-2.2143,-2.159,-2.0812,-2.0168,-2.0034,-1.9944,-1.9929,-1.9929,-2.0064,-2.0034,-2.0079,-1.9612,-1.9213,-1.8688,-1.8535,-1.838,-1.821,-1.8013,-1.7894,-1.7666,-1.7544,-1.7787,-1.7787,-1.7544,-1.7353,-1.7229,-1.6951,-1.6552,-1.615,-1.5736,-1.5265,-1.4835,-1.3839,-4.2344,-4.2387,-4.2716,-4.291,-4.2776,-4.1594,-4.0935,-4.0861,-3.9798,-3.9439,-3.9334,-3.8706,-3.8377,-3.8108,-3.7614,-3.6828,-3.6268,-3.5999,-3.5975,-3.6019,-3.5906,-3.6053,-3.584,-3.5557,-3.4533,-3.3639,-3.3649,-3.3905,-3.3595,-3.3484,-3.3493,-3.3227,-3.3255,-3.2961,-3.2678,-3.2379,-3.2522,-3.2177,-3.2177,-3.2354,-3.2471,-3.2083,-3.1469,-3.0389,-2.9268,-2.8697,-2.8296,-2.7869,-2.7527,-2.7469,-2.6987,-2.6741,-2.6774,-2.7203,-2.7318,-2.736,-2.7455,-2.7455,-2.738,-2.7455,-2.756,-2.756,-2.756,-2.756,-2.7425,-2.7066,-2.6946,-2.7051,-2.6811,-2.6422,-2.6408,-2.5839,-2.5164,-2.4761,-2.4448,-2.4163,-2.3744,-2.3595,-2.3595,-2.3565,-2.34,-2.3161,-2.2532,-2.2039,-2.156,-2.1081,-2.0902,-2.0887,-2.0902,-2.0872,-2.0848,-2.0729,-2.0587,-1.9855,-1.9121,-1.85,-1.8106,-1.7907,-1.7706,-1.7353,-1.7146,-1.6866,-1.6866,-1.7229,-1.7188,-1.6921,-1.6765,-1.671,-1.668,-1.6522,-1.6022,-1.5471,-1.4873,-1.4283,-1.3391,-4.288,-4.2865,-4.2851,-4.2626,-4.2177,-4.1294,-4.0681,-4.0292,-3.9694,-3.9424,-3.9334,-3.9065,-3.8706,-3.8482,-3.8527,-3.7853,-3.6876,-3.5489,-3.5443,-3.5562,-3.5585,-3.5639,-3.547,-3.5246,-3.4419,-3.3661,-3.3595,-3.3515,-3.3114,-3.2812,-3.2779,-3.3004,-3.2786,-3.2321,-3.1974,-3.1888,-3.1683,-3.1315,-3.1254,-3.1476,-3.1775,-3.1263,-3.0729,-3.0528,-2.9401,-2.8817,-2.8843,-2.8052,-2.7551,-2.7257,-2.6708,-2.6258,-2.6113,-2.6215,-2.6654,-2.6982,-2.7357,-2.7575,-2.7575,-2.756,-2.756,-2.756,-2.756,-2.756,-2.7515,-2.7335,-2.723,-2.7365,-2.7395,-2.7096,-2.713,-2.6467,-2.5854,-2.5241,-2.4821,-2.4343,-2.3834,-2.3655,-2.3595,-2.3595,-2.3505,-2.3251,-2.2802,-2.2428,-2.2248,-2.2024,-2.1784,-2.1769,-2.1789,-2.1496,-2.1238,-2.0416,-1.9963,-1.9233,-1.8528,-1.8068,-1.768,-1.7476,-1.7271,-1.6921,-1.671,-1.6595,-1.6637,-1.6795,-1.6637,-1.6534,-1.6522,-1.6607,-1.6565,-1.6436,-1.591,-1.5286,-1.4494,-1.3654,-1.2873,-4.3254,-4.3105,-4.2581,-4.1966,-4.1245,-4.0396,-3.9654,-3.9033,-3.8767,-3.862,-3.8782,-3.8649,-3.8297,-3.8149,-3.8209,-3.8011,-3.6993,-3.4781,-3.4741,-3.4982,-3.4706,-3.4802,-3.5116,-3.4831,-3.3988,-3.355,-3.3315,-3.281,-3.2291,-3.2215,-3.2352,-3.2163,-3.2104,-3.2114,-3.1723,-3.1132,-3.0983,-3.0696,-3.0279,-3.0292,-3.0654,-3.0577,-3.0441,-3.0885,-2.935,-2.8686,-2.8826,-2.8071,-2.7462,-2.6977,-2.6403,-2.5789,-2.5379,-2.5244,-2.5467,-2.6068,-2.6878,-2.7357,-2.7575,-2.756,-2.756,-2.756,-2.756,-2.756,-2.756,-2.7515,-2.753,-2.756,-2.753,-2.75,-2.741,-2.7081,-2.6497,-2.5884,-2.5226,-2.4597,-2.4073,-2.3774,-2.361,-2.3595,-2.3595,-2.3415,-2.2999,-2.2996,-2.2847,-2.2772,-2.2547,-2.2268,-2.2182,-2.1562,-2.1017,-1.9784,-1.8995,-1.8287,-1.776,-1.753,-1.7229,-1.7076,-1.6921,-1.668,-1.6565,-1.6522,-1.6565,-1.6595,-1.6565,-1.6534,-1.6534,-1.6491,-1.6534,-1.6337,-1.582,-1.5148,-1.4355,-1.3569,-1.2772,-4.3015,-4.2476,-4.2402,-4.1799,-4.0641,-3.9489,-3.8396,-3.7489,-3.6971,-3.6604,-3.6838,-3.6682,-3.6704,-3.6648,-3.6598,-3.6067,-3.5251,-3.4653,-3.4048,-3.3869,-3.3556,-3.3556,-3.3543,-3.3398,-3.3369,-3.3191,-3.3114,-3.2198,-3.1597,-3.1825,-3.1508,-3.0854,-3.1061,-3.0738,-3.0649,-3.042,-2.9998,-2.9934,-2.9856,-2.9856,-2.9985,-2.9973,-2.9745,-2.9287,-2.8715,-2.813,-2.7983,-2.7419,-2.6918,-2.6678,-2.5778,-2.5249,-2.5097,-2.466,-2.4505,-2.4894,-2.5783,-2.693,-2.7357,-2.7458,-2.7458,-2.7458,-2.756,-2.756,-2.7473,-2.7452,-2.7467,-2.756,-2.756,-2.7509,-2.7458,-2.7434,-2.7066,-2.6449,-2.5729,-2.5118,-2.4552,-2.4029,-2.385,-2.3554,-2.3599,-2.3509,-2.3329,-2.3417,-2.3475,-2.3415,-2.3298,-2.2907,-2.2294,-2.1469,-2.0436,-1.9098,-1.829,-1.761,-1.7312,-1.7034,-1.6921,-1.6765,-1.665,-1.6534,-1.6534,-1.6534,-1.6534,-1.6522,-1.6534,-1.6436,-1.6337,-1.6337,-1.6436,-1.6207,-1.5688,-1.5008,-1.4234,-1.3445,-1.2719,-4.0402,-4.0488,-4.0488,-3.9815,-3.8728,-3.8084,-3.741,-3.6678,-3.6336,-3.6198,-3.6198,-3.6198,-3.6198,-3.6053,-3.5668,-3.5129,-3.4594,-3.4121,-3.3641,-3.324,-3.3081,-3.3081,-3.3167,-3.3056,-3.298,-3.278,-3.2729,-3.2152,-3.1461,-3.1537,-3.1612,-3.0884,-3.0871,-3.0863,-3.0256,-3.0244,-3.0055,-2.9892,-2.9779,-2.9779,-2.9779,-2.9767,-2.9679,-2.9402,-2.885,-2.8285,-2.7754,-2.731,-2.6704,-2.6255,-2.5525,-2.5063,-2.4602,-2.4266,-2.4167,-2.4337,-2.4851,-2.5783,-2.6774,-2.693,-2.6982,-2.7137,-2.724,-2.7408,-2.7144,-2.6963,-2.6751,-2.6322,-2.6774,-2.693,-2.6982,-2.6982,-2.687,-2.6461,-2.585,-2.5282,-2.471,-2.4476,-2.4134,-2.3822,-2.3526,-2.3393,-2.326,-2.326,-2.3157,-2.2981,-2.2863,-2.2582,-2.1719,-2.064,-1.9455,-1.8166,-1.7538,-1.7005,-1.6866,-1.671,-1.6748,-1.6633,-1.6633,-1.6559,-1.6534,-1.6534,-1.6534,-1.6534,-1.6534,-1.638,-1.6151,-1.6194,-1.6293,-1.5964,-1.5555,-1.4786,-1.3994,-1.3519,-1.2754,-3.7602,-3.7741,-3.8322,-3.7896,-3.6825,-3.6674,-3.6103,-3.5467,-3.5359,-3.5346,-3.5426,-3.5346,-3.5346,-3.5265,-3.4664,-3.4262,-3.4191,-3.3471,-3.3154,-3.3081,-3.3081,-3.3081,-3.3081,-3.3043,-3.2867,-3.2428,-3.2893,-3.2328,-3.1813,-3.1813,-3.2051,-3.1273,-3.121,-3.1022,-3.0733,-3.052,-3.0319,-2.9829,-2.9779,-2.9779,-2.9779,-2.9779,-2.9779,-2.9591,-2.9239,-2.8725,-2.8298,-2.7641,-2.6785,-2.6357,-2.5728,-2.5252,-2.4722,-2.4267,-2.4111,-2.4136,-2.4275,-2.4624,-2.5563,-2.6054,-2.6162,-2.6385,-2.6607,-2.666,-2.634,-2.6217,-2.6078,-2.5605,-2.5906,-2.6176,-2.6229,-2.6229,-2.6189,-2.5977,-2.5632,-2.5105,-2.4604,-2.4307,-2.3985,-2.3655,-2.3288,-2.3011,-2.2942,-2.2963,-2.2815,-2.2543,-2.2377,-2.2151,-2.1172,-1.9926,-1.9014,-1.7904,-1.7514,-1.7091,-1.7023,-1.6841,-1.6748,-1.6697,-1.6697,-1.6635,-1.6647,-1.6572,-1.6534,-1.6534,-1.6559,-1.625,-1.5964,-1.6051,-1.6095,-1.5511,-1.4926,-1.4417,-1.3822,-1.3366,-1.2975,-3.5115,-3.4425,-3.6466,-3.6688,-3.5637,-3.5107,-3.4327,-3.3781,-3.3522,-3.3607,-3.3705,-3.3484,-3.3628,-3.3471,-3.3556,-3.3398,-3.324,-3.3154,-3.3081,-3.3081,-3.3081,-3.3081,-3.3081,-3.3068,-3.3043,-3.2968,-3.3043,-3.2667,-3.229,-3.234,-3.1901,-3.0972,-3.1499,-3.1135,-3.0821,-3.0708,-3.0331,-2.9905,-2.9779,-2.9779,-2.9779,-2.9779,-2.9779,-2.9679,-2.9289,-2.8888,-2.8812,-2.7971,-2.7268,-2.6954,-2.6264,-2.5636,-2.5197,-2.4619,-2.4381,-2.4164,-2.3834,-2.4149,-2.4744,-2.5229,-2.5453,-2.5532,-2.5565,-2.5678,-2.5536,-2.5499,-2.537,-2.5229,-2.53,-2.5453,-2.5453,-2.5481,-2.5521,-2.5572,-2.5306,-2.4868,-2.4387,-2.4024,-2.3701,-2.3391,-2.3156,-2.2906,-2.262,-2.2574,-2.2231,-2.1969,-2.1649,-2.1452,-2.0462,-1.9365,-1.8798,-1.8063,-1.772,-1.7458,-1.7458,-1.7388,-1.7388,-1.7275,-1.72,-1.6986,-1.681,-1.6722,-1.6735,-1.6635,-1.6629,-1.6169,-1.5776,-1.5644,-1.5421,-1.4869,-1.4367,-1.4187,-1.3772,-1.3346,-1.3094,-3.3801,-3.3469,-3.436,-3.464,-3.4507,-3.3956,-3.3878,-3.4048,-3.3734,-3.3583,-3.3533,-3.3257,-3.3081,-3.3081,-3.3081,-3.3081,-3.3081,-3.3081,-3.3081,-3.3081,-3.3081,-3.3081,-3.3081,-3.3081,-3.3081,-3.3081,-3.3056,-3.2767,-3.2277,-3.2579,-3.229,-3.1888,-3.2089,-3.2014,-3.1687,-3.0896,-3.0331,-2.9955,-2.9792,-2.9779,-2.9779,-2.9779,-2.9779,-2.9741,-2.9666,-2.9252,-2.8938,-2.8561,-2.7959,-2.7369,-2.6854,-2.6314,-2.5762,-2.5159,-2.4782,-2.4519,-2.4192,-2.4279,-2.4372,-2.4714,-2.4908,-2.5258,-2.5051,-2.47,-2.4721,-2.4695,-2.4398,-2.4334,-2.4496,-2.4667,-2.4738,-2.4738,-2.4824,-2.5092,-2.4996,-2.4541,-2.4255,-2.3797,-2.3595,-2.3353,-2.3108,-2.2892,-2.2548,-2.2196,-2.1771,-2.1291,-2.1002,-2.0647,-1.9788,-1.9149,-1.8727,-1.8442,-1.8116,-1.794,-1.7928,-1.7978,-1.8041,-1.7852,-1.7664,-1.7422,-1.7222,-1.7149,-1.7124,-1.6974,-1.6541,-1.6034,-1.5593,-1.5164,-1.4732,-1.4236,-1.419,-1.4297,-1.3862,-1.3286,-1.3065,-3.3081,-3.3081,-3.3081,-3.3294,-3.3571,-3.3244,-3.3608,-3.4274,-3.3847,-3.3658,-3.3621,-3.3232,-3.3081,-3.3081,-3.3081,-3.3081,-3.3081,-3.3081,-3.3081,-3.3081,-3.3081,-3.3081,-3.3081,-3.3081,-3.3081,-3.3081,-3.3056,-3.2805,-3.2554,-3.2491,-3.2478,-3.2591,-3.2805,-3.2616,-3.2039,-3.1198,-3.0419,-3.0118,-2.9854,-2.9792,-2.9779,-2.9779,-2.9779,-2.9779,-2.9741,-2.9603,-2.934,-2.9101,-2.8699,-2.8021,-2.7406,-2.6866,-2.6289,-2.5774,-2.5435,-2.5146,-2.4921,-2.4858,-2.4684,-2.4512,-2.436,-2.4447,-2.4262,-2.4001,-2.3922,-2.3953,-2.3722,-2.3381,-2.3708,-2.3956,-2.3982,-2.3943,-2.4002,-2.4195,-2.4163,-2.3871,-2.3845,-2.3597,-2.3449,-2.3288,-2.2994,-2.2654,-2.2279,-2.1891,-2.1435,-2.093,-2.0547,-2.0293,-1.9837,-1.9283,-1.9032,-1.8819,-1.8643,-1.8518,-1.8442,-1.8656,-1.8744,-1.8191,-1.8019,-1.7904,-1.7708,-1.7638,-1.7174,-1.6669,-1.6197,-1.5774,-1.5257,-1.4727,-1.4183,-1.3647,-1.3742,-1.3836,-1.36,-1.3065,-1.3027,-3.3068,-3.3081,-3.3068,-3.3093,-3.3156,-3.3093,-3.3445,-3.3985,-3.3495,-3.3244,-3.3257,-3.3119,-3.3081,-3.3081,-3.3081,-3.3081,-3.3081,-3.3081,-3.3081,-3.3081,-3.3081,-3.3081,-3.3081,-3.3081,-3.3081,-3.3081,-3.3068,-3.3031,-3.298,-3.2918,-3.2943,-3.2955,-3.298,-3.278,-3.2164,-3.1185,-3.0658,-3.052,-3.0068,-2.9917,-2.9779,-2.9779,-2.9779,-2.9779,-2.9779,-2.9691,-2.9628,-2.9603,-2.9214,-2.8624,-2.7896,-2.7444,-2.713,-2.6251,-2.5824,-2.5699,-2.5197,-2.4958,-2.4795,-2.4331,-2.4075,-2.3675,-2.3606,-2.3406,-2.3248,-2.3226,-2.3462,-2.3514,-2.3523,-2.3435,-2.3299,-2.3299,-2.3568,-2.3539,-2.353,-2.3428,-2.345,-2.3433,-2.3293,-2.3229,-2.2743,-2.2261,-2.1927,-2.1546,-2.1094,-2.063,-2.0144,-1.9838,-1.9635,-1.951,-1.9309,-1.9233,-1.9108,-1.907,-1.907,-1.9422,-1.9397,-1.8794,-1.8434,-1.8388,-1.8142,-1.7873,-1.729,-1.647,-1.6064,-1.5843,-1.4986,-1.4152,-1.371,-1.3367,-1.3123,-1.3113,-1.2978,-1.292,-1.2832,-3.2855,-3.2541,-3.2905,-3.3081,-3.3081,-3.3081,-3.3583,-3.4261,-3.3897,-3.3621,-3.3533,-3.3269,-3.3081,-3.3081,-3.3081,-3.3081,-3.3081,-3.3081,-3.3081,-3.3081,-3.3106,-3.3081,-3.3081,-3.3081,-3.3081,-3.3081,-3.3081,-3.3081,-3.3056,-3.3081,-3.3081,-3.3081,-3.3043,-3.2742,-3.2315,-3.17,-3.1436,-3.0733,-3.0394,-3.0193,-2.9842,-2.9804,-2.9779,-2.9779,-2.9779,-2.9779,-2.9779,-2.9779,-2.9515,-2.9063,-2.836,-2.8147,-2.7808,-2.6979,-2.6703,-2.6578,-2.6201,-2.5711,-2.546,-2.5046,-2.4632,-2.3991,-2.3427,-2.3401,-2.3615,-2.3704,-2.3879,-2.4054,-2.4092,-2.4117,-2.428,-2.428,-2.4293,-2.3778,-2.364,-2.3303,-2.3178,-2.3223,-2.3122,-2.311,-2.2836,-2.2543,-2.2171,-2.1807,-2.1285,-2.0819,-2.0368,-1.9976,-1.9748,-1.9736,-1.9623,-1.9635,-1.9585,-1.956,-1.9635,-1.9736,-1.9683,-1.9132,-1.8982,-1.9105,-1.8755,-1.7998,-1.7373,-1.6532,-1.6204,-1.5836,-1.4868,-1.401,-1.3491,-1.3126,-1.2881,-1.2832,-1.2929,-1.2822,-1.2666,-3.2855,-3.2579,-3.2918,-3.3081,-3.3081,-3.3081,-3.352,-3.406,-3.3947,-3.3809,-3.3545,-3.3206,-3.3081,-3.3081,-3.3081,-3.3081,-3.3093,-3.3307,-3.3144,-3.3169,-3.3307,-3.3244,-3.3144,-3.3081,-3.3081,-3.3081,-3.3081,-3.3081,-3.3081,-3.3081,-3.3081,-3.3081,-3.3081,-3.2893,-3.2541,-3.224,-3.1876,-3.1235,-3.0934,-3.0432,-3.0131,-2.9955,-2.9792,-2.9779,-2.9779,-2.9779,-2.9779,-2.9729,-2.9628,-2.9277,-2.9013,-2.8787,-2.8335,-2.7934,-2.7607,-2.7419,-2.7055,-2.6578,-2.6289,-2.5624,-2.5159,-2.4669,-2.4029,-2.3928,-2.4205,-2.4266,-2.4391,-2.463,-2.4858,-2.4845,-2.4845,-2.4883,-2.4668,-2.4141,-2.3704,-2.3381,-2.3367,-2.3353,-2.3163,-2.315,-2.3088,-2.2774,-2.246,-2.2071,-2.1625,-2.1159,-2.0665,-2.03,-1.9949,-1.9899,-1.9886,-1.9874,-1.9823,-1.9723,-1.971,-1.9761,-1.9631,-1.9423,-1.9267,-1.915,-1.8365,-1.7444,-1.7024,-1.6613,-1.619,-1.5613,-1.4707,-1.3921,-1.3471,-1.2977,-1.2597,-1.2666,-1.2832,-1.2676,-1.2461,-3.3006,-3.3031,-3.3043,-3.3043,-3.3068,-3.3081,-3.3119,-3.3156,-3.3646,-3.3558,-3.3093,-3.3119,-3.3081,-3.3081,-3.3081,-3.3081,-3.3131,-3.3533,-3.3395,-3.3294,-3.3407,-3.3307,-3.3181,-3.3081,-3.3081,-3.3093,-3.3169,-3.3294,-3.3144,-3.3244,-3.3232,-3.3081,-3.3081,-3.2993,-3.2817,-3.2591,-3.224,-3.1788,-3.1336,-3.0909,-3.0633,-3.0181,-3.0018,-2.9942,-2.9867,-2.9804,-2.9779,-2.9754,-2.9754,-2.9553,-2.9289,-2.9076,-2.8775,-2.8423,-2.8222,-2.7934,-2.7519,-2.7218,-2.6942,-2.6189,-2.5812,-2.5423,-2.5088,-2.4924,-2.4782,-2.4841,-2.4966,-2.5081,-2.5234,-2.5096,-2.5021,-2.5046,-2.5046,-2.4491,-2.394,-2.3804,-2.3791,-2.364,-2.3314,-2.3188,-2.3138,-2.2924,-2.2636,-2.2284,-2.2096,-2.1719,-2.128,-2.0928,-2.0552,-2.01,-2.0075,-2.0012,-1.9949,-1.9811,-1.9798,-1.972,-1.9411,-1.9097,-1.8661,-1.8382,-1.7599,-1.7002,-1.6661,-1.629,-1.5991,-1.5365,-1.4463,-1.3866,-1.3469,-1.3024,-1.2607,-1.2618,-1.2881,-1.2412,-1.2147,-3.1876,-3.1913,-3.229,-3.2692,-3.3043,-3.3081,-3.3081,-3.3119,-3.3257,-3.3194,-3.3081,-3.3081,-3.3081,-3.3081,-3.3081,-3.3081,-3.3144,-3.3194,-3.3181,-3.3232,-3.3357,-3.3219,-3.3131,-3.3081,-3.3081,-3.3219,-3.3395,-3.3596,-3.3646,-3.3646,-3.3395,-3.3131,-3.3181,-3.3156,-3.3068,-3.2905,-3.2591,-3.2252,-3.1813,-3.1449,-3.106,-3.0583,-3.0369,-3.0206,-2.9917,-2.9829,-2.9779,-2.9779,-2.9779,-2.9704,-2.9628,-2.9528,-2.9503,-2.9001,-2.8599,-2.8072,-2.7632,-2.7256,-2.7168,-2.6697,-2.6282,-2.6201,-2.598,-2.574,-2.5548,-2.5394,-2.5544,-2.5674,-2.5737,-2.5686,-2.5674,-2.5674,-2.5573,-2.5169,-2.4703,-2.4556,-2.452,-2.4142,-2.3789,-2.3326,-2.3276,-2.315,-2.2862,-2.2774,-2.2573,-2.2259,-2.1933,-2.1606,-2.1179,-2.0727,-2.0439,-2.0388,-2.0092,-1.9977,-1.9676,-1.9522,-1.9133,-1.8703,-1.8356,-1.7844,-1.711,-1.6545,-1.6228,-1.5944,-1.5725,-1.5039,-1.4257,-1.3887,-1.3769,-1.3193,-1.2793,-1.2783,-1.2735,-1.233,-1.1775,-3.1386,-3.1461,-3.1976,-3.2541,-3.3018,-3.3081,-3.3081,-3.3081,-3.3081,-3.3081,-3.3081,-3.3081,-3.3081,-3.3081,-3.3081,-3.3081,-3.3093,-3.3382,-3.337,-3.3131,-3.3257,-3.3232,-3.3181,-3.3093,-3.3081,-3.3282,-3.3558,-3.3834,-3.396,-3.4135,-3.401,-3.3809,-3.3583,-3.3407,-3.3345,-3.3169,-3.2893,-3.2604,-3.2277,-3.1901,-3.1436,-3.0922,-3.0595,-3.0331,-2.9955,-2.9829,-2.9779,-2.9779,-2.9779,-2.9779,-2.9779,-2.9779,-2.9767,-2.9415,-2.9214,-2.8762,-2.8348,-2.8109,-2.7934,-2.7352,-2.7012,-2.6798,-2.6578,-2.6264,-2.6088,-2.5975,-2.6126,-2.6307,-2.6408,-2.6471,-2.6496,-2.6471,-2.6189,-2.5963,-2.5719,-2.547,-2.5102,-2.4785,-2.4205,-2.364,-2.3439,-2.3351,-2.3251,-2.3201,-2.3075,-2.2786,-2.2623,-2.2485,-2.1983,-2.143,-2.1129,-2.0978,-2.0519,-2.0086,-1.9775,-1.9455,-1.9026,-1.8707,-1.8406,-1.7787,-1.6833,-1.626,-1.6046,-1.5771,-1.5449,-1.4863,-1.4243,-1.4326,-1.418,-1.3503,-1.2786,-1.2521,-1.2428,-1.2277,-1.1722,-3.1273,-3.1361,-3.1964,-3.2503,-3.298,-3.3031,-3.3081,-3.3081,-3.3081,-3.3081,-3.3081,-3.3081,-3.3081,-3.3081,-3.3081,-3.3081,-3.3169,-3.3407,-3.337,-3.3093,-3.3395,-3.3432,-3.3294,-3.3119,-3.3181,-3.3319,-3.3596,-3.3985,-3.4135,-3.4324,-3.4525,-3.4638,-3.3985,-3.3621,-3.3495,-3.3244,-3.3006,-3.2905,-3.2579,-3.2202,-3.1662,-3.1047,-3.0432,-3.0118,-2.9905,-2.9779,-2.9779,-2.9779,-2.9779,-2.9779,-2.9779,-2.9779,-2.9767,-2.9741,-2.9679,-2.9478,-2.8976,-2.875,-2.8484,-2.794,-2.7523,-2.715,-2.6791,-2.6502,-2.6314,-2.6276,-2.6458,-2.6483,-2.6521,-2.6521,-2.6521,-2.6521,-2.6314,-2.6181,-2.5958,-2.5668,-2.5416,-2.5048,-2.4683,-2.4155,-2.3866,-2.374,-2.3464,-2.3376,-2.3138,-2.3062,-2.3037,-2.2987,-2.2605,-2.2006,-2.1693,-2.1375,-2.0423,-1.9915,-2.0105,-1.9717,-1.9068,-1.8722,-1.8389,-1.775,-1.6718,-1.6247,-1.5939,-1.5654,-1.5391,-1.498,-1.4515,-1.4405,-1.4083,-1.3532,-1.288,-1.2279,-1.2064,-1.2023,-1.1606,-3.0419,-3.0884,-3.1825,-3.2303,-3.2491,-3.2905,-3.3068,-3.3081,-3.3081,-3.3068,-3.3081,-3.3081,-3.3081,-3.3081,-3.3081,-3.3081,-3.3156,-3.3244,-3.3194,-3.3119,-3.3307,-3.3495,-3.3508,-3.3219,-3.3294,-3.3621,-3.3897,-3.4148,-3.4437,-3.46,-3.4487,-3.4123,-3.3671,-3.3458,-3.3432,-3.3144,-3.3081,-3.3068,-3.2905,-3.2704,-3.2453,-3.1725,-3.1085,-3.0696,-3.0432,-2.988,-2.9804,-2.9779,-2.9779,-2.9779,-2.9779,-2.9779,-2.9779,-2.9779,-2.9779,-2.9679,-2.9289,-2.9063,-2.8812,-2.8429,-2.7948,-2.7339,-2.6917,-2.6615,-2.6508,-2.6521,-2.6533,-2.6533,-2.6521,-2.6521,-2.6521,-2.6521,-2.6496,-2.6307,-2.6198,-2.5917,-2.5636,-2.5372,-2.5149,-2.4732,-2.4393,-2.4067,-2.3766,-2.3452,-2.3226,-2.3125,-2.3113,-2.3027,-2.2713,-2.2283,-2.194,-2.1399,-1.9971,-1.9503,-1.9925,-1.9749,-1.8988,-1.8362,-1.7973,-1.7266,-1.6635,-1.64,-1.6094,-1.5674,-1.5322,-1.5068,-1.4657,-1.412,-1.371,-1.3349,-1.2698,-1.2074,-1.1816,-1.1768,-1.1267,-2.9967,-3.0344,-3.1148,-3.1788,-3.2177,-3.2303,-3.2591,-3.2968,-3.2805,-3.2842,-3.3056,-3.3081,-3.3081,-3.3081,-3.3081,-3.3081,-3.3081,-3.3081,-3.3106,-3.3093,-3.3106,-3.3257,-3.3282,-3.3257,-3.3244,-3.3533,-3.411,-3.4487,-3.4675,-3.4977,-3.4839,-3.4211,-3.3721,-3.3395,-3.3357,-3.3244,-3.3081,-3.3081,-3.3081,-3.3081,-3.3018,-3.2265,-3.1424,-3.1009,-3.0532,-3.0043,-2.9817,-2.9779,-2.9779,-2.9779,-2.9779,-2.9779,-2.9779,-2.9779,-2.9779,-2.9716,-2.949,-2.9202,-2.8975,-2.8758,-2.835,-2.7814,-2.7675,-2.7561,-2.6904,-2.6879,-2.6666,-2.664,-2.6546,-2.6521,-2.6521,-2.6521,-2.6521,-2.6408,-2.6345,-2.6219,-2.6076,-2.595,-2.5624,-2.5259,-2.4833,-2.433,-2.3954,-2.3414,-2.3213,-2.3078,-2.3078,-2.3005,-2.2702,-2.2025,-2.1872,-2.1412,-1.9857,-1.9594,-2.0205,-1.966,-1.8699,-1.8102,-1.7691,-1.746,-1.7135,-1.6674,-1.6279,-1.6006,-1.5742,-1.5488,-1.5003,-1.4264,-1.3623,-1.3186,-1.2504,-1.1795,-1.1644,-1.1466,-1.1039,-2.9792,-2.9867,-3.0407,-3.1135,-3.1876,-3.1599,-3.1938,-3.2641,-3.234,-3.2441,-3.2867,-3.2918,-3.298,-3.3068,-3.3081,-3.3081,-3.3081,-3.3081,-3.3081,-3.3081,-3.3081,-3.3294,-3.3294,-3.3169,-3.3169,-3.3458,-3.4022,-3.4311,-3.4525,-3.4763,-3.4763,-3.4537,-3.4173,-3.3771,-3.3646,-3.3395,-3.3081,-3.3081,-3.3081,-3.3081,-3.2855,-3.2516,-3.17,-3.1072,-3.0595,-3.0331,-2.9967,-2.9779,-2.9779,-2.9779,-2.9779,-2.9779,-2.9779,-2.9779,-2.9779,-2.9741,-2.9729,-2.9453,-2.9202,-2.9202,-2.8823,-2.8571,-2.8619,-2.829,-2.7578,-2.7168,-2.6954,-2.6703,-2.6527,-2.6521,-2.6521,-2.6521,-2.6521,-2.6521,-2.6427,-2.6402,-2.6389,-2.6389,-2.6076,-2.5711,-2.5181,-2.4578,-2.4117,-2.3566,-2.3131,-2.3044,-2.2921,-2.2823,-2.2506,-2.1474,-2.0771,-2.047,-1.9609,-1.9717,-2.0233,-1.948,-1.8322,-1.8328,-1.7971,-1.7835,-1.7566,-1.712,-1.6738,-1.6553,-1.6289,-1.5898,-1.525,-1.4433,-1.3859,-1.3244,-1.2065,-1.1389,-1.1503,-1.1272,-1.0836,-2.9779,-2.9829,-3.0382,-3.0758,-3.0972,-3.1235,-3.1524,-3.1675,-3.1637,-3.1863,-3.2265,-3.2416,-3.2591,-3.3068,-3.3081,-3.3081,-3.3081,-3.3081,-3.3081,-3.3081,-3.3081,-3.3357,-3.3432,-3.3181,-3.3106,-3.3382,-3.3746,-3.3985,-3.411,-3.4198,-3.4186,-3.4022,-3.3533,-3.3282,-3.3244,-3.3081,-3.3081,-3.3081,-3.3081,-3.3081,-3.293,-3.2528,-3.1926,-3.1348,-3.0834,-3.0344,-2.9955,-2.9804,-2.9779,-2.9779,-2.9779,-2.9779,-2.9779,-2.9779,-2.9779,-2.9779,-2.9779,-2.9641,-2.9504,-2.9315,-2.8888,-2.8812,-2.8735,-2.8467,-2.783,-2.7406,-2.7105,-2.6678,-2.6596,-2.6533,-2.6521,-2.6521,-2.6521,-2.6521,-2.6508,-2.6508,-2.6427,-2.6427,-2.6302,-2.5809,-2.5228,-2.4801,-2.4526,-2.3712,-2.2582,-2.2486,-2.2291,-2.2181,-2.1526,-2.0669,-1.9886,-1.9523,-1.922,-1.9193,-1.9344,-1.8936,-1.8148,-1.8247,-1.817,-1.7925,-1.7681,-1.7448,-1.7168,-1.7031,-1.6611,-1.6162,-1.5476,-1.4821,-1.4105,-1.3339,-1.1745,-1.0927,-1.1155,-1.1155,-1.0744]},{"header":{"parameterUnit":"m.s-1","parameterCategory":1,"la1":31.0,"la2":29.5877,"lo1":-88.7671,"lo2":-86.6584,"dy":0.0162,"dx":0.0185,"nx":115,"ny":88,"refTime":"2023-10-27T06:00:00:Z","depth":0,"parameterNumber":3,"parameterNumberName":"V-component_of_WINDS"},"data":[0.0,0.0,0.0,0.0,0.0,0.0,0.0,0.0,0.0,0.0,0.0,0.0,0.0,0.0,0.0,0.0,0.0,0.0,0.0,0.0,0.0,0.0,0.0,0.0,0.0,0.0,0.0,0.0,0.0,0.0,0.0,0.0,0.0,0.0,0.0,0.0,0.0,0.0,0.0,0.0,0.0,0.0,0.0,0.0,0.0,0.0,0.0,0.0,0.0,0.0,0.0,0.0,0.0,0.0,0.0,0.0,0.0,0.0,0.0,0.0,0.0,0.0,0.0,0.0,0.0,0.0,0.0,0.0,0.0,0.0,0.0,0.0,0.0,0.0,0.0,0.0,0.0,0.0,0.0,0.0,0.0,0.0,0.0,0.0,0.0,0.0,0.0,0.0,0.0,0.0,0.0,0.0,0.0,0.0,0.0,0.0,0.0,0.0,0.0,0.0,0.0,0.0,0.0,0.0,0.0,0.0,0.0,0.0,0.0,0.0,0.0,0.0,0.0,0.0,0.0,0.0,0.0,0.0,0.0,0.0,0.0,0.0,0.0,0.0,0.0,0.0,0.0,0.0,0.0,0.0,0.0,0.0,0.0,0.0,0.0,0.0,0.0,0.0,0.0,0.0,0.0,0.0,0.0,0.0,0.0,0.0,0.0,0.0,0.0,0.0,0.0,0.0,0.0,0.0,0.0,0.0,0.0,0.0,0.0,0.0,0.0,0.0,0.0,0.0,0.0,0.0,0.0,0.0,0.0,0.0,0.0,0.0,0.0,0.0,0.0,0.0,0.0,0.0,0.0,0.0,0.0,0.0,0.0,0.0,0.0,0.0,0.0,0.0,0.0,0.0,0.0,0.0,0.0,0.0,0.0,0.0,0.0,0.0,0.0,0.0,0.0,0.0,0.0,0.0,0.0,0.0,0.0,0.0,0.0,0.0,0.0,0.0,0.0,0.0,0.0,0.0,0.0,0.0,0.0,0.0,0.0,0.0,0.0,0.0,0.0,0.0,0.0,0.0,0.0,0.0,0.0,0.0,0.0,0.0,0.0,0.0,0.0,0.0,0.0,0.0,0.0,0.0,0.0,0.0,0.0,0.0,0.0,0.0,0.0,0.0,0.0,0.0,0.0,0.0,0.0,0.0,0.0,0.0,0.0,0.0,0.0,0.0,0.0,0.0,0.0,0.0,0.0,0.0,0.0,0.0,0.0,0.0,0.0,0.0,0.0,0.0,0.0,0.0,0.0,0.0,0.0,0.0,0.0,0.0,0.0,0.0,0.0,0.0,0.0,0.0,0.0,0.0,0.0,0.0,0.0,0.0,0.0,0.0,0.0,0.0,0.0,0.0,0.0,0.0,0.0,0.0,0.0,0.0,0.0,0.0,0.0,0.0,0.0,0.0,0.0,0.0,0.0,0.0,0.0,0.0,0.0,0.0,0.0,0.0,0.0,0.0,0.0,0.0,0.0,0.0,0.0,0.0,0.0,0.0,0.0,0.0,0.0,0.0,0.0,0.0,0.0,0.0,0.0,0.0,0.0,0.0,0.0,0.0,0.0,0.0,0.0,0.0,0.0,0.0,0.0,0.0,0.0,0.0,0.0,0.0,0.0,0.0,0.0,0.0,0.0,0.0,0.0,0.0,0.0,0.0,0.0,0.0,0.0,0.0,0.0,0.0,0.0,0.0,0.0,0.0,0.0,0.0,0.0,0.0,0.0,0.0,0.0,0.0,0.0,0.0,0.0,0.0,0.0,0.0,0.0,0.0,0.0,0.0,0.0,0.0,0.0,0.0,0.0,0.0,0.0,0.0,0.0,0.0,0.0,0.0,0.0,0.0,0.0,0.0,0.0,0.0,0.0,0.0,0.0,0.0,0.0,0.0,0.0,0.0,0.0,0.0,0.0,0.0,0.0,0.0,0.0,0.0,0.0,0.0,0.0,0.0,0.0,0.0,0.0,0.0,0.0,0.0,0.0,0.0,0.0,0.0,0.0,0.0,0.0,0.0,0.0,0.0,0.0,0.0,0.0,0.0,0.0,0.0,0.0,0.0,0.0,0.0,0.0,0.0,0.0,0.0,0.0,0.0,0.0,0.0,0.0,0.0,0.0,0.0,0.0,0.0,0.0,0.0,0.0,0.0,0.0,0.0,0.0,0.0,0.0,0.0,0.0,0.0,0.0,0.0,0.0,0.0,0.0,0.0,0.0,0.0,0.0,0.0,0.0,0.0,0.0,0.0,0.0,0.0,0.0,0.0,0.0,0.0,0.0,0.0,0.0,0.0,0.0,0.0,0.0,0.0,0.0,0.0,0.0,0.0,0.0,0.0,0.0,0.0,0.0,0.0,0.0,0.0,0.0,0.0,0.0,0.0,0.0,0.0,0.0,0.0,0.0,0.0,0.0,0.0,0.0,0.0,0.0,0.0,0.0,0.0,0.0,0.0,0.0,0.0,0.0,0.0,0.0,0.0,0.0,0.0,0.0,0.0,0.0,0.0,0.0,0.0,0.0,0.0,0.0,0.0,0.0,0.0,0.0,0.0,0.0,0.0,0.0,0.0,0.0,0.0,0.0,0.0,0.0,0.0,0.0,0.0,0.0,0.0,0.0,0.0,0.0,0.0,0.0,0.0,0.0,0.0,0.0,0.0,0.0,0.0,0.0,0.0,0.0,0.0,0.0,0.0,0.0,0.0,0.0,0.0,0.0,0.0,0.0,0.0,0.0,0.0,0.0,0.0,0.0,0.0,0.0,0.0,0.0,0.0,0.0,0.0,0.0,0.0,0.0,0.0,0.0,0.0,0.0,0.0,0.0,0.0,0.0,0.0,0.0,0.0,0.0,0.0,0.0,0.0,0.0,0.0,0.0,0.0,0.0,0.0,0.0,0.0,0.0,0.0,0.0,0.0,0.0,0.0,0.0,0.0,0.0,0.0,0.0,0.0,0.0,0.0,0.0,0.0,0.0,0.0,0.0,0.0,0.0,0.0,0.0,0.0,0.0,0.0,0.0,0.0,0.0,0.0,0.0,0.0,0.0,0.0,0.0,0.0,0.0,0.0,0.0,0.0,0.0,0.0,0.0,0.0,0.0,0.0,0.0,0.0,0.0,0.0,0.0,0.0,0.0,0.0,0.0,0.0,0.0,0.0,0.0,0.0,0.0,0.0,0.0,0.0,0.0,0.0,0.0,0.0,0.0,0.0,0.0,0.0,0.0,0.0,0.0,0.0,0.0,0.0,0.0,0.0,0.0,0.0,0.0,0.0,0.0,0.0,0.0,0.0,0.0,0.0,0.0,0.0,0.0,0.0,0.0,0.0,0.0,0.0,0.0,0.0,0.0,0.0,0.0,0.0,0.0,0.0,0.0,0.0,0.0,0.0,0.0,0.0,0.0,0.0,0.0,0.0,0.0,0.0,0.0,0.0,0.0,0.0,0.0,0.0,0.0,0.0,0.0,0.0,0.0,0.0,0.0,0.0,0.0,0.0,0.0,0.0,0.0,0.0,0.0,0.0,0.0,0.0,0.0,0.0,0.0,0.0,0.0,0.0,0.0,0.0,0.0,0.0,0.0,0.0,0.0,0.0,0.0,0.0,0.0,0.0,0.0,0.0,0.0,0.0,0.0,0.0,0.0,0.0,0.0,0.0,0.0,0.0,0.0,0.0,0.0,0.0,0.0,0.0,0.0,0.0,0.0,0.0,0.0,0.0,0.0,0.0,0.0,0.0,0.0,0.0,0.0,0.0,0.0,0.0,0.0,0.0,0.0,0.0,0.0,0.0,0.0,0.0,0.0,0.0,0.0,0.0,0.0,0.0,0.0,0.0,0.0,0.0,0.0,0.0,0.0,0.0,0.0,0.0,0.0,0.0,0.0,0.0,0.0,0.0,0.0,0.0,0.0,0.0,0.0,0.0,0.0,0.0,0.0,0.0,0.0,0.0,0.0,0.0,0.0,0.0,0.0,0.0,0.0,0.0,0.0,0.0,0.0,0.0,0.0,0.0,0.0,0.0,0.0,0.0,0.0,0.0,0.0,0.0,0.0,0.0,0.0,0.0,0.0,0.0,0.0,0.0,0.0,0.0,0.0,0.0,0.0,0.0,0.0,0.0,0.0,0.0,0.0,0.0,0.0,0.0,0.0,0.0,0.0,0.0,0.0,0.0,0.0,0.0,0.0,0.0,0.0,0.0,0.0,0.0,0.0,0.0,0.0,0.0,0.0,0.0,0.0,0.0,0.0,0.0,0.0,0.0,0.0,0.0,0.0,0.0,0.0,0.0,0.0,0.0,0.0,0.0,0.0,0.0,-0.0967,0.0,0.0,0.0,0.0,0.0,0.0,0.0,0.0,0.0,0.0,0.0,0.0,0.0,0.0,0.0,0.0,0.0,0.0,0.0,0.0,0.0,0.0,0.0,0.0,0.0,0.0,0.0,0.0,0.0,0.0,0.0,0.0,0.0,0.0,0.0,0.0,0.0,0.0,0.0,0.0,0.0,0.0,0.0,0.0,0.0,0.0,0.0,0.0,0.0,0.0,0.0,0.0,0.0,0.0,0.0,0.0,0.0,0.0,0.0,0.0,0.0,0.0,0.0,0.0,0.0,0.0,0.0,0.0,0.0,0.0,0.0,0.0,0.0,0.0,0.0,0.0,0.0,0.0,0.0,0.0,0.0,0.0,0.0,0.0,0.0,0.0,0.0,0.0,0.0,0.0,0.0,0.0,0.0,0.0,0.0,0.0,0.0,0.0,0.0,0.0,0.0,0.0,0.0,0.0,0.0,0.0,0.0,0.0,0.0,0.0,-0.1015,-0.1081,-0.035,0.0035,-0.0035,0.0,0.0,0.0,0.0,0.0,0.0,0.0,0.0,0.0,0.0,0.0,0.0,0.0,0.0,0.0,0.0,0.0,0.0,0.0,0.0,0.0,0.0,0.0,0.0,0.0,0.0,0.0,0.0,0.0,0.0,0.0,0.0,0.0,0.0,0.0,0.0,0.0,0.0,0.0,0.0,0.0,0.0,0.0,0.0,0.0,0.0,0.0,0.0,0.0,0.0,0.0,0.0,0.0,0.0,0.0,0.0,0.0,0.0,0.0,0.0,0.0,0.0,0.0,0.0,0.0,0.0,0.0,0.0,0.0,0.0,0.0,0.0,0.0,0.0,0.0,0.0,0.0,0.0,0.0,0.0,0.0,0.0,0.0,0.0,0.0,0.0,0.0,0.0,0.0,0.0,0.0,0.0,0.0,0.0,0.0,0.0,0.0,0.0,0.0,0.0,0.0,0.0,0.0,0.0,0.0,0.0,0.0,0.0,0.0,0.0,0.0,0.0,0.0534,0.094,0.096,0.0,0.0,0.0,0.0,0.0,0.0,0.0,0.0,0.0,0.0,0.0,0.0,0.0,0.0,0.0,0.0,0.0,0.0,0.0,0.0,0.0,0.0,0.0,0.0,0.0,0.0,0.0,0.0,0.0,0.0,0.0,0.0,0.0,0.0,0.0,0.0,0.0,0.0,0.0,0.0,0.0,0.0,0.0,0.0,0.0,0.0,0.0,0.0,0.0,0.0,0.0,0.0,0.0,0.0,0.0,0.0,0.0,0.0,0.0,0.0,0.0,0.0,0.0,0.0,0.0,0.0,0.0,0.0,0.0,0.0,0.0,0.0,0.0,0.0,0.0,0.0,0.0,0.0,0.0,0.0,0.0,0.0,0.0,0.0,0.0,0.0,0.0,0.0,0.0,0.0,0.0,0.0,0.0,0.0,0.0,0.0,0.0,0.0,0.0,0.0,0.0,0.0,0.0,0.0,0.0,0.0,0.0,0.0,0.0,0.0,0.1205,0.1368,0.1485,0.0,0.1673,0.0,0.0,0.0,0.0,0.0,0.0,0.0,0.0,0.0,0.0,0.0,0.0,0.0,0.0,0.0,0.0,0.0,0.0,0.0,0.0,0.0,0.0,0.0,0.0,0.0,0.0,0.0,0.0,0.0,0.0,0.0,0.0,0.0,0.0,0.0,0.0,0.0,0.0,0.0,0.0,0.0,0.0,0.0,0.0,0.0,0.0,0.0,0.0,0.0,0.0,0.0,0.0,0.0,0.0,0.0,0.0,0.0,0.0,0.0,0.0,0.0,0.0,0.0,0.0,0.0,0.0,0.0,0.0,0.0,0.0,0.0,0.0,0.0,0.0,0.0,0.0,0.0,0.0,0.0,0.0,0.0,0.0,0.0,0.0,0.0,0.0,0.0,0.0,0.0,0.0,0.0,0.0,0.0,0.0,0.0,0.0,0.0,0.0,0.0,0.0,0.0,0.0,0.0,0.0,0.0,0.0,0.0,0.0,0.0,0.0,0.1504,0.1599,0.185,0.2052,0.0,0.0,0.0,0.0,0.0,0.0,0.0,0.0,0.0,0.0,0.0,0.0,0.0,0.0,0.0,0.0,0.0,0.0,0.0,0.0,0.0,0.0,0.0,0.0,0.0,0.0,0.0,0.0,0.0,0.0,0.0,0.0,0.0,0.0,0.0,0.0,0.0,0.0,0.0,0.0,0.0,0.0,0.0,0.0,0.0,0.0,0.0,0.0,0.0,0.0,0.0,0.0,0.0,0.0,0.0,0.0,0.0,0.0,0.0,0.0,0.0,0.0,0.0,0.0,0.0,0.0,0.0,0.0,0.0,0.0,0.0,0.0,0.0,0.0,0.0,0.0,0.0,0.0,0.0,0.0,0.0,0.0,0.0,0.0,0.0,0.0,0.0,0.0,0.0,0.0,0.0,0.0,0.0,0.0,0.0,0.0,0.0,0.0,0.0,0.0,0.0,0.0,0.0,0.0,0.0,0.0,0.0,0.0,0.0,0.0,0.1898,0.1972,0.2041,0.2294,0.2525,0.2667,0.0,0.0,0.0,0.0,0.0,0.0,0.0,0.0,0.0,0.0,0.0,0.0,0.0,0.0,0.0,0.0,0.0,0.0,0.0,0.0,0.0,0.0,0.0,0.0,0.0,0.0,0.0,0.0,0.0,0.0,0.0,0.0,0.0,0.0,0.0,0.0,0.0,0.0,0.0,0.0,0.0,0.0,0.0,0.0,0.0,0.0,0.0,0.0,0.0,0.0,0.0,0.0,0.0,0.0,0.0,0.0,0.0,0.0,0.0,0.0,0.0,0.0,0.0,0.0,0.0,0.0,0.0,0.0,0.0,0.0,0.0,0.0,0.0,0.0,0.0,0.0,0.0,0.0,0.0,0.0,0.0,0.0,0.0,0.0,0.0,0.0,0.0,0.0,0.0,0.0,0.0,0.0,0.0,0.0,0.0,0.0,0.0,0.0,0.0,0.0,0.0,0.0,0.0,0.0,0.0,0.0,0.0,0.0,0.2962,0.287,0.2907,0.3026,0.3072,0.3078,0.0,0.0,0.0,0.0,0.0,0.0,0.0,0.0,0.0,0.0,0.0,0.0,0.0,0.0,0.0,0.0,0.0,0.0,0.0,0.0,0.0,0.0,0.0,0.0,0.0,0.0,0.0,0.0,0.0,0.0,0.0,0.0,0.0,0.0,0.0,0.0,0.0,0.0,0.0,0.0,0.0,0.0,0.0,0.0,0.0,0.0,0.0,0.0,0.0,0.0,0.0,0.0,0.0,0.0,0.0,0.0,0.0,0.0,0.0,0.0,0.0,0.0,0.0,0.0,0.0,0.0,0.0,0.0,0.0,0.0,0.0,0.0,0.0,0.0,0.0,0.0,0.0,0.0,0.0,0.0,0.0,0.0,0.0,0.0,0.0,0.0,0.0,0.0,0.0,0.0,0.0,0.0,0.0,0.0,0.0,0.0,0.0,0.0,0.0,0.0,0.0,0.0,0.0,0.0,0.0,0.0,0.0,0.0,0.0,0.2835,0.2883,0.3025,0.3209,0.3086,0.3035,0.0,0.0,0.0,0.0,0.0,0.0,0.0,0.0,0.0,0.0,0.0,0.0,0.0,0.0,0.0,0.0,0.0,0.0,0.0,0.0,0.0,0.0,0.0,0.0,0.0,0.0,0.0,0.0,0.0,0.0,0.0,0.0,0.0,0.0,0.0,0.0,0.0,0.0,0.0,0.0,0.0,0.0,0.0,0.0,0.0,0.0,0.0,0.0,0.0,0.0,0.0,0.0,0.0,0.0,0.0,0.0,0.0,0.0,0.0,0.0,0.0,0.0,0.0,0.0,0.0,0.0,0.0,0.0,0.0,0.0,0.0,0.0,0.0,0.0,0.0,0.0,0.0,0.0,0.0,0.0,0.0,0.0,0.0,0.0,0.0,0.0,0.0,0.0,0.0,0.0,0.0,0.0,0.0,0.0,0.0,0.0,0.0,0.0,0.0,0.0,0.0,0.0,0.0,0.0,0.0,0.0,0.0,0.0,0.0,0.2992,0.0,0.3224,0.3381,0.3339,0.3378,0.0,0.0,0.0,0.0,0.0,0.0,0.0,0.0,0.0,0.0,0.0,0.0,0.0,0.0,0.0,0.0,0.0,0.0,0.0,0.0,0.0,0.0,0.0,0.0,0.0,0.0,0.0,0.0,0.0,0.0,0.0,0.0,0.0,0.0,0.0,0.0,0.0,0.0,0.0,0.0,0.0,0.0,0.0,0.0,0.0,0.0,0.0,0.0,0.0,0.0,0.0,0.0,0.0,0.0,0.0,0.0,0.0,0.0,0.0,0.0,0.0,0.0,0.0,0.0,0.0,0.0,0.0,0.0,0.0,0.0,0.0,0.0,0.0,0.0,0.0,0.0,0.0,0.0,0.0,0.0,0.0,0.0,0.0,0.0,0.0,0.0,0.0,0.0,0.0,0.0,0.0,0.0,0.0,0.0,0.0,0.0,0.0,0.0,0.0,0.0,0.0,0.0,0.0,0.0,0.0,0.0,0.0,0.0,0.3382,0.3593,0.357,0.3543,0.3583,0.3925,0.4108,0.0,0.0,0.0,0.0,0.0,0.0,0.0,0.0,0.0,0.0,0.0,0.0,0.0,0.0,0.0,0.0,0.0,0.0,0.0,0.0,0.0,0.0,0.0,0.0,0.0,0.0,0.0,0.0,0.0,0.0,0.0,0.0,0.0,0.0,0.0,0.0,0.0,0.0,0.0,0.0,0.0,0.0,0.0,0.0,0.0,0.0,0.0,0.0,0.0,0.0,0.0,0.0,0.0,0.0,0.0,0.0,0.0,0.0,0.0,0.0,0.0,0.0,0.0,0.0,0.0,0.0,0.0,0.0,0.0,0.0,0.0,0.0,0.0,0.0,0.0,0.0,0.0,0.0,0.0,0.0,0.0,0.0,0.0,0.0,0.0,0.0,0.0,0.0,0.0,0.0,0.0,0.0,0.0,0.0,0.0,0.0,0.0,0.0,0.0,0.0,0.0,0.0,0.0,0.0,0.0,0.0,0.0,0.0,0.0,0.3856,0.3289,0.3236,0.3709,0.3651,0.3647,0.0,0.0,0.0,0.0,0.0,0.0,0.0,0.0,0.0,0.0,0.0,0.0,0.0,0.0,0.0,0.0,0.0,0.0,0.0,0.0,0.0,0.0,0.0,0.0,0.0,0.0,0.0,0.0,0.0,0.0,0.0,0.0,0.0,0.0,0.0,0.0,0.0,0.0,0.0,0.0,0.0,0.0,0.0,0.0,0.0,0.0,0.0,0.0,0.0,0.0,0.0,0.0,0.0,0.0,0.0,0.0,0.0,0.0,0.0,0.0,0.0,0.0,0.0,0.0,0.0,0.0,0.0,0.0,0.0,0.0,0.0,0.0,0.0,0.0,0.0,0.0,0.0,0.0,0.0,0.0,0.0,0.0,0.0,0.0,0.0,0.0,0.0,0.0,0.0,0.0,0.0,0.0,0.0,0.0,0.0,0.0,0.0,0.0,0.0,0.0,0.0,0.0,0.0,0.0,0.0,0.0,0.0,0.0,0.0,0.4615,0.3827,0.3648,0.4075,0.4058,0.4179,0.4504,0.0,0.0,0.0,0.0,0.0,0.0,0.0,0.0,0.0,0.0,0.0,0.0,0.0,0.0,0.0,0.0,0.0,0.0,0.0,0.0,0.0,0.0,0.0,0.0,0.0,0.0,0.0,0.0,0.0,0.0,0.0,0.0,0.0,0.0,0.0,0.0,0.0,0.0,0.0,0.0,0.0,0.0,0.0,0.0,0.0,0.0,0.0,0.0,0.0,0.0,0.0,0.0,0.0,0.0,0.0,0.0,0.0,0.0,0.0,0.0,0.0,0.0,0.0,0.0,0.0,0.0,0.0,0.0,0.0,0.0,0.0,0.0,0.0,0.0,0.0,0.0,0.0,0.0,0.0,0.0,0.0,0.0,0.0,0.0,0.0,0.0,0.0,0.0,0.0,0.0,0.0,0.0,0.0,0.0,0.0,0.0,0.0,0.0,0.0,0.0,0.0,0.0,0.0,0.0,0.0,0.0,0.0,0.0,0.5711,0.5012,0.4669,0.466,0.5017,0.5392,0.0,0.0,0.0,0.0,0.0,0.0,0.0,0.0,0.0,0.0,0.0,0.0,0.0,0.0,0.0,0.0,0.0,0.0,0.0,0.0,0.0,0.0,0.0,0.0,0.0,0.0,0.0,0.0,0.0,0.0,0.0,0.0,0.0,0.0,0.0,0.0,0.0,0.0,0.0,0.0,0.0,0.0,0.0,0.0,0.0,0.0,0.0,0.0,0.0,0.0,0.0,0.0,0.0,0.0,0.0,0.0,0.0,0.0,0.0,0.0,0.0,0.0,0.0,0.0,0.0,0.0,0.0,0.0,0.0,0.0,0.0,0.0,0.0,0.0,0.0,0.0,0.0,0.0,0.0,0.0,0.0,0.0,0.0,0.0,0.0,0.0,0.0,0.0,0.0,0.0,0.0,0.0,0.0,0.0,0.0,0.0,0.0,0.0,0.0,0.0,0.0,0.0,0.0,0.0,0.0,0.0,0.0,0.0,0.0,0.5671,0.5503,0.5321,0.512,0.49,0.4979,0.0,0.0,0.0,0.0,0.0,0.0,0.0,0.0,0.0,0.0,0.0,0.0,0.0,0.0,0.0,0.0,0.0,0.0,0.0,0.0,0.0,0.0,0.0,0.0,0.0,0.0,0.0,0.0,0.0,0.0,0.0,0.0,0.0,0.0,0.0,0.0,0.0,0.0,0.0,0.0,0.0,0.0,0.0,0.0,0.0,0.0,0.0,0.0,0.0,0.0,0.0,0.0,0.0,0.0,0.0,0.0,0.0,0.0,0.0,0.0,0.0,0.0,0.0,0.0,0.0,0.0,0.0,0.0,0.0,0.0,0.0,0.0,0.0,0.0,0.0,0.0,0.0,0.0,0.0,0.0,0.0,0.0,0.0,0.0,0.0,0.0,0.0,0.0,0.0,0.0,0.0,0.0,0.0,0.0,0.0,0.0,0.0,0.0,0.0,0.0,0.0,0.0,0.0,0.0,0.0,0.0,0.0,0.0,0.5852,0.5905,0.6019,0.6018,0.5875,0.5495,0.5435,0.0,0.0,0.0,0.0,0.0,0.0,0.0,0.0,0.0,0.0,0.0,0.0,0.0,0.0,0.0,0.0,0.0,0.0,0.0,0.0,0.0,0.0,0.0,0.0,0.0,0.0,0.0,0.0,0.0,0.0,0.0,0.0,0.0,0.0,0.0,0.0,0.0,0.0,0.0,0.0,0.0,0.0,0.0,0.0,0.0,0.0,0.0,0.0,0.0,0.0,0.0,0.0,0.0,0.0,0.0,0.0,0.0,0.0,0.0,0.0,0.0,0.0,0.0,0.0,0.0,0.0,0.0,0.0,0.0,0.0,0.0,0.0,0.0,0.0,0.0,0.0,0.0,0.0,0.0,0.0,0.0,0.0,0.0,0.0,0.0,0.0,0.0,0.0,0.0,0.0,0.0,0.0,0.0,0.0,0.0,0.0,0.0,0.0,0.0,0.0,0.0,0.0,0.0,0.0,0.0,0.0,0.0,0.0,0.6353,0.6196,0.6413,0.6573,0.662,0.6364,0.633,0.0,0.0,0.0,0.0,0.0,0.0,0.0,0.0,0.0,0.0,0.0,0.0,0.0,0.0,0.0,0.0,0.0,0.0,0.0,0.0,0.0,0.0,0.0,0.0,0.0,0.0,0.0,0.0,0.0,0.0,0.0,0.0,0.0,0.0,0.0,0.0,0.0,0.0,0.0,0.0,0.0,0.0,0.0,0.0,0.0,0.0,0.0,0.0,0.0,0.0,0.0,0.0,0.0,0.0,0.0,0.0,0.0,0.0,0.0,0.0,0.0,0.0,0.0,0.0,0.0,0.0,0.0,0.0,0.0,0.0,0.0,0.0,0.0,0.0,0.0,0.0,0.0,0.0,0.0,0.0,0.0,0.0,0.0,0.0,0.0,0.0,0.0,0.0,0.0,0.0,0.0,0.0,0.0,0.0,0.0,0.0,0.0,0.0,0.0,0.0,0.0,0.0,0.0,0.0,0.0,0.0,0.0,0.0,0.5786,0.6182,0.625,0.6466,0.6914,0.6426,0.633,0.0,0.0,0.0,0.0,0.0,0.0,0.0,0.0,0.0,0.0,0.0,0.0,0.0,0.0,0.0,0.0,0.0,0.0,0.0,0.0,0.0,0.0,0.0,0.0,0.0,0.0,0.0,0.0,0.0,0.0,0.0,0.0,0.0,0.0,0.0,0.0,0.0,0.0,0.0,0.0,0.0,0.0,0.0,0.0,0.0,0.0,0.0,0.0,-1.1719,0.0,0.0,0.0,0.0,0.0,0.0,0.0,0.0,0.0,0.0,0.0,0.0,0.0,0.0,0.0,0.0,0.0,0.0,0.0,0.0,0.0,0.0,0.0,0.0,0.0,0.0,0.0,0.0,0.0,0.0,0.0,0.0,0.0,0.0,0.0,0.0,0.0,0.0,0.0,0.0,0.0,0.0,0.0,0.0,0.0,0.0,0.0,0.0,0.0,0.0,0.0,0.0,0.0,0.0,0.0,0.0,0.0,0.0,0.0,0.6635,0.7115,0.7071,0.7196,0.7426,0.7211,0.7112,0.0,0.0,0.0,0.0,0.0,0.0,0.0,0.0,0.0,0.0,0.0,0.0,0.0,0.0,0.0,0.0,0.0,0.0,0.0,0.0,0.0,0.0,0.0,0.0,0.0,0.0,0.0,0.0,0.0,0.0,0.0,0.0,0.0,0.0,0.0,0.0,0.0,0.0,0.0,0.0,0.0,0.0,0.0,0.0,0.0,0.0,0.0,0.0,0.0,0.0,0.0,0.0,0.0,0.0,0.0,0.0,0.0,0.0,0.0,0.0,0.0,0.0,0.0,0.0,0.0,0.0,0.0,0.0,0.0,0.0,0.0,0.0,0.0,0.0,0.0,0.0,0.0,0.0,0.0,0.0,0.0,0.0,0.0,0.0,0.0,0.0,0.0,0.0,0.0,0.0,0.0,0.0,0.0,0.0,0.0,0.0,0.0,0.0,0.0,0.0,0.0,0.0,0.0,0.0,0.0,0.0,0.0,0.7406,0.7754,0.8181,0.8043,0.7959,0.8008,0.8008,0.8007,0.8026,0.0,0.0,0.0,0.0,0.0,0.0,0.0,0.0,0.0,0.0,0.0,0.0,0.0,0.0,0.0,0.0,0.0,0.0,0.0,0.0,0.0,0.0,0.0,0.0,0.0,0.0,0.0,0.0,0.0,0.0,0.0,0.0,0.0,0.0,0.0,0.0,0.0,0.0,-0.8679,-0.9962,0.0,0.0,0.0,0.0,0.0,0.0,0.0,0.0,-1.2164,0.0,0.0,0.0,0.0,0.0,0.0,0.0,0.0,0.0,0.0,0.0,0.0,0.0,0.0,0.0,0.0,0.0,0.0,0.0,0.0,0.0,0.0,0.0,0.0,0.0,0.0,0.0,0.0,0.0,0.0,0.0,0.0,0.0,0.0,0.0,0.0,0.0,0.0,0.0,0.0,0.0,0.0,0.0,0.0,0.0,0.0,0.0,0.0,0.0,0.0,0.0,0.0,0.0,0.0,0.0,0.0,0.753,0.7315,0.7507,0.8173,0.7842,0.7752,0.8,0.8008,0.8193,0.8642,0.0,0.0,0.0,0.0,0.0,0.0,0.0,0.0,0.0,0.0,0.0,0.0,0.0,0.0,0.0,0.0,0.0,0.0,0.0,0.0,0.0,0.0,0.0,0.0,0.0,0.0,0.0,0.0,0.0,0.0,0.0,0.0,0.0,0.0,0.0,0.0,0.0,0.0,0.0,-0.8816,-0.9277,0.0,0.0,0.0,0.0,0.0,0.0,0.0,0.0,-1.1801,0.0,0.0,0.0,0.0,0.0,0.0,0.0,0.0,0.0,0.0,0.0,0.0,0.0,0.0,0.0,0.0,0.0,0.0,0.0,0.0,0.0,0.0,0.0,0.0,0.0,0.0,0.0,0.0,0.0,0.0,0.0,0.0,0.0,0.0,0.0,0.0,0.0,0.0,0.0,0.0,0.0,0.0,0.0,0.0,0.0,0.0,0.0,0.0,0.0,0.0,0.0,0.0,0.0,0.0,0.0,0.8613,0.8467,0.8703,0.9269,0.8876,0.8694,0.8828,0.8846,0.8958,0.0,0.0,0.0,0.0,0.0,0.0,0.0,0.0,0.0,0.0,0.0,0.0,0.0,0.0,0.0,0.0,0.0,0.0,0.0,0.0,0.0,0.0,0.0,0.0,0.0,0.0,0.0,0.0,0.0,0.0,0.0,0.0,0.0,0.0,0.0,0.0,0.0,0.0,0.0,0.0,-0.7607,-0.7587,-0.7695,0.0,0.0,0.0,0.0,0.0,0.0,-0.8601,-0.9281,0.0,0.0,0.0,0.0,0.0,0.0,0.0,0.0,0.0,0.0,0.0,0.0,0.0,0.0,0.0,0.0,0.0,0.0,0.0,0.0,0.0,0.0,0.0,0.0,0.0,0.0,0.0,0.0,0.0,0.0,0.0,0.0,0.0,0.0,0.0,0.0,0.0,0.0,0.0,0.0,0.0,0.0,0.0,0.0,0.0,0.0,0.0,0.0,0.0,0.0,0.0,0.0,0.0,0.0,0.0,0.9583,0.9592,0.9844,1.0234,0.9853,0.9592,0.9592,0.9592,0.9592,0.0,0.0,0.0,0.0,0.0,0.0,0.0,0.0,0.0,0.0,0.0,0.0,0.0,0.0,0.0,0.0,0.0,0.0,0.0,0.0,0.0,0.0,0.0,0.0,0.0,0.0,0.0,0.0,0.0,0.0,0.0,0.0,0.0,0.0,0.0,0.0,0.0,0.0,0.0,0.0,0.0,-0.6573,-0.6405,-0.6836,0.0,0.0,0.0,0.0,-0.7816,-0.6708,0.0,0.0,0.0,0.0,0.0,0.0,0.0,0.0,0.0,0.0,0.0,0.0,0.0,0.0,0.0,0.0,0.0,0.0,0.0,0.0,0.0,0.0,0.0,0.0,0.0,0.0,0.0,0.0,0.0,0.0,0.0,0.0,0.0,0.0,0.0,0.0,0.0,0.0,0.0,0.0,0.0,0.0,0.0,0.0,0.0,0.0,0.0,0.0,0.0,0.0,0.0,0.0,0.0,0.0,0.0,0.0,0.9592,0.9592,0.9834,1.0234,0.9863,0.9592,0.9592,0.9592,0.9592,0.0,0.0,0.0,0.0,0.0,0.0,0.0,0.0,0.0,0.0,0.0,0.0,0.0,0.0,0.0,0.0,0.0,0.0,0.0,0.0,0.0,0.0,0.0,0.0,0.0,0.0,0.0,0.0,0.0,0.0,0.0,0.0,0.0,0.0,0.0,0.0,0.0,0.0,0.0,0.0,0.0,-0.7038,-0.6997,-0.6419,-0.5783,0.0,0.0,-0.4716,-0.401,-0.4708,0.0,0.0,0.0,0.0,0.0,0.0,0.0,0.0,0.0,0.0,0.0,0.0,0.0,0.0,0.0,0.0,0.0,0.0,0.0,0.0,0.0,0.0,0.0,0.0,0.0,0.0,0.0,0.0,0.0,0.0,0.0,0.0,0.0,0.0,0.0,0.0,0.0,0.0,0.0,0.0,0.0,0.0,0.0,0.0,0.0,0.0,0.0,0.0,0.0,0.0,0.0,0.0,0.0,0.0,0.0,1.0,1.0,1.001,1.0098,1.0273,1.0098,1.0,1.0,1.0,1.0,0.0,0.0,0.0,0.0,0.0,0.0,0.0,0.0,0.0,0.0,0.0,0.0,0.0,0.0,0.0,0.0,0.0,0.0,0.0,0.0,0.0,0.0,0.0,0.0,0.0,0.0,0.0,0.0,0.0,0.0,0.0,0.0,0.0,0.0,0.0,0.0,0.0,0.0,0.0,0.0,0.0,0.0,-0.4916,-0.4966,0.0,0.0,0.0,-0.352,-0.2691,0.0,0.0,0.0,0.0,0.0,0.0,0.0,0.0,0.0,0.0,0.0,0.0,0.0,0.0,0.0,0.0,0.0,0.0,0.0,0.0,0.0,0.0,0.0,0.0,0.0,0.0,0.0,0.0,0.0,0.0,0.0,0.0,0.0,0.0,0.0,0.0,0.0,0.0,0.0,0.0,0.0,0.0,0.0,0.0,0.0,0.0,0.0,0.0,0.0,0.0,0.0,0.0,0.0,0.0,0.0,0.0,0.0,1.0322,1.0322,1.0322,1.0322,1.0322,1.0322,1.0322,1.0322,0.0,0.0,0.0,0.0,0.0,0.0,0.0,0.0,0.0,0.0,0.0,0.0,0.0,0.0,0.0,0.0,0.0,0.0,0.0,0.0,0.0,0.0,0.0,0.0,0.0,0.0,0.0,0.3585,0.0,0.0,0.0,0.0,0.0,0.0,0.0,0.0,0.0,0.0,0.0,0.0,0.0,0.0,-0.4143,-0.325,-0.359,-0.3522,0.0,0.0,-0.2245,-0.1482,-0.0202,0.0042,0.0,0.0,0.0,0.0,0.0,0.0,0.0,0.0,0.0,0.0,0.0,0.0,0.0,0.0,0.0,0.0,0.0,0.0,0.0,0.0,0.0,0.0,0.0,0.0,0.0,0.0,0.0,0.0,0.0,0.0,0.0,0.0,0.0,0.0,0.0,0.0,0.0,0.0,0.0,0.0,0.0,0.0,0.0,0.0,0.0,0.0,0.0,0.0,0.0,0.0,0.0,0.0,0.0,0.0,1.0725,1.0322,1.0322,1.0322,1.0322,1.0322,1.0322,1.0322,1.0322,1.0322,0.0,0.0,0.0,0.0,0.0,0.0,0.0,0.0,0.0,0.0,0.0,0.0,0.0,0.0,0.0,0.0,0.0,0.0,0.0,0.0,0.0,0.0,0.0,0.0,0.0,0.0,0.0,0.0,0.0,0.0,0.0,0.0,0.0,0.0,0.0,0.0,0.0,0.0,0.0,0.0,0.0,-0.391,-0.3286,-0.2615,-0.1848,0.0,-0.0701,-0.0303,0.0575,0.1704,0.259,0.2933,0.0,0.0,0.0,0.0,0.0,0.0,0.0,0.0,0.0,0.0,0.0,0.0,0.0,0.0,0.0,0.0,0.0,0.0,0.0,0.0,0.0,0.0,0.0,0.0,0.0,0.0,0.0,0.0,0.0,0.0,0.0,0.0,0.0,0.0,0.0,0.0,0.0,0.0,0.0,0.0,0.0,0.0,0.0,0.0,0.0,0.0,0.0,0.0,0.0,0.0,0.0,0.0,0.0,1.0726,1.0322,1.0322,1.0322,1.0322,1.0322,1.0322,1.0322,1.0322,1.0322,0.0,0.0,0.0,0.0,0.0,0.0,0.0,0.0,0.0,0.0,0.0,0.0,0.0,0.0,0.0,0.0,0.0,0.0,0.0,0.0,0.0,0.0,0.0,0.0,0.0,0.0,0.0,0.0,0.5303,0.4355,0.3611,0.0,0.0,0.0,0.0,0.0,0.0,0.0,0.0,0.0,0.0,-0.2132,-0.1817,-0.1261,0.0,0.0,0.0477,0.0708,0.2262,0.259,0.3005,0.3912,0.339,0.0,0.0,0.0,0.0,0.0,0.0,0.0,0.0,0.0,0.0,0.0,0.0,0.0,0.0,0.0,0.0,0.0,0.0,0.0,0.0,0.0,0.0,0.0,0.0,0.0,0.0,0.0,0.0,0.0,0.0,0.0,0.0,0.0,0.0,0.0,0.0,0.0,0.0,0.0,0.0,0.0,0.0,0.0,0.0,0.0,0.0,0.0,0.0,0.0,0.0,0.0,0.0,1.0993,1.0714,1.0449,1.0381,1.0508,1.0391,1.0322,1.0322,1.0322,1.0322,0.0,0.0,0.0,0.0,0.0,0.0,0.0,0.0,0.0,0.0,0.0,0.0,0.0,0.0,0.0,0.0,0.0,0.0,0.0,0.0,0.0,0.0,0.0,0.0,0.0,0.0,0.0,0.0,0.6581,0.5528,0.4353,0.0,0.0,0.0,0.0,0.0,0.0,0.0,0.0,0.0,0.0,-0.0395,-0.0131,0.0169,0.0708,0.1687,0.1428,0.1647,0.3046,0.3382,0.3796,0.4756,0.0,0.0,0.0,0.0,0.0,0.0,0.0,0.0,0.0,0.0,0.0,0.0,0.0,0.0,0.0,0.0,0.0,0.0,0.0,0.0,0.0,0.0,0.0,0.0,0.0,0.0,0.0,1.4916,0.0,0.0,1.4941,0.0,0.0,0.0,0.0,0.0,0.0,0.0,0.0,0.0,0.0,0.0,0.0,0.0,0.0,0.0,0.0,0.0,0.0,0.0,0.0,0.0,0.0,1.1655,1.1547,1.0763,1.0488,1.0859,1.0498,1.0303,1.0322,1.0322,1.0322,1.0361,0.0,0.0,0.0,0.0,0.0,0.0,0.0,0.0,0.0,0.0,0.0,0.0,0.0,0.0,0.0,0.0,0.0,0.0,0.0,0.0,0.0,0.0,0.0,0.0,0.0,0.0,0.845,0.7574,0.6677,0.0,0.0,0.0,0.0,0.0,0.0,0.0,0.0,0.0,0.0752,0.0839,0.1061,0.1647,0.1781,0.1775,0.1873,0.2319,0.2672,0.276,0.416,0.5422,0.0,0.0,0.0,0.0,0.0,0.0,0.0,0.0,0.0,0.0,0.0,0.0,0.0,0.0,0.0,0.0,0.0,0.0,0.0,0.0,0.0,0.0,0.0,0.0,0.0,0.0,0.0,1.5969,1.5969,0.0,0.0,0.0,0.0,0.0,0.0,0.0,0.0,0.0,0.0,0.0,1.6534,1.6534,0.0,0.0,0.0,0.0,0.0,0.0,0.0,0.0,0.0,0.0,0.0,0.0,1.2497,1.2181,1.1524,1.1064,1.0918,1.1096,1.09,1.0342,1.0557,1.0874,1.1303,0.0,0.0,0.0,0.0,0.0,0.0,0.0,0.0,0.0,0.0,0.0,0.0,0.0,0.0,0.0,0.0,0.0,0.0,0.0,0.0,0.0,0.0,0.0,0.0,0.0,0.9193,0.0,0.0,0.0,0.0,0.0,0.0,0.0,0.0,0.0,0.0,0.1777,0.1513,0.1513,0.1868,0.218,0.2361,0.2724,0.3129,0.0,0.0,0.0,0.0,0.0,0.0,0.0,0.0,0.0,0.0,0.0,0.0,0.0,0.0,0.0462,-0.2479,-0.7106,-1.0619,-1.0511,0.0,0.0,0.0,0.0,0.0,0.0,0.0,0.0,0.0,0.0,0.0,0.0,0.0,0.0,1.6534,1.6534,1.6534,0.0,0.0,0.0,0.0,0.0,0.0,0.0,0.0,1.6534,1.6534,1.6479,1.6281,1.6293,0.0,1.6293,1.6194,0.0,0.0,0.0,0.0,0.0,0.0,0.0,0.0,1.2968,1.2621,1.1963,1.1494,1.1377,1.1538,1.1332,1.0793,1.1234,1.1806,1.2582,1.2919,1.3634,0.0,0.0,0.0,0.0,0.0,0.0,0.0,0.0,0.0,0.0,0.0,0.0,0.0,0.0,0.0,0.0,0.0,0.0,0.0,0.0,0.0,0.0,0.0,0.9504,0.0,0.0,0.0,0.0,0.0,0.0,0.0,0.0,0.0,0.3636,0.287,0.241,0.241,0.2765,0.2987,0.3034,0.0,0.0,0.0,0.0,0.0,0.0,0.0,0.6179,0.6179,0.6477,0.6465,0.5749,0.5738,0.5732,0.5363,0.0,0.0,0.0373,-0.3556,-0.6419,-0.6687,-0.6202,-0.5822,-0.6348,-0.78,-0.8996,0.0,0.0,0.0,0.0,0.0,0.0,0.0,0.0,1.6559,1.6572,0.0,1.6547,0.0,0.0,0.0,0.0,1.6534,1.6534,0.0,0.0,1.6534,1.6534,1.6479,1.5908,1.5952,1.6466,1.5908,1.5632,1.5632,1.6182,0.0,0.0,0.0,0.0,0.0,0.0,1.3053,1.2909,1.2086,1.1816,1.2141,1.1816,1.1645,1.166,1.2223,1.299,1.4018,1.4098,1.4602,1.5615,1.5706,0.0,0.0,0.0,0.0,0.0,0.0,0.0,0.0,0.0,0.0,0.0,0.0,0.0,0.0,0.0,0.0,0.0,0.0,0.0,0.0,1.0393,0.0,0.0,0.0,0.0,0.0,0.0,0.0,0.0,0.0,0.6574,0.5176,0.4217,0.3674,0.3633,0.0,0.0,0.0,0.0,0.3851,0.4405,0.446,0.4669,0.5281,0.586,0.6227,0.6227,0.0,0.0,0.6264,0.583,0.5813,0.681,0.6959,0.6465,0.4683,0.3225,0.1397,-0.1768,-0.0411,0.0184,-0.329,-0.4183,-0.4147,1.7315,0.0,0.0,0.0,0.0,1.6961,1.7137,1.7137,1.7137,1.7137,1.7099,1.6685,0.0,0.0,0.0,0.0,0.0,0.0,1.6534,1.6534,1.6534,1.6534,1.6479,1.6324,1.6337,1.6479,1.6337,1.6008,1.5632,1.5776,1.5644,1.5209,0.0,0.0,0.0,0.0,1.3549,1.3484,1.2892,1.2412,1.219,1.2402,1.2566,1.2676,1.2946,1.3465,1.4098,1.4509,1.5045,1.5652,1.607,0.0,0.0,0.0,0.0,0.0,0.0,0.0,0.0,0.0,0.0,0.0,0.0,0.0,0.0,0.0,0.0,0.0,0.0,0.0,1.2139,1.1667,1.1129,0.0,0.0,0.0,0.0,0.0,0.0,0.0,0.0,0.0,0.6811,0.5778,0.4956,0.0,0.0,0.4657,0.422,0.453,0.5029,0.5613,0.5696,0.0,0.6428,0.6664,0.6768,0.6768,0.6768,0.6894,0.737,0.7592,0.7578,0.712,0.7314,0.7168,0.5934,0.5048,0.4268,0.3628,0.2993,0.2288,0.1317,-0.0755,-0.2682,1.9438,1.8141,1.7915,1.7815,1.7865,1.8191,1.8342,1.8329,1.8116,1.8028,1.7978,1.7212,1.6974,1.7174,1.6961,0.0,0.0,0.0,1.6861,1.6861,1.6861,1.6748,1.6479,1.6238,1.6281,1.6479,1.6238,1.5964,1.5576,1.5365,1.5062,1.4709,0.0,1.456,1.4329,1.4236,1.405,1.3815,1.3695,1.3476,1.3207,1.3465,1.3782,1.4061,1.4218,1.4535,1.5045,1.5404,1.5714,1.5978,1.6333,1.6534,0.0,0.0,0.0,0.0,0.0,0.0,0.0,0.0,0.0,0.0,0.0,1.363,1.2816,0.0,0.0,0.0,1.2891,1.2773,1.251,1.1987,0.0,0.0,0.0,0.0,0.0,0.0,0.0,0.885,0.8326,0.8011,0.8005,0.7272,0.6446,0.5542,0.5554,0.549,0.5,0.0,0.565,0.6148,0.6177,0.6398,0.6901,0.6972,0.6972,0.6972,0.6972,0.7105,0.7447,0.7814,0.7848,0.7551,0.7784,0.7941,0.7301,0.6668,0.6343,0.6703,0.553,0.441,0.425,0.2114,0.0248,2.192,2.0941,2.0376,1.9999,1.9811,1.9849,1.9861,1.9823,1.9371,1.9083,1.8958,1.7978,1.7765,1.8166,1.7677,0.0,1.7451,1.7451,1.7458,1.7375,1.7375,1.7074,1.6479,1.5952,1.5964,1.6479,1.5952,1.5632,1.5588,1.5062,1.4744,1.4709,1.4709,1.4422,1.3909,1.4422,1.4422,1.3862,1.4422,1.4709,1.4698,1.4755,1.505,1.5531,1.5632,1.5896,1.6466,1.6522,1.6534,1.6534,1.6534,1.6534,1.6534,0.0,0.0,0.0,0.0,0.0,0.0,0.0,0.0,0.0,0.0,0.0,0.0,0.0,0.0,1.2852,1.2891,0.0,1.2891,1.1742,0.0,0.0,0.0,1.1516,1.0813,1.0771,1.0312,0.9106,0.0,0.0,0.891,0.8629,0.7941,0.6591,0.6379,0.6176,0.5846,0.5855,0.5938,0.6302,0.6306,0.6447,0.6989,0.7005,0.6972,0.6972,0.7021,0.7105,0.7147,0.7238,0.7398,0.7787,0.8316,0.8602,0.8635,0.8064,0.7893,0.7979,0.7369,0.6562,0.5725,0.4886,0.3976,2.4079,2.3778,2.3238,2.1757,1.9849,2.0275,2.0529,2.0451,2.0326,2.0024,1.9572,1.892,1.848,1.8191,1.8066,1.8016,1.8016,1.8003,1.7777,1.7388,1.7375,1.7074,1.6479,1.638,1.638,1.6479,1.638,1.6051,1.5632,1.5454,1.5141,1.4755,1.4709,1.4606,1.4514,1.4652,1.4617,1.4468,1.4606,1.4709,1.4709,1.5141,1.5454,1.5588,1.6051,1.6337,1.6479,1.6534,1.6534,1.6534,1.6534,1.6534,1.6534,1.6534,0.0,0.0,0.0,0.0,0.0,0.0,0.0,0.0,0.0,1.4529,1.4573,0.0,1.2773,0.0,1.2891,1.2891,1.2891,1.2618,0.0,0.0,1.1625,1.1316,1.0167,1.0466,1.0669,1.0364,0.9865,0.9569,0.9562,0.9051,0.8573,0.8223,0.7802,0.7238,0.651,0.6781,0.7084,0.7147,0.6972,0.6937,0.7244,0.7161,0.7021,0.6972,0.7363,0.7663,0.7663,0.8021,0.8234,0.7995,0.7995,0.8077,0.8118,0.8259,0.8659,0.8918,0.7975,0.7176,0.7672,0.6997,0.6091,2.4987,2.5134,2.4833,2.354,2.1669,2.1744,2.1757,2.1744,2.1506,2.1217,2.0891,2.0351,1.9409,1.8267,1.8694,1.8794,1.8581,1.8568,1.8405,1.8129,1.8116,1.7677,1.6911,1.6911,1.676,1.6534,1.6534,1.6324,1.6008,1.572,1.5543,1.5478,1.5242,1.5242,1.5478,1.5242,1.5107,1.5096,1.5377,1.5522,1.5522,1.5832,1.6008,1.6008,1.6337,1.6534,1.6534,1.6534,1.6534,1.6534,1.6534,1.6534,1.6534,1.6534,1.5618,0.0,0.0,0.0,0.0,0.0,0.0,0.0,0.0,0.0,0.0,0.0,1.319,1.2929,1.2891,1.2891,1.2891,1.2891,1.2569,1.1792,1.2089,1.1891,1.0821,1.0948,1.0897,1.0415,1.0131,0.9836,0.9413,0.9061,0.891,0.9211,0.8961,0.8442,0.7602,0.7721,0.7849,0.7718,0.752,0.7422,0.752,0.7584,0.7517,0.7139,0.728,0.7489,0.7496,0.7995,0.8308,0.8275,0.8439,0.8521,0.8316,0.8683,0.911,0.899,0.861,0.8236,0.8269,0.8,0.7479,2.5383,2.5699,2.5624,2.5059,2.4167,2.3527,2.314,2.304,2.2564,2.2385,2.2284,2.1732,2.0426,1.8706,1.9522,1.9673,1.9246,1.9158,1.9046,1.9032,1.9032,1.848,1.7501,1.7488,1.7187,1.6635,1.6635,1.6584,1.6479,1.5964,1.5952,1.6466,1.5952,1.5964,1.6466,1.6008,1.572,1.572,1.6238,1.6534,1.6534,1.6534,1.6534,1.6534,1.6534,1.6534,1.6534,1.6534,1.6534,1.6534,1.6534,1.6534,1.6534,1.6534,1.6534,0.0,1.6534,0.0,0.0,0.0,0.0,0.0,0.0,0.0,0.0,1.3986,1.3484,1.2929,1.2891,1.2891,1.2891,1.2891,1.2881,1.2774,1.2822,1.2608,1.1864,1.1738,1.129,1.032,1.03,1.0051,0.942,0.9106,0.9316,0.9806,0.9784,0.9409,0.8767,0.8564,0.8421,0.8015,0.7977,0.7842,0.7639,0.8033,0.8135,0.7349,0.7391,0.7266,0.7314,0.7739,0.816,0.8602,0.8918,0.9079,0.8837,0.9199,0.9368,0.9079,0.9199,0.9142,0.8537,0.8634,0.8537,2.6252,2.6251,2.5787,2.5485,2.5209,2.4243,2.3565,2.3065,2.3025,2.2736,2.2272,2.1732,2.1267,2.0853,2.0614,2.0451,2.0378,1.9861,1.9422,1.9032,1.9032,1.8681,1.8078,1.8053,1.7765,1.7237,1.7225,1.6974,1.6534,1.638,1.638,1.6479,1.638,1.638,1.6479,0.0,0.0,0.0,1.6436,1.6534,1.6534,1.6534,1.6534,1.6534,1.6534,0.0,1.6534,1.6534,1.6534,1.6534,1.6534,0.0,0.0,0.0,0.0,0.0,0.0,0.0,0.0,0.0,0.0,0.0,1.638,1.6268,1.6025,1.4253,1.303,1.292,1.2891,1.2891,1.2891,1.2891,1.2666,1.2089,1.2559,1.2608,1.1922,1.2286,1.251,1.2363,1.1665,1.124,1.1116,1.0762,1.0466,1.0568,1.0159,0.9732,0.9578,0.9357,0.8969,0.8441,0.8405,0.8118,0.76,0.8047,0.8323,0.7918,0.8504,0.8748,0.8423,0.8431,0.8561,0.8724,0.8439,0.8561,0.9159,0.9448,0.9597,0.9922,0.9707,0.9558,0.9785,0.9873,0.9804,2.6025,2.6414,2.5837,2.5448,0.0,2.4343,2.3665,2.3125,2.3125,2.2824,2.2309,2.2309,2.1995,2.1493,2.1481,2.1179,2.0718,2.0363,2.0075,1.9849,1.9836,1.9535,1.8995,1.8995,1.8568,1.7802,1.779,1.7626,1.735,1.735,1.7212,1.6948,1.6948,1.6798,1.6534,1.6534,1.6534,1.6534,1.6534,1.6534,1.6534,1.6534,1.6534,1.6534,1.6534,0.0,0.0,0.0,0.0,0.0,0.0,0.0,0.0,1.6534,0.0,1.6534,1.6534,1.6534,1.6534,1.6534,1.6534,1.6534,1.6534,1.6244,1.5664,1.3921,1.2905,1.292,1.2891,1.2891,1.2891,1.2891,1.2774,1.2403,1.2666,1.2715,1.2452,1.2666,1.2715,1.2452,1.2274,1.2036,1.1366,1.1015,1.0965,1.1216,1.1032,1.0779,1.0653,0.9773,0.9031,0.9068,0.9559,0.9477,0.8777,0.8909,0.8968,0.8577,0.8756,0.8958,0.8756,0.8918,0.907,0.9079,0.9088,0.9239,0.9408,0.9716,0.9922,0.9894,0.9714,0.9705,1.0176,1.0088,0.9834,2.5734,2.6414,2.595,2.5498,2.5071,2.4506,2.3954,2.3366,2.3265,0.0,0.0,2.3027,2.2736,2.1832,2.2159,2.1807,2.0966,2.0907,2.0869,2.0869,2.0869,2.0552,2.0112,1.9999,1.9434,1.8505,1.8392,1.8292,1.8204,1.8204,1.7978,1.7564,1.7526,1.73,1.6804,1.681,1.681,1.6754,1.6622,1.6534,1.6534,1.6534,1.6534,1.6534,1.6534,1.6534,1.6534,1.6534,1.6534,1.6534,1.6622,1.666,1.6672,1.6672,1.6672,1.666,1.6572,1.6534,1.6534,1.6534,1.6534,1.6534,1.6516,1.6057,1.4937,1.3797,1.3094,1.3045,1.2978,1.2891,1.2891,1.2891,1.2891,1.2891,1.2891,1.2891,1.2891,1.2891,1.2666,1.2197,1.2537,1.2466,1.1451,1.1283,1.1375,1.1823,1.1841,1.1742,1.1466,1.0246,0.9481,0.9915,1.0466,1.069,1.0073,0.9986,0.986,0.9113,0.9018,0.9016,0.9116,0.9385,0.9654,0.9912,1.0141,1.0054,0.9836,1.0058,1.0127,0.9725,0.9772,0.9955,1.0291,1.0176,0.9981,2.6396,2.6521,2.6433,2.637,2.6257,2.5624,2.5071,2.4556,2.4079,2.3841,2.3766,2.3841,2.3527,2.2874,2.2485,2.2221,2.2058,2.1594,2.1368,2.1368,2.1368,2.133,2.123,2.0765,2.0213,1.9585,1.912,1.8668,1.8254,1.8216,1.8166,1.8103,1.8091,1.8041,1.7965,1.7965,1.7965,1.7953,1.7011,1.6534,1.6534,1.6534,1.6534,1.6534,1.6534,1.6534,1.6534,1.6547,1.6534,1.6547,1.6986,1.7262,1.7262,1.7262,1.7262,1.7237,1.6798,1.6534,1.6534,1.6534,1.6534,1.6491,1.6511,1.6203,1.5511,1.4518,1.3875,1.3674,1.3238,1.2891,1.2891,1.2929,1.2891,1.2891,1.2891,1.2891,1.2891,1.2891,1.2832,1.2725,1.2832,1.2861,1.2578,1.252,1.252,1.2618,1.2246,1.1674,1.1216,1.0712,1.0559,1.0661,1.0772,1.0689,1.0513,1.0449,1.0364,0.9953,1.0006,1.0151,1.0403,1.0234,1.0387,1.1108,1.0662,1.0349,1.0536,1.0478,1.0332,1.0196,1.0452,1.0743,1.0885,1.1132,1.1271,2.7356,2.7268,2.6703,2.6697,2.6841,2.5963,2.546,2.5222,2.4971,2.4707,2.4393,2.3803,2.3715,2.3991,2.3477,2.3226,2.3213,2.2975,2.2673,2.2385,2.2385,2.2221,2.1933,2.1681,2.1104,2.0288,2.0037,1.9623,1.912,1.907,1.8932,1.8656,1.8367,1.8204,1.8204,1.8204,1.8204,1.8191,1.7689,1.7438,1.7426,1.7438,1.7426,1.7438,1.7438,1.7426,1.7438,1.7438,1.7438,1.7438,1.7677,1.784,1.7827,1.7827,1.7702,1.74,1.7137,1.6861,1.6534,1.6534,1.6534,1.6534,1.651,1.638,1.6107,1.5254,1.4479,1.3873,1.3505,1.3372,1.3372,1.3113,1.2891,1.2891,1.2891,1.2891,1.2891,1.2891,1.2891,1.2891,1.2891,1.2891,1.2891,1.2891,1.2891,1.2881,1.2559,1.2246,1.195,1.19,1.1792,1.1475,1.149,1.1478,1.1404,1.1241,1.1101,1.0927,1.0977,1.1064,1.124,1.1046,1.1133,1.1431,1.0989,1.0698,1.0867,1.0566,1.0449,1.0629,1.0613,1.0819,1.1296,1.1847,1.1945,2.8109,2.8021,2.718,2.708,2.7394,2.654,2.6101,2.5975,2.585,2.5561,2.5071,2.4117,2.4117,2.4732,2.4368,2.418,2.418,2.4192,2.3941,2.3552,2.3514,2.3226,2.2723,2.256,2.1983,2.1104,2.097,2.0668,2.0213,2.0049,1.9736,1.9208,1.8769,1.8568,1.8581,1.8568,1.8568,1.8555,1.8568,1.8442,1.8216,1.8204,1.8204,1.8204,1.8191,1.8204,1.8204,1.8204,1.8204,1.8216,1.8329,1.838,1.8392,1.8392,1.8204,1.7802,1.7639,1.7313,1.6785,1.6691,1.6691,1.6697,1.6584,1.6473,1.6411,1.5957,1.5131,1.4212,1.3862,1.3768,1.3732,1.3409,1.3104,1.3104,1.3115,1.3066,1.2939,1.2891,1.2891,1.2891,1.2891,1.2891,1.2891,1.2891,1.2891,1.2891,1.2891,1.2891,1.2891,1.2891,1.2618,1.2276,1.2239,1.2339,1.2346,1.1976,1.1768,1.1753,1.1645,1.1616,1.1685,1.1709,1.1797,1.1881,1.1543,1.1217,1.1084,1.0844,1.0792,1.0947,1.1009,1.124,1.1985,1.2389,1.2461,2.8134,2.8109,2.7996,2.7971,2.7996,2.7883,2.7544,2.7067,2.6603,2.6433,2.6214,2.5636,2.5159,2.4845,2.4782,2.4757,2.477,2.4757,2.472,2.4657,2.4669,2.4368,2.3791,2.3301,2.2749,2.2159,2.1681,2.1405,2.1267,2.0815,2.03,1.9786,1.9673,1.9648,1.9648,1.9635,1.9648,1.9648,1.966,1.9183,1.8267,1.8204,1.8204,1.8204,1.8216,1.8204,1.8267,1.8204,1.8216,1.8242,1.8645,1.8908,1.8895,1.8895,1.892,1.8795,1.8392,1.789,1.7375,1.7343,1.733,1.7275,1.6861,1.6554,1.6459,1.6414,1.5913,1.4858,1.4154,1.3909,1.3768,1.3721,1.3684,1.3695,1.3659,1.3537,1.3105,1.2891,1.2891,1.2891,1.2929,1.2891,1.2891,1.2891,1.2891,1.2891,1.2891,1.2891,1.2891,1.2891,1.292,1.2813,1.2813,1.2842,1.2782,1.2451,1.2207,1.2139,1.1836,1.1836,1.2051,1.2187,1.2266,1.2579,1.2378,1.1955,1.1697,1.1509,1.1423,1.134,1.1704,1.2425,1.2931,1.306,1.2908,2.9101,2.9076,2.8737,2.8398,2.816,2.8436,2.8084,2.7306,2.7394,2.7256,2.6979,2.703,2.6603,2.5787,2.5435,2.546,2.5787,2.5799,2.5598,2.5297,2.5285,2.4996,2.4456,2.3904,2.3514,2.3276,2.2736,2.2297,2.1933,2.143,2.1029,2.0778,2.0489,2.0313,2.0275,1.9974,1.9798,1.9798,1.9798,1.9585,1.9208,1.9158,1.9145,1.9145,1.9158,1.9145,1.9145,1.9145,1.9145,1.9158,1.9359,1.9484,1.9484,1.9484,1.9346,1.8983,1.8518,1.8103,1.789,1.7869,1.7857,1.7865,1.7672,1.7508,1.7476,1.7489,1.6999,1.5892,1.5223,1.4858,1.4778,1.4226,1.3909,1.4176,1.4005,1.3817,1.401,1.3618,1.3417,1.3402,1.3104,1.2939,1.2891,1.2891,1.2891,1.2891,1.2939,1.2929,1.2929,1.2891,1.3055,1.3362,1.3423,1.3233,1.3016,1.2754,1.2617,1.2578,1.2471,1.2461,1.2557,1.2617,1.2781,1.3351,1.3052,1.2746,1.2546,1.2309,1.2129,1.1997,1.2278,1.2978,1.3163,1.321,1.3094,2.9779,2.9716,2.9327,2.8938,2.8612,2.8988,2.8624,2.7833,2.816,2.8021,2.7582,2.7934,2.767,2.6917,2.6465,2.6389,2.6477,2.6615,2.6377,2.5875,2.5837,2.5548,2.5021,2.4632,2.4356,2.418,2.3803,2.3314,2.2761,2.2209,2.1945,2.1845,2.1242,2.102,2.1041,2.0552,2.0175,2.0049,2.0037,1.9962,1.9823,1.9798,1.9798,1.9798,1.9798,1.9798,1.9798,1.9798,1.9798,1.9798,1.9798,1.9798,1.9798,1.9798,1.9623,1.9221,1.8869,1.8581,1.8442,1.845,1.8425,1.8442,1.8301,1.8265,1.8346,1.8292,1.7828,1.7046,1.6529,1.6218,1.5511,1.4824,1.4549,1.488,1.4532,1.4417,1.4408,1.4058,1.3772,1.3752,1.342,1.3152,1.3152,1.3152,1.3152,1.2929,1.3065,1.3152,1.3182,1.3329,1.3611,1.3978,1.403,1.3906,1.3464,1.3266,1.319,1.3152,1.313,1.311,1.32,1.3238,1.342,1.3971,1.3697,1.3484,1.3335,1.3106,1.2846,1.2756,1.2926,1.3201,1.321,1.321,1.3123,2.9779,2.9779,2.9754,2.9691,2.9716,2.9716,2.9402,2.8737,2.8863,2.8586,2.8109,2.8147,2.8084,2.8009,2.7946,2.7419,2.6653,2.703,2.6967,2.6502,2.6533,2.6126,2.5586,2.5523,2.5297,2.5008,2.482,2.4456,2.3904,2.3364,2.3002,2.3012,2.2058,2.1769,2.2083,2.1644,2.1142,2.074,2.0706,2.0376,1.9924,1.9849,1.9886,1.9899,1.9823,1.9849,1.9836,1.9823,1.9823,1.9811,1.9836,1.9823,1.9798,1.9798,1.9773,1.9736,1.971,1.9484,1.9046,1.8933,1.8995,1.8909,1.8582,1.843,1.8883,1.8618,1.8257,1.8106,1.7949,1.7387,1.6041,1.5617,1.548,1.5591,1.5545,1.5002,1.4086,1.4075,1.3831,1.3852,1.3815,1.3779,1.3779,1.3779,1.3505,1.3286,1.342,1.3779,1.3821,1.4206,1.4504,1.4593,1.4653,1.4647,1.4563,1.4107,1.3779,1.3779,1.3789,1.3779,1.3967,1.419,1.4422,1.4652,1.4552,1.4418,1.4145,1.3905,1.3626,1.3422,1.3251,1.3323,1.3235,1.321,1.3191,2.9779,2.9779,2.9779,2.9779,2.9779,2.9779,2.9465,2.8976,2.9327,2.9164,2.8775,2.9026,2.8988,2.8637,2.9026,2.8574,2.7582,2.7733,2.7708,2.7519,2.7519,2.7394,2.7193,2.6854,2.6804,2.6816,2.6201,2.5573,2.5008,2.4469,2.4217,2.4104,2.3477,2.3213,2.3213,2.2472,2.1895,2.1694,2.1393,2.1091,2.0878,2.0878,2.0878,2.0853,2.0526,2.0351,2.0363,2.069,2.0727,2.0429,2.0351,2.0175,1.9849,1.9798,1.9798,1.9798,1.9798,1.971,1.9521,1.9508,1.9545,1.9496,1.9343,1.9228,1.9446,1.9334,1.9095,1.8819,1.8731,1.8199,1.7402,1.659,1.6269,1.6585,1.607,1.562,1.5466,1.5209,1.4949,1.488,1.4652,1.4376,1.4376,1.4376,1.4294,1.4118,1.4247,1.4329,1.4387,1.4576,1.4877,1.5164,1.5286,1.5396,1.5828,1.4971,1.4387,1.4376,1.4376,1.4376,1.4514,1.4606,1.4789,1.5186,1.5276,1.5182,1.4904,1.4505,1.4259,1.3865,1.3684,1.3383,1.3261,1.3257,1.3302,2.9779,2.9779,2.9779,2.9779,2.9779,2.9779,2.9578,2.9264,2.9616,2.9566,2.934,2.9628,2.9566,2.9315,2.9616,2.9415,2.8662,2.8473,2.8285,2.8109,2.8109,2.8109,2.8047,2.772,2.7733,2.7946,2.7369,2.6691,2.6138,2.5598,2.5372,2.531,2.4632,2.4356,2.4293,2.3414,2.2786,2.2535,2.202,2.1681,2.1518,2.1481,2.1481,2.1455,2.1292,2.1104,2.1008,2.1292,2.123,2.0819,2.0718,2.0401,1.9886,1.9798,1.9798,1.9798,1.9798,1.9798,1.9798,1.9798,1.9798,1.9798,1.9798,1.9798,1.9798,1.9798,1.961,1.9359,1.9271,1.9083,1.8621,1.781,1.7309,1.736,1.6659,1.6175,1.6175,1.5824,1.5591,1.5522,1.5421,1.5242,1.505,1.5005,1.488,1.4744,1.4835,1.4971,1.4971,1.5197,1.5377,1.582,1.5898,1.6046,1.6225,1.5712,1.5152,1.5062,1.5005,1.4971,1.5017,1.5107,1.5287,1.5688,1.5828,1.5768,1.5538,1.5163,1.4734,1.4262,1.377,1.3405,1.3342,1.3301,1.3462,2.9792,2.9842,2.9804,2.9854,2.9867,2.9867,2.9817,2.9754,2.9767,2.9741,2.9691,2.9779,2.9754,2.9754,2.9767,2.9741,2.9566,2.9139,2.8699,2.8323,2.826,2.8247,2.8247,2.8235,2.816,2.8197,2.8122,2.7783,2.7205,2.6716,2.6465,2.6276,2.5473,2.5247,2.5598,2.4556,2.3715,2.3226,2.2698,2.2133,2.1594,2.1631,2.1656,2.1669,2.202,2.202,2.1568,2.1581,2.1393,2.0865,2.0832,2.0426,1.9987,1.9886,1.9836,1.9811,1.9798,1.9798,1.9798,1.9798,1.9798,1.9798,1.9798,1.9798,1.9798,1.9798,1.9773,1.9736,1.9723,1.971,1.9623,1.9183,1.8471,1.7614,1.731,1.6794,1.6058,1.5688,1.5632,1.572,1.6008,1.6151,1.5776,1.5588,1.5454,1.5152,1.532,1.5588,1.5632,1.592,1.6337,1.6436,1.6355,1.6398,1.6466,1.6436,1.6064,1.5776,1.5632,1.5588,1.5688,1.5776,1.5932,1.625,1.6238,1.6176,1.5923,1.5529,1.5116,1.4639,1.4047,1.3667,1.361,1.3689,1.386,3.0018,3.0344,3.0369,3.0357,3.0357,3.0357,3.0168,2.9804,2.9779,2.9779,2.9779,2.9779,2.9779,2.9779,2.9779,2.9779,2.9767,2.9591,2.9428,2.9264,2.9239,2.9227,2.9227,2.9239,2.9051,2.8737,2.8674,2.8386,2.7908,2.7657,2.7595,2.7444,2.6841,2.6615,2.6628,2.5674,2.4833,2.4293,2.3753,2.3201,2.2686,2.2623,2.2623,2.2648,2.2727,2.2714,2.2636,2.2623,2.2347,2.1807,2.1794,2.138,2.0602,2.0401,2.02,1.9849,1.9798,1.9798,1.9798,1.9798,1.9798,1.9798,1.9798,1.9798,1.9798,1.9798,1.9798,1.9798,1.9798,1.9798,1.9761,1.9673,1.9208,1.8581,1.7852,1.7305,1.6781,1.6416,1.6275,1.6238,1.638,1.638,1.6281,1.6194,1.6107,1.592,1.6064,1.6194,1.6238,1.6337,1.6479,1.6534,1.6534,1.6534,1.6534,1.6534,1.6337,1.6151,1.6095,1.6008,1.6139,1.6238,1.6436,1.6534,1.6534,1.6446,1.6233,1.5906,1.5442,1.5266,1.4965,1.46,1.4213,1.4176,1.4292,3.0419,3.0884,3.0896,3.0896,3.0909,3.0909,3.0595,3.0143,3.0093,2.9993,2.9817,2.9779,2.9779,2.9779,2.9779,2.9779,2.9779,2.9779,2.9779,2.9779,2.9779,2.9779,2.9779,2.9779,2.9641,2.9327,2.9252,2.895,2.8436,2.8398,2.8298,2.8047,2.7557,2.7268,2.7168,2.6189,2.5398,2.5059,2.4569,2.4117,2.3803,2.3565,2.3452,2.3427,2.3251,2.3138,2.3125,2.3125,2.2815,2.2372,2.2133,2.1594,2.0853,2.069,2.0413,1.9936,1.9798,1.9798,1.9798,1.9798,1.9798,1.9798,1.9798,1.9798,1.9798,1.9798,1.9798,1.9798,1.9798,1.9798,1.9798,1.9798,1.9635,1.9359,1.8555,1.784,1.7463,1.6873,1.6516,1.6479,1.6479,1.6534,1.6534,1.6534,1.6534,1.6534,1.6534,1.6534,1.6534,1.6491,1.6534,1.6534,1.6534,1.6534,1.6534,1.6534,1.6534,1.6436,1.6436,1.638,1.6392,1.6392,1.6534,1.6534,1.6534,1.6534,1.6346,1.6095,1.5743,1.5756,1.5686,1.5133,1.4582,1.4497,1.4646,3.0959,3.1411,3.1436,3.1436,3.1436,3.1436,3.1135,3.0696,3.0658,3.0407,3.003,2.9942,2.9892,2.9867,2.9842,2.9779,2.9779,2.9779,2.9779,2.9779,2.9779,2.9779,2.9779,2.9779,2.9741,2.9716,2.9729,2.9465,2.8988,2.8976,2.8712,2.8335,2.7833,2.7419,2.7331,2.6302,2.5762,2.5611,2.5134,2.482,2.4695,2.4305,2.3991,2.3941,2.3502,2.3213,2.3078,2.3125,2.2912,2.2385,2.202,2.1594,2.1066,2.0815,2.0501,1.9886,1.9798,1.9798,1.9798,1.9911,1.9874,1.9811,1.9886,1.9823,1.9823,1.9798,1.9798,1.9798,1.9798,1.9798,1.9798,1.9798,1.9773,1.9723,1.9171,1.8455,1.7513,1.6948,1.6823,1.6672,1.6584,1.6597,1.6647,1.6609,1.6534,1.6534,1.6534,1.6534,1.6534,1.6534,1.6534,1.6534,1.6534,1.6534,1.6534,1.6534,1.6534,1.6534,1.6534,1.6534,1.6534,1.6534,1.6534,1.6534,1.6534,1.6534,1.6459,1.6233,1.6182,1.6217,1.5904,1.5332,1.5171,1.5181,1.5053,3.1512,3.1989,3.2001,3.2001,3.2001,3.2001,3.1687,3.1223,3.1185,3.1085,3.0884,3.057,3.0369,3.0344,2.9955,2.9779,2.9779,2.9779,2.9779,2.9779,2.9779,2.9779,2.9779,2.9779,2.9779,2.9779,2.9779,2.9716,2.9566,2.9515,2.944,2.934,2.8687,2.8448,2.8323,2.7344,2.6653,2.6214,2.5686,2.5234,2.4921,2.4757,2.4406,2.4004,2.3828,2.3527,2.3128,2.3125,2.3027,2.2949,2.2811,2.2272,2.1455,2.128,2.0853,2.0024,1.9849,1.9823,1.9899,2.0213,2.0238,1.9886,2.0238,2.0238,1.9823,1.9811,1.9798,1.9798,1.9798,1.9798,1.9798,1.9798,1.9798,1.9736,1.9371,1.8656,1.7777,1.7614,1.7626,1.725,1.7149,1.7112,1.7036,1.6773,1.6547,1.6534,1.6534,1.6534,1.6534,1.6534,1.6534,1.6534,1.6534,1.6534,1.6534,1.6534,1.6534,1.6534,1.6534,1.6534,1.6534,1.6534,1.6534,1.6534,1.6534,1.6534,1.6522,1.6409,1.6494,1.6684,1.669,1.6452,1.6205,1.6097,1.5702,3.2202,3.2893,3.2667,3.2717,3.2867,3.2667,3.2252,3.1813,3.1738,3.1587,3.1323,3.0859,3.062,3.0557,3.0043,2.9792,2.9779,2.9779,2.9779,2.9779,2.9779,2.9779,2.9779,2.9779,2.9779,2.9779,2.9779,2.9779,2.9767,2.9779,2.9779,2.9641,2.9214,2.8938,2.8825,2.8109,2.7494,2.7155,2.6791,2.6402,2.59,2.5624,2.5046,2.4406,2.3954,2.3452,2.3163,2.3125,2.3125,2.3125,2.3088,2.2698,2.1857,2.1794,2.1317,2.0275,2.0363,2.0439,2.03,2.069,2.084,2.0639,2.0865,2.0815,2.0552,2.0326,2.0162,2.0188,1.9962,1.9823,1.9798,1.9798,1.9798,1.9773,1.9522,1.8995,1.8141,1.8141,1.8066,1.779,1.7539,1.7375,1.7363,1.6873,1.6609,1.6534,1.6534,1.6534,1.6534,1.6534,1.6534,1.6534,1.6534,1.6534,1.6534,1.6534,1.6534,1.6534,1.6723,1.668,1.6607,1.6607,1.6565,1.6565,1.6522,1.6565,1.6723,1.6879,1.7094,1.7275,1.7531,1.7406,1.7004,1.6752,1.634,3.298,3.3872,3.3432,3.3533,3.3834,3.3395,3.2893,3.2466,3.2328,3.2064,3.1612,3.0984,3.0783,3.0658,3.0105,2.9779,2.9779,2.9779,2.988,2.9955,3.003,3.0055,2.9955,2.9829,2.9792,2.9779,2.9779,2.9779,2.9779,2.9779,2.9779,2.9691,2.9277,2.9139,2.9214,2.8621,2.8296,2.8328,2.7981,2.7595,2.713,2.6691,2.6,2.5096,2.3904,2.3452,2.3288,2.314,2.3125,2.3125,2.3125,2.2761,2.2184,2.2221,2.1782,2.1041,2.1066,2.1142,2.0928,2.1255,2.1556,2.1481,2.1506,2.1556,2.1368,2.0941,2.0668,2.074,2.0225,2.0024,1.9949,1.9886,1.9798,1.9798,1.9761,1.956,1.9158,1.8668,1.8355,1.8279,1.784,1.7614,1.7338,1.7011,1.6609,1.6534,1.6534,1.6534,1.6534,1.6534,1.6534,1.6534,1.6534,1.6534,1.6534,1.6534,1.6534,1.6522,1.6921,1.6993,1.6795,1.6752,1.668,1.668,1.6951,1.716,1.7325,1.7517,1.7666,1.7933,1.8131,1.7731,1.7241,1.7156,1.6877,3.3684,3.3922,3.4236,3.4437,3.4437,3.396,3.3633,3.3458,3.3043,3.2754,3.2491,3.1662,3.1248,3.1148,3.0306,2.9779,2.9804,2.9907,3.0005,3.047,3.0896,3.0771,3.0432,3.0159,2.9907,2.9869,2.9779,2.9792,2.9869,2.9934,2.9792,2.9754,2.9718,2.9948,3.031,2.9376,2.9183,2.9533,2.886,2.8268,2.8041,2.7574,2.6873,2.6017,2.4645,2.3866,2.3703,2.3376,2.315,2.3125,2.31,2.2802,2.2435,2.2334,2.2008,2.1568,2.143,2.1468,2.143,2.1794,2.2083,2.1995,2.2071,2.2071,2.187,2.1192,2.0978,2.1079,2.0815,2.0501,2.0451,2.0062,1.9911,1.9874,1.9823,1.9761,1.9635,1.951,1.9221,1.892,1.8706,1.8505,1.8053,1.7488,1.7049,1.6685,1.6534,1.6534,1.6534,1.6534,1.6534,1.6534,1.6534,1.6522,1.6765,1.6765,1.6837,1.6837,1.7188,1.7422,1.7188,1.7229,1.7271,1.7381,1.7544,1.7747,1.7867,1.7987,1.8092,1.8419,1.8655,1.8151,1.7782,1.7607,1.7166,3.4437,3.4638,3.4437,3.4487,3.4562,3.3859,3.352,3.3458,3.3206,3.3081,3.2905,3.2127,3.165,3.1361,3.0796,3.0331,3.0085,3.0586,3.0904,3.1229,3.164,3.1682,3.1276,3.1174,3.1087,3.0623,3.0482,3.0482,3.0495,3.0432,3.0279,2.9792,2.9856,2.996,3.0558,3.0173,3.0329,3.0632,3.0513,2.9948,2.9241,2.8911,2.7844,2.6714,2.5524,2.4846,2.4406,2.3853,2.359,2.3477,2.3276,2.2965,2.2774,2.2627,2.241,2.2008,2.2159,2.2071,2.2096,2.2359,2.2602,2.2489,2.2636,2.2623,2.2422,2.1845,2.1606,2.1669,2.1418,2.1054,2.1029,2.0552,2.025,2.0137,1.9949,1.9811,1.9798,1.9798,1.9736,1.9397,1.9133,1.8719,1.8267,1.784,1.725,1.676,1.6609,1.6597,1.6534,1.6534,1.6534,1.6534,1.6534,1.6607,1.6921,1.7076,1.7229,1.7353,1.7504,1.7706,1.7706,1.7827,1.7973,1.8013,1.8013,1.821,1.8341,1.8458,1.865,1.9006,1.9097,1.8643,1.8193,1.7781,1.7164,3.5115,3.5479,3.4625,3.455,3.4751,3.3859,3.3432,3.337,3.3131,3.3081,3.2968,3.2466,3.1913,3.1574,3.1373,3.0889,3.0957,3.1681,3.2267,3.2486,3.3278,3.308,3.2631,3.2843,3.2961,3.1957,3.1937,3.1835,3.1702,3.1508,3.1264,3.0457,3.0279,3.0784,3.0771,3.0983,3.1542,3.1852,3.2014,3.1779,3.0842,3.057,2.9342,2.773,2.692,2.6271,2.556,2.4807,2.4177,2.414,2.3621,2.3296,2.3245,2.31,2.2962,2.246,2.2739,2.2774,2.2573,2.2824,2.3075,2.3125,2.3113,2.304,2.2949,2.256,2.2322,2.2196,2.1983,2.1619,2.1581,2.1117,2.0844,2.0643,2.0188,1.9936,1.9811,1.9798,1.9773,1.9723,1.9459,1.907,1.8581,1.8116,1.7463,1.6923,1.681,1.6735,1.6722,1.6722,1.6835,1.681,1.6848,1.6824,1.7073,1.7504,1.7666,1.7827,1.7973,1.8171,1.8288,1.8535,1.865,1.8419,1.8419,1.865,1.8855,1.8968,1.9244,1.9639,1.9592,1.9174,1.8601,1.7917,1.7243,3.5374,3.5567,3.5843,3.6006,3.5893,3.4901,3.4349,3.4286,3.3395,3.3093,3.3006,3.2478,3.2202,3.1976,3.1562,3.1733,3.2371,3.3277,3.399,3.4481,3.5131,3.5121,3.4611,3.479,3.4988,3.4987,3.4542,3.3905,3.3303,3.3193,3.2627,3.2228,3.1974,3.2249,3.2536,3.2806,3.2664,3.3031,3.3031,3.2638,3.2189,3.1666,3.0925,2.9347,2.8762,2.8201,2.7325,2.5988,2.5004,2.4951,2.4406,2.4184,2.4002,2.3543,2.3229,2.3059,2.3037,2.3037,2.2975,2.3037,2.3125,2.3125,2.3125,2.3125,2.3012,2.2711,2.2611,2.2698,2.2498,2.2171,2.2159,2.1681,2.1209,2.0869,2.0605,2.0275,1.9924,1.9798,1.9798,1.9773,1.9635,1.9434,1.8907,1.8493,1.8091,1.7689,1.7539,1.7526,1.7539,1.7513,1.7571,1.7471,1.7275,1.726,1.7293,1.7787,1.8106,1.8302,1.8496,1.8855,1.9043,1.9317,1.9317,1.8968,1.9006,1.9295,1.9457,1.9479,1.953,1.969,1.9697,1.9713,1.8866,1.8037,1.7691,3.5981,3.5968,3.5956,3.5768,3.5391,3.465,3.4135,3.3809,3.3307,3.3081,3.3006,3.278,3.2478,3.229,3.2328,3.2905,3.3939,3.5027,3.5598,3.6031,3.6529,3.6584,3.6094,3.634,3.6429,3.6574,3.6662,3.6098,3.4894,3.4426,3.3944,3.3149,3.2786,3.289,3.3255,3.331,3.3533,3.3876,3.3959,3.3754,3.3338,3.28,3.196,3.1065,3.0445,2.9841,2.8969,2.7687,2.6606,2.6207,2.5679,2.5246,2.4889,2.4553,2.4105,2.3767,2.3365,2.3138,2.3138,2.3125,2.3125,2.3125,2.3125,2.3125,2.3088,2.2937,2.2849,2.2962,2.2987,2.2736,2.2664,2.2209,2.1694,2.1179,2.092,2.0426,1.9999,1.9849,1.9798,1.9798,1.9723,1.951,1.9133,1.8819,1.8668,1.848,1.8279,1.8267,1.8364,1.8197,1.8139,1.7983,1.7817,1.7779,1.7814,1.8226,1.8549,1.8741,1.893,1.9295,1.9479,1.9603,1.9566,1.9406,1.9566,1.9705,1.969,1.9617,1.9654,1.9762,1.9913,1.9831,1.8889,1.8202,1.8047,3.6295,3.6169,3.573,3.537,3.5072,3.4502,3.4168,3.393,3.3849,3.3869,3.3713,3.3746,3.3585,3.3309,3.3656,3.4376,3.5413,3.6651,3.6931,3.7187,3.771,3.7648,3.7329,3.7515,3.7914,3.7755,3.8325,3.8246,3.6339,3.5936,3.5152,3.4341,3.3536,3.3255,3.3575,3.4124,3.4259,3.4543,3.4986,3.5001,3.4345,3.381,3.3221,3.2404,3.1889,3.1305,3.0509,2.9069,2.819,2.7572,2.6986,2.6357,2.5939,2.5688,2.5356,2.4738,2.3884,2.3365,2.3138,2.3125,2.3125,2.3125,2.3125,2.3125,2.3125,2.3088,2.31,2.3125,2.31,2.3075,2.3,2.2723,2.2234,2.1719,2.1167,2.0639,2.02,1.9949,1.9811,1.9798,1.9798,1.9648,1.9384,1.9296,1.9171,1.9108,1.892,1.9188,1.9198,1.8661,1.8513,1.8449,1.8343,1.8367,1.8472,1.8717,1.8968,1.9132,1.9295,1.953,1.9654,1.969,1.9654,1.9603,1.9654,1.9705,1.9705,1.9741,1.9705,1.9818,2.0158,2.0011,1.9311,1.911,1.9114,3.6094,3.5642,3.5579,3.6016,3.6593,3.5712,3.5805,3.6361,3.5858,3.5814,3.5574,3.5734,3.56,3.5546,3.5653,3.6383,3.7147,3.7652,3.8148,3.862,3.8943,3.8943,3.8929,3.9104,3.8898,3.869,3.9116,3.8202,3.6995,3.7263,3.6891,3.5651,3.5575,3.5674,3.4949,3.5149,3.5279,3.5359,3.5424,3.5424,3.5264,3.5094,3.4673,3.414,3.3472,3.2791,3.1909,3.0451,2.9376,2.8986,2.8009,2.7434,2.715,2.6676,2.6394,2.5892,2.5007,2.3826,2.3365,2.3245,2.3245,2.3245,2.3125,2.3125,2.3258,2.3343,2.3356,2.3125,2.3125,2.3185,2.3245,2.3122,2.2711,2.2292,2.1781,2.1264,2.0784,2.0253,2.0101,2.0028,2.0066,1.999,1.975,1.9736,1.9698,1.9648,1.9636,1.9912,1.9986,1.9501,1.8808,1.8686,1.8775,1.8803,1.8893,1.9169,1.9295,1.9457,1.9581,1.9705,1.9705,1.9705,1.9705,1.969,1.9705,1.9762,1.9818,1.9818,1.9762,1.9925,2.0261,2.0189,1.9955,1.9932,1.9965,3.7347,3.7427,3.7427,3.729,3.7074,3.6617,3.6443,3.6518,3.6336,3.6198,3.6198,3.6198,3.6198,3.6369,3.6774,3.7343,3.7919,3.8397,3.887,3.9265,3.9424,3.9424,3.9352,3.9394,3.9305,3.9065,3.9005,3.8317,3.7494,3.7584,3.7674,3.6806,3.6791,3.6619,3.6058,3.6043,3.5818,3.5624,3.5489,3.5489,3.5489,3.5474,3.537,3.504,3.4382,3.3709,3.293,3.1976,3.0719,3.0203,2.9363,2.8832,2.8302,2.7792,2.7436,2.6443,2.596,2.5007,2.4002,2.3826,2.3767,2.359,2.3471,2.3305,2.37,2.4171,2.4405,2.4439,2.4002,2.3826,2.3767,2.3767,2.3153,2.27,2.257,2.2269,2.1766,2.0904,2.0522,2.0436,2.0361,2.0335,2.0309,2.0131,2.0219,2.0332,2.0317,2.0512,2.061,2.046,1.9711,1.8894,1.9056,1.9221,1.9317,1.9479,1.9523,1.9647,1.9647,1.9735,1.9705,1.9705,1.9705,1.9705,1.9705,1.9782,1.9945,1.9909,1.9854,2.007,2.0364,2.0352,2.0362,2.0329,2.0312,3.8599,3.9253,3.8658,3.8062,3.7473,3.732,3.7223,3.7049,3.7098,3.7084,3.7007,3.7084,3.7084,3.7161,3.7829,3.8219,3.8308,3.9017,3.9337,3.9424,3.9424,3.9424,3.9424,3.9379,3.917,3.8646,3.92,3.8527,3.7913,3.7913,3.8197,3.727,3.7195,3.6971,3.6626,3.6372,3.6133,3.5549,3.5489,3.5489,3.5489,3.5489,3.5489,3.5265,3.4846,3.4233,3.3724,3.2796,3.178,3.1273,3.0526,2.9829,2.9203,2.8666,2.8106,2.7281,2.6842,2.6176,2.5231,2.4724,2.461,2.4284,2.3748,2.3483,2.4563,2.5317,2.5627,2.5272,2.4908,2.4624,2.4567,2.4567,2.4209,2.3804,2.3487,2.3309,2.3044,2.2273,2.1786,2.1771,2.1621,2.1086,2.093,2.0586,2.0633,2.093,2.1051,2.1205,2.1172,2.1182,2.075,1.9885,1.971,1.9923,1.9931,1.9982,1.9959,1.9899,1.9899,1.9824,1.9839,1.975,1.9705,1.9705,1.9735,1.9889,2.007,2.0,1.9965,2.0398,2.0733,2.0782,2.0784,2.078,2.0865,3.9343,4.0128,3.8093,3.7826,3.8552,3.7978,3.8292,3.9033,3.9076,3.9003,3.8944,3.9031,3.8855,3.9017,3.8943,3.9104,3.9265,3.9337,3.9424,3.9424,3.9424,3.9424,3.9424,3.9409,3.9379,3.929,3.9379,3.8931,3.8482,3.8542,3.8018,3.6911,3.7539,3.7105,3.6731,3.6596,3.6148,3.5639,3.5489,3.5489,3.5489,3.5489,3.5489,3.537,3.4906,3.4427,3.4337,3.3335,3.2497,3.2123,3.13,3.0552,3.0028,2.934,2.8672,2.8292,2.7906,2.7296,2.6651,2.5785,2.5342,2.4872,2.4473,2.4155,2.5204,2.6637,2.6734,2.5785,2.5522,2.5342,2.5342,2.5259,2.5079,2.4803,2.4545,2.4545,2.4281,2.3815,2.3393,2.3289,2.3055,2.2807,2.1844,2.161,2.1375,2.1589,2.1744,2.1829,2.1751,2.1697,2.1624,2.1149,2.0748,2.0714,2.0714,2.0722,2.0722,2.0587,2.0498,2.0243,2.0034,1.9929,1.9944,1.9824,1.9906,2.0056,2.0193,2.0296,2.0465,2.0846,2.1101,2.1034,2.1308,2.1462,2.1685,3.9402,3.971,3.8837,3.8981,3.9696,3.9062,3.9491,4.0397,4.0202,4.0023,3.9963,3.9634,3.9424,3.9424,3.9424,3.9424,3.9424,3.9424,3.9424,3.9424,3.9424,3.9424,3.9424,3.9424,3.9424,3.9424,3.9394,3.905,3.8467,3.8826,3.8482,3.8003,3.8242,3.8153,3.7764,3.6821,3.6148,3.5699,3.5504,3.5489,3.5489,3.5489,3.5489,3.5444,3.5355,3.4861,3.4487,3.4038,3.332,3.2617,3.2003,3.136,3.0702,2.9983,2.9535,2.922,2.8831,2.8553,2.8036,2.6971,2.5906,2.5591,2.5604,2.5915,2.6165,2.7068,2.7336,2.6789,2.6269,2.6108,2.6068,2.6068,2.5932,2.5645,2.5548,2.5635,2.5449,2.5076,2.4864,2.4717,2.4998,2.5091,2.3865,2.2686,2.2446,2.2338,2.2423,2.2433,2.2366,2.2224,2.2122,2.1979,2.159,2.138,2.1365,2.1425,2.15,2.1276,2.1051,2.0948,2.0708,2.0438,2.0408,2.0228,2.0156,2.0338,2.0506,2.0681,2.0943,2.1306,2.1337,2.1195,2.1552,2.2003,2.218,3.9424,3.9424,3.9424,3.9679,4.0008,3.9619,4.0053,4.0846,4.0337,4.0113,4.0068,3.9604,3.9424,3.9424,3.9424,3.9424,3.9424,3.9424,3.9424,3.9424,3.9424,3.9424,3.9424,3.9424,3.9424,3.9424,3.9394,3.9095,3.8796,3.8721,3.8706,3.8841,3.9095,3.8871,3.8182,3.718,3.6252,3.5893,3.5579,3.5504,3.5489,3.5489,3.5489,3.5489,3.5444,3.528,3.4966,3.4681,3.4203,3.3395,3.2662,3.2018,3.133,3.0717,3.0313,2.9968,2.9699,2.9624,2.9158,2.8198,2.6818,2.6447,2.6828,2.701,2.7158,2.7313,2.741,2.7497,2.7034,2.6841,2.687,2.6826,2.6774,2.652,2.6602,2.6628,2.6599,2.6323,2.6272,2.6207,2.6335,2.6061,2.5404,2.3995,2.3087,2.2942,2.292,2.2937,2.292,2.2778,2.2581,2.2428,2.2218,2.2069,2.1979,2.2233,2.2338,2.168,2.1569,2.1816,2.1674,2.1302,2.1303,2.1528,2.1397,2.0933,2.1,2.1328,2.153,2.1735,2.1675,2.1615,2.1764,2.218,2.2225,3.9409,3.9424,3.9409,3.9439,3.9514,3.9439,3.9858,4.0502,3.9918,3.9619,3.9634,3.9469,3.9424,3.9424,3.9424,3.9424,3.9424,3.9424,3.9424,3.9424,3.9424,3.9424,3.9424,3.9424,3.9424,3.9424,3.9409,3.9364,3.9305,3.923,3.926,3.9275,3.9305,3.9065,3.8332,3.7165,3.6537,3.6372,3.5833,3.5654,3.5489,3.5489,3.5489,3.5489,3.5489,3.5385,3.531,3.528,3.4816,3.4113,3.3245,3.2706,3.2332,3.1285,3.0776,3.0627,3.0028,2.9744,2.9549,2.8868,2.8188,2.7476,2.7639,2.7527,2.7584,2.7679,2.7838,2.8023,2.7786,2.7682,2.7643,2.7643,2.7594,2.7439,2.755,2.7431,2.7335,2.7195,2.7033,2.6959,2.6629,2.6296,2.6016,2.5339,2.4053,2.3524,2.3481,2.3434,2.34,2.3251,2.3011,2.2921,2.2772,2.2727,2.2727,2.3146,2.3116,2.2398,2.2164,2.2506,2.2504,2.2169,2.2331,2.2774,2.2417,2.1805,2.1907,2.2108,2.2156,2.2137,2.2168,2.2152,2.2254,2.2265,2.2338,3.9155,3.8781,3.9215,3.9424,3.9424,3.9424,4.0023,4.0831,4.0397,4.0068,3.9963,3.9649,3.9424,3.9424,3.9424,3.9424,3.9424,3.9424,3.9424,3.9424,3.9454,3.9424,3.9424,3.9424,3.9424,3.9424,3.9424,3.9424,3.9394,3.9424,3.9424,3.9424,3.9379,3.902,3.8512,3.7778,3.7464,3.6626,3.6222,3.5983,3.5564,3.5519,3.5489,3.5489,3.5489,3.5489,3.5489,3.5489,3.5175,3.4637,3.3799,3.3544,3.314,3.2153,3.1824,3.1674,3.1225,3.0642,3.0342,2.9849,2.9355,2.8592,2.7919,2.7889,2.8143,2.8374,2.8584,2.8794,2.8712,2.8742,2.8936,2.8936,2.8823,2.8338,2.8173,2.7895,2.7745,2.7554,2.7434,2.7419,2.7215,2.6747,2.6422,2.5989,2.4921,2.4162,2.406,2.3701,2.3535,2.352,2.3385,2.34,2.334,2.331,2.34,2.352,2.3666,2.3209,2.313,2.3383,2.3264,2.3141,2.3371,2.3831,2.325,2.2721,2.2785,2.2751,2.2564,2.2507,2.2423,2.2338,2.2282,2.2321,2.2388,3.9155,3.8826,3.923,3.9424,3.9424,3.9424,3.9948,4.0591,4.0457,4.0292,3.9978,3.9574,3.9424,3.9424,3.9424,3.9424,3.9439,3.9694,3.9499,3.9529,3.9694,3.9619,3.9499,3.9424,3.9424,3.9424,3.9424,3.9424,3.9424,3.9424,3.9424,3.9424,3.9424,3.92,3.8781,3.8422,3.7988,3.7225,3.6866,3.6267,3.5908,3.5699,3.5504,3.5489,3.5489,3.5489,3.5489,3.5429,3.531,3.4891,3.4577,3.4307,3.3769,3.329,3.2901,3.2677,3.2243,3.1674,3.133,3.0537,2.9983,2.94,2.851,2.839,2.8846,2.9177,2.9327,2.9484,2.9624,2.9609,2.9609,2.9654,2.9529,2.9027,2.8628,2.8363,2.8096,2.7955,2.7604,2.759,2.7515,2.7141,2.6767,2.6303,2.5657,2.5105,2.4627,2.4193,2.3774,2.3714,2.3699,2.3684,2.3625,2.3505,2.349,2.355,2.3709,2.3879,2.4006,2.4074,2.4483,2.4455,2.4654,2.4745,2.4229,2.3814,2.3537,2.3399,2.2984,2.2705,2.2494,2.2388,2.2338,2.2405,2.248,3.9334,3.9364,3.9379,3.9379,3.9409,3.9424,3.9469,3.9514,4.0098,3.9993,3.9439,3.9469,3.9424,3.9424,3.9424,3.9424,3.9484,3.9963,3.9798,3.9679,3.9813,3.9694,3.9544,3.9424,3.9424,3.9439,3.9529,3.9679,3.9499,3.9619,3.9604,3.9424,3.9424,3.932,3.911,3.8841,3.8422,3.7883,3.7345,3.6836,3.6507,3.5968,3.5774,3.5684,3.5594,3.5519,3.5489,3.5459,3.5459,3.522,3.4906,3.4651,3.4292,3.3873,3.3634,3.329,3.2796,3.2437,3.2108,3.121,3.0761,3.0298,2.9635,2.9441,2.9535,2.9868,3.0018,3.0023,3.0073,2.9909,2.9819,2.9849,2.9849,2.9447,2.9041,2.8748,2.8479,2.8173,2.7784,2.7634,2.7575,2.732,2.6976,2.6557,2.6333,2.5884,2.536,2.4941,2.4492,2.3954,2.3924,2.3849,2.3774,2.361,2.3595,2.3711,2.3864,2.4116,2.443,2.4617,2.5134,2.5566,2.5533,2.5447,2.5221,2.483,2.419,2.3658,2.3211,2.2903,2.2511,2.2415,2.231,2.2508,2.2607,3.7988,3.8033,3.8482,3.896,3.9379,3.9424,3.9424,3.9469,3.9634,3.9559,3.9424,3.9424,3.9424,3.9424,3.9424,3.9424,3.9499,3.9559,3.9544,3.9604,3.9753,3.9589,3.9484,3.9424,3.9424,3.9589,3.9798,4.0038,4.0098,4.0098,3.9798,3.9484,3.9544,3.9514,3.9409,3.9215,3.8841,3.8437,3.7913,3.7479,3.7015,3.6447,3.6193,3.5998,3.5654,3.5549,3.5489,3.5489,3.5489,3.54,3.531,3.519,3.516,3.4562,3.4083,3.3455,3.2931,3.2482,3.2377,3.1676,3.1183,3.1225,3.0824,3.0541,3.0447,3.0398,3.0578,3.0597,3.0672,3.0612,3.0597,3.0597,3.0477,3.0128,2.9702,2.9265,2.8964,2.8644,2.8226,2.7799,2.7739,2.759,2.7245,2.7141,2.6901,2.6527,2.6138,2.5749,2.5241,2.4702,2.4358,2.4298,2.4265,2.4234,2.3975,2.4,2.4162,2.4374,2.4806,2.5249,2.5728,2.6096,2.6225,2.6147,2.5914,2.5279,2.4447,2.4052,2.3849,2.2852,2.2383,2.2366,2.2394,2.2708,2.311,3.7404,3.7494,3.8108,3.8781,3.9349,3.9424,3.9424,3.9424,3.9424,3.9424,3.9424,3.9424,3.9424,3.9424,3.9424,3.9424,3.9439,3.9783,3.9768,3.9484,3.9634,3.9604,3.9544,3.9439,3.9424,3.9664,3.9993,4.0322,4.0472,4.0681,4.0531,4.0292,4.0023,3.9813,3.9738,3.9529,3.92,3.8856,3.8467,3.8018,3.7464,3.6851,3.6462,3.6148,3.5699,3.5549,3.5489,3.5489,3.5489,3.5489,3.5489,3.5489,3.5474,3.5055,3.4816,3.4277,3.3784,3.3499,3.329,3.2452,3.2049,3.1795,3.1674,3.13,3.1091,3.0956,3.1135,3.1213,3.1332,3.1407,3.1437,3.1407,3.121,3.0941,3.038,2.9822,2.952,2.9149,2.8719,2.8173,2.7934,2.7829,2.7709,2.7649,2.75,2.7156,2.6961,2.6797,2.6198,2.554,2.5181,2.5001,2.5002,2.5026,2.475,2.4679,2.5134,2.5397,2.5568,2.6002,2.6422,2.6664,2.6838,2.6774,2.6624,2.5744,2.4794,2.4814,2.456,2.3507,2.2948,2.3426,2.3498,2.3335,2.3771,3.727,3.7375,3.8093,3.8736,3.9305,3.9364,3.9424,3.9424,3.9424,3.9424,3.9424,3.9424,3.9424,3.9424,3.9424,3.9424,3.9529,3.9813,3.9768,3.9439,3.9798,3.9843,3.9679,3.9469,3.9544,3.9709,4.0038,4.0502,4.0681,4.0905,4.1145,4.128,4.0502,4.0068,3.9918,3.9619,3.9334,3.9215,3.8826,3.8377,3.7734,3.7,3.6267,3.5893,3.5639,3.5489,3.5489,3.5489,3.5489,3.5489,3.5489,3.5489,3.5474,3.5444,3.537,3.513,3.4532,3.4262,3.3796,3.3004,3.2512,3.2213,3.1928,3.1584,3.136,3.1315,3.1392,3.1422,3.1467,3.1467,3.1467,3.1467,3.136,3.1063,3.0663,3.0321,3.0022,2.9719,2.9286,2.8786,2.8442,2.8293,2.7964,2.7859,2.7575,2.7485,2.7455,2.7395,2.718,2.6459,2.6083,2.5815,2.5906,2.5954,2.5733,2.5812,2.6366,2.6614,2.6631,2.6945,2.7551,2.7582,2.7468,2.7114,2.6657,2.5947,2.5268,2.5331,2.5019,2.3918,2.3721,2.4628,2.4734,2.4515,2.4607,3.6252,3.6806,3.7928,3.8497,3.8721,3.9215,3.9409,3.9424,3.9424,3.9409,3.9424,3.9424,3.9424,3.9424,3.9424,3.9424,3.9514,3.9619,3.9559,3.9469,3.9694,3.9918,3.9933,3.9589,3.9679,4.0068,4.0397,4.0696,4.104,4.1235,4.11,4.0666,4.0127,3.9873,3.9843,3.9499,3.9424,3.9409,3.9215,3.8975,3.8676,3.7808,3.7045,3.6582,3.6267,3.5609,3.5519,3.5489,3.5489,3.5489,3.5489,3.5489,3.5489,3.5489,3.5489,3.537,3.4906,3.4637,3.4185,3.3434,3.2868,3.2437,3.2078,3.1719,3.1452,3.1467,3.1482,3.1482,3.1467,3.1467,3.1467,3.1467,3.1437,3.1213,3.0947,3.075,3.0552,3.0238,2.9839,2.9475,2.9071,2.8682,2.8323,2.7949,2.7679,2.756,2.7545,2.7565,2.7799,2.7394,2.7094,2.6902,2.6989,2.6968,2.6804,2.6934,2.7499,2.7874,2.7941,2.8315,2.8668,2.8262,2.7875,2.7148,2.6539,2.6099,2.5907,2.587,2.5382,2.4333,2.4788,2.5747,2.6231,2.6124,2.6068,3.5714,3.6163,3.712,3.7883,3.8347,3.8497,3.8841,3.929,3.9095,3.914,3.9394,3.9424,3.9424,3.9424,3.9424,3.9424,3.9424,3.9424,3.9454,3.9439,3.9454,3.9634,3.9664,3.9634,3.9619,3.9963,4.0651,4.11,4.1324,4.1683,4.1519,4.0771,4.0187,3.9798,3.9753,3.9619,3.9424,3.9424,3.9424,3.9424,3.9349,3.8452,3.7449,3.6956,3.6387,3.5804,3.5534,3.5489,3.5489,3.5489,3.5489,3.5489,3.5489,3.5489,3.5489,3.5415,3.5145,3.4801,3.4379,3.3821,3.3193,3.2855,3.2691,3.2557,3.2063,3.2033,3.1779,3.1749,3.1497,3.1467,3.1467,3.1467,3.1467,3.1332,3.1258,3.1108,3.1076,3.0926,3.0537,3.0103,2.9594,2.8996,2.8547,2.7904,2.7664,2.7625,2.7625,2.766,2.791,2.8446,2.8121,2.8031,2.8227,2.8244,2.8196,2.834,2.8657,2.8969,2.9154,2.9202,2.9235,2.8735,2.8197,2.7723,2.7266,2.6826,2.6653,2.6547,2.5893,2.4931,2.578,2.6967,2.7266,2.7511,2.7496,3.5504,3.5594,3.6237,3.7105,3.7988,3.7659,3.8063,3.8901,3.8542,3.8661,3.917,3.923,3.9305,3.9409,3.9424,3.9424,3.9424,3.9424,3.9424,3.9424,3.9424,3.9679,3.9679,3.9529,3.9529,3.9873,4.0546,4.0891,4.1145,4.1429,4.1429,4.116,4.0726,4.0247,4.0098,3.9798,3.9424,3.9424,3.9424,3.9424,3.9155,3.8751,3.7778,3.703,3.6462,3.6148,3.5714,3.5489,3.5489,3.5489,3.5489,3.5489,3.5489,3.5489,3.5489,3.5444,3.5429,3.51,3.4801,3.4494,3.4047,3.3749,3.3657,3.327,3.2721,3.2377,3.2123,3.1824,3.1614,3.1467,3.1467,3.1467,3.1467,3.1467,3.1495,3.1465,3.145,3.145,3.1076,3.0642,3.0143,2.9552,2.8869,2.821,2.7936,2.7831,2.7806,2.781,2.8042,2.8889,2.9255,2.9371,2.9626,2.9648,2.944,2.9571,2.9752,2.9909,3.0057,2.9978,2.982,2.9357,2.8991,2.867,2.8213,2.7537,2.7231,2.7144,2.6342,2.5715,2.6783,2.7838,2.777,2.8076,2.8602,3.5489,3.5549,3.6207,3.6656,3.6911,3.7225,3.7569,3.7749,3.7704,3.7973,3.8452,3.8631,3.8841,3.9409,3.9424,3.9424,3.9424,3.9424,3.9424,3.9424,3.9424,3.9753,3.9843,3.9544,3.9454,3.9783,4.0217,4.0502,4.0651,4.0756,4.0741,4.0546,3.9963,3.9664,3.9619,3.9424,3.9424,3.9424,3.9424,3.9424,3.9245,3.8766,3.8048,3.736,3.6746,3.6163,3.5699,3.5519,3.5489,3.5489,3.5489,3.5489,3.5489,3.5489,3.5489,3.5489,3.5489,3.5325,3.5006,3.4782,3.4427,3.4185,3.3943,3.3478,3.302,3.2662,3.2302,3.1794,3.1556,3.1482,3.1467,3.1467,3.1467,3.1467,3.1452,3.1452,3.1495,3.1495,3.1345,3.117,3.1016,3.0356,2.9621,2.9152,2.8904,2.8781,2.866,2.8647,2.8826,2.9518,3.0332,3.0497,3.0758,3.0567,3.0218,3.0452,3.0656,3.0824,3.0847,3.0583,3.0319,3.007,2.9736,2.9499,2.8772,2.7994,2.7776,2.8021,2.7535,2.7198,2.8008,2.8651,2.85,2.85,2.8929]}]]